     2              OBSERVATION DATA    GPS                 RINEX VERSION / TYPE
teqc 2000Jul20 Karen Wendt 20031231 22:49:36UTC             PGM / RUN BY / DATE
                                                            COMMENT
L2: 1 -> 1; 150 -> 5; 250 -> 9                              COMMENT
L2: 1 -> 1; 150 -> 5; 250 -> 9                              COMMENT
L2: 1 -> 1; 150 -> 5; 250 -> 9                              COMMENT
L2: 1 -> 1; 150 -> 5; 250 -> 9                              COMMENT
L2: 1 -> 1; 150 -> 5; 250 -> 9                              COMMENT
L2: 1 -> 1; 150 -> 5; 250 -> 9                              COMMENT
L2: 1 -> 1; 150 -> 5; 250 -> 9                              COMMENT
L2: 1 -> 1; 150 -> 5; 250 -> 9                              COMMENT
L2: 1 -> 1; 150 -> 5; 250 -> 9                              COMMENT
L2: 1 -> 1; 150 -> 5; 250 -> 9                              COMMENT
L2: 1 -> 1; 150 -> 5; 250 -> 9                              COMMENT
L2: 1 -> 1; 150 -> 5; 250 -> 9                              COMMENT
L2: 1 -> 1; 150 -> 5; 250 -> 9                              COMMENT
L2: 1 -> 1; 150 -> 5; 250 -> 9                              COMMENT
Original Marker Name: 2076 2076_stmpd_SLO-01_PM53.8_GPS-7_19COMMENT
Campaign Name: USGS San Simeon 2003-2004                    COMMENT
4-Character Station Name: 2076                              COMMENT
6-Character Antenna Code: DMRCHT                            COMMENT
Vertical Measurement Point: BCR                             COMMENT
Vertical Offset to Rinex Ref. Point: 0.0348                 COMMENT
Radial Measurement Point: ECF                               COMMENT
Radial Offset to Rinex Ref. Point: 0.1897                   COMMENT
Antenna Height from Field Measurement: 0.5840 m             COMMENT
Additional Antenna Identification Info.:                    COMMENT
Turborogue and Ashtech Choke Ring                           COMMENT
Original XYZ: -2684299.1047 -4443821.6973 3692665.1183      COMMENT
New XYZ position is based on association with SCEC monument COMMENT
E1F0L6J2+0011. Position of that monument is believed to be  COMMENT
valid to within 1 m horizontally; vertical accuracy         COMMENT
should be no worse than 3-times this value.                 COMMENT
                                                            COMMENT
Revised Rinex header created by UCSD GPS archive for        COMMENT
GSAC on 20-Apr-2005 (2005:110) 16:28:09 GMT                 COMMENT
For assistance contact dagnew@ucsd.edu                      COMMENT
or anderson@python.ucsd.edu                                 COMMENT
                                                            COMMENT
SLO 01 PM53.8 1986 GPS7                                     MARKER NAME
JMS US GEOLOGICAL SURVEY                                    OBSERVER / AGENCY
ZE120023202 ASHTECH UZ-12 ZE00                              REC # / TYPE / VERS
CR520031626 DORNE-MARGOL. TYPE T                            ANT # / TYPE
 -2684321.0000 -4443797.0000  3692656.0000                  APPROX POSITION XYZ
        0.5175        0.0000        0.0000                  ANTENNA: DELTA H/E/N
     1     1     0                                          WAVELENGTH FACT L1/2
     5    C1    L1    L2    P1    P2                        # / TYPES OF OBSERV
    30                                                      INTERVAL
  2003    12    24     0     0    0.000000                  TIME OF FIRST OBS
  2003    12    24    23    59   30.000000                  TIME OF LAST OBS
                                                            END OF HEADER
 03 12 24  0  0  0.0000000  0  8G30G10G 9G 4G24G 6G17G 5
  21131798.781   -18403657.59543 -14332430.88542  21131800.807    21131797.713
  22253604.548   -12877196.73043  -9996136.38642  22253605.411    22253604.184
  24210126.848    30933805.57543  24100192.80842  24210128.244    24210127.909
  23678441.257    29605119.59643  23061063.08442  23678442.910    23678441.122
  20878153.875    15135323.25944  11837019.85942  20878154.888    20878152.731
  23469699.750    -9944807.00043  -7718954.28042  23469701.451    23469700.640
  20726315.957   -13440562.04743 -10458906.86142  20726316.594    20726314.319
  20216890.822     7322288.15344   5710723.92642  20216891.829    20216888.859
 03 12 24  0  0 30.0000000  0  8G30G10G 9G 4G24G 6G17G 5
  21118970.040   -18471072.70943 -14384962.08642  21118972.101    21118968.988
  22238356.577   -12957325.06043 -10058573.95742  22238357.472    22238356.214
  24229189.111    31033978.36243  24178249.45342  24229190.459    24229190.222
  23697606.928    29705835.98243  23139543.36642  23697608.560    23697606.818
  20887469.926    15184279.60144  11875167.69142  20887470.968    20887468.795
  23456709.577   -10013070.48243  -7772146.50442  23456711.269    23456710.403
  20720869.584   -13469182.82843 -10481208.74642  20720870.218    20720867.953
  20217865.992     7327412.80944   5714717.18742  20217867.009    20217864.060
 03 12 24  0  1  0.0000000  0  8G30G10G 9G 4G24G 6G17G 5
  21106212.543   -18538113.59443 -14437201.68642  21106214.580    21106211.482
  22223176.057   -13037098.96243 -10120735.34842  22223176.945    22223175.695
  24248248.610    31134136.67743  24256294.83542  24248249.943    24248249.776
  23716789.055    29806638.46743  23218090.72242  23716790.676    23716788.914
  20896856.981    15233609.10944  11913606.30242  20896858.039    20896855.874
  23443728.780   -10081284.75543  -7825300.38442  23443730.426    23443729.571
  20715506.262   -13497367.19843 -10503170.57242  20715506.887    20715504.614
  20218940.453     7333059.30244   5719117.07242  20218941.474    20218938.535
 03 12 24  0  1 30.0000000  0  8G30G10G 9G 4G24G 6G17G 5
  21093526.462   -18604779.12643 -14489148.79842  21093528.511    21093525.387
  22208063.257   -13116516.90843 -10182619.35742  22208064.157    22208062.900
  24267304.559    31234276.25843  24334325.62042  24267305.851    24267305.764
  23735986.878    29907523.71643  23296702.58042  23735988.520    23735986.816
  20906314.407    15283308.28744  11952332.97242  20906315.474    20906313.305
  23430757.107   -10149451.11943  -7878416.93642  23430758.749    23430757.828
  20710225.684   -13525116.62043 -10524793.47442  20710226.328    20710224.069
  20220114.056     7339226.71644   5723922.87042  20220115.078    20220112.128
 03 12 24  0  2  0.0000000  0  8G30G10G 9G 4G24G 6G17G 5
  21080912.525   -18671065.34343 -14540800.34642  21080914.603    21080911.499
  22193019.112   -13195573.90243 -10244222.10742  22193020.055    22193018.752
  24286356.706    31334395.88943  24412340.85242  24286357.907    24286357.938
  23755200.297    30008491.03343  23375378.38142  23755202.034    23755200.263
  20915842.053    15333376.52044  11991347.20842  20915843.113    20915840.941
  23417794.806   -10217567.99743  -7931494.92942  23417796.458    23417795.501
  20705028.192   -13552429.49044 -10546076.20642  20705028.840    20705026.592
  20221387.163     7345917.10044   5729136.17542  20221388.198    20221385.252
 03 12 24  0  2 30.0000000  0  8G30G10G 9G 4G24G 6G17G 5
  21068371.521   -18736968.66943 -14592153.53742  21068373.575    21068370.493
  22178044.523   -13274265.33043 -10305540.00342  22178045.504    22178044.179
  24305404.905    31434494.37743  24490339.58442  24305406.100    24305406.136
  23774429.251    30109539.80043  23454117.66442  23774430.962    23774429.242
  20925439.792    15383813.15544  12030648.51242  20925440.867    20925438.683
  23404842.329   -10285633.84043  -7984533.15042  23404843.932    23404842.936
  20699914.058   -13579304.31643 -10567017.59842  20699914.707    20699912.455
  20222760.169     7353132.31644   5734758.44042  20222761.188    20222758.250
 03 12 24  0  3  0.0000000  0  8G30G10G 9G 4G24G 6G17G 5
  21055903.530   -18802488.27443 -14643207.72542  21055905.569    21055902.493
  22163139.756   -13352589.99643 -10366572.10842  22163140.710    22163139.388
  24324448.210    31534567.10243  24568318.29042  24324449.409    24324449.404
  23793672.847    30210665.78943  23532917.10742  23793674.600    23793672.826
  20935106.894    15434614.18844  12070233.76042  20935107.961    20935105.761
  23391899.150   -10353650.32643  -8037532.92242  23391900.756    23391899.729
  20694882.910   -13605743.16343 -10587619.26942  20694883.543    20694881.276
  20224232.780     7360871.04344   5740788.63142  20224233.806    20224230.860
 03 12 24  0  3 30.0000000  0  8G30G10G 9G 4G24G 6G17G 5
  21043509.736   -18867618.11443 -14693958.20342  21043511.730    21043508.657
  22148306.161   -13430540.86443 -10427312.95942  22148307.105    22148305.738
  24343486.831    31634615.37843  24646277.90942  24343488.083    24343488.152
  23812931.551    30311870.77043  23611778.10642  23812933.206    23812931.552
  20944843.625    15485781.17344  12110104.15942  20944844.695    20944842.465
  23378966.026   -10421613.64743  -8090491.26042  23378967.698    23378966.590
  20689935.421   -13631742.24943 -10607878.26742  20689936.077    20689933.797
  20225805.832     7369137.48944   5747230.03042  20225806.863    20225803.892
 03 12 24  0  4  0.0000000  0  8G30G10G 9G 4G24G 6G17G 5
  21031189.069   -18932363.61643 -14744409.19842  21031191.046    21031187.960
  22133542.896   -13508122.18643 -10487765.85642  22133543.813    22133542.397
  24362518.613    31734628.31943  24724210.01942  24362519.974    24362519.978
  23832203.383    30413144.87243  23690692.94842  23832205.057    23832203.499
  20954648.130    15537304.23544  12150252.01542  20954649.179    20954646.939
  23366041.678   -10489531.39943  -8143414.10442  23366043.344    23366042.159
  20685070.106   -13657309.50644 -10627800.77242  20685070.789    20685068.486
  20227477.942     7377924.52444   5754077.08242  20227478.952    20227475.985
 03 12 24  0  4 30.0000000  0  8G30G10G 9G 4G24G 6G17G 5
  21018944.112   -18996711.13443 -14794550.07942  21018946.102    21018942.986
  22118852.616   -13585319.77143 -10547919.74842  22118853.526    22118852.046
  24381545.410    31834614.45843  24802121.19942  24381546.758    24381546.746
  23851490.154    30514497.23643  23769668.77542  23851491.798    23851490.228
  20964522.055    15589192.18844  12190684.19442  20964523.112    20964520.861
  23353128.122   -10557392.18843  -8196292.55142  23353129.801    23353128.569
  20680289.108   -13682433.69544 -10647378.03242  20680289.812    20680287.486
  20229251.308     7387243.64044   5761338.74042  20229252.322    20229249.339
 03 12 24  0  5  0.0000000  0  8G30G10G 9G 4G24G 6G17G 5
  21006772.784   -19060671.70643 -14844389.44942  21006774.788    21006771.613
  22104233.402   -13662144.01643 -10607782.73742  22104234.311    22104232.801
  24400563.963    31934557.71343  24879999.01442  24400565.366    24400565.331
  23870788.810    30615912.16743  23848693.36442  23870790.471    23870788.906
  20974462.540    15641429.80244  12231388.83442  20974463.564    20974461.334
  23340222.913   -10625209.25243  -8249136.94542  23340224.585    23340223.310
  20675589.901   -13707128.12644 -10666620.41742  20675590.605    20675588.272
  20231123.423     7397081.62544   5769004.70842  20231124.421    20231121.444
 03 12 24  0  5 30.0000000  0  8G30G10G 9G 4G24G 6G17G 5
  20994678.031   -19124230.02743 -14893915.37242  20994680.026    20994676.812
  22089688.340   -13738578.63443 -10667342.12342  22089689.237    22089687.674
  24419576.438    32034468.40243  24957851.43342  24419577.828    24419577.864
  23890101.463    30717400.74043  23927775.32742  23890103.170    23890101.539
  20984471.612    15694027.84144  12272374.31942  20984472.599    20984470.405
  23327328.524   -10692969.49243  -8301937.05342  23327330.173    23327328.819
  20670974.889   -13731380.17344 -10685518.08842  20670975.574    20670973.232
  20233096.825     7407452.04044   5777085.55842  20233097.821    20233094.852
 03 12 24  0  6  0.0000000  0  8G30G10G 9G 4G24G 6G17G 5
  20982658.573   -19187392.63243 -14943132.95142  20982660.565    20982657.318
  22075216.261   -13814629.67843 -10726602.62242  22075217.138    22075215.582
  24438580.388    32134334.78043  25035669.32842  24438581.772    24438581.877
  23909426.108    30818951.85643  24006906.03742  23909427.786    23909426.090
  20994547.133    15746975.01244  12313631.85542  20994548.093    20994545.900
  23314443.253   -10760681.72943  -8354699.75842  23314444.936    23314443.546
  20666442.319   -13755198.93544 -10704078.13442  20666443.008    20666440.645
  20235169.940     7418346.39444   5785574.66942  20235170.925    20235167.971
 03 12 24  0  6 30.0000000  0  8G30G10G 9G 4G24G 6G17G 5
  20970715.354   -19250154.60043 -14992038.34542  20970717.336    20970714.061
  22060818.272   -13890291.39043 -10785559.74842  22060819.147    22060817.551
  24457575.972    32234157.00943  25113452.79842  24457577.283    24457577.500
  23928762.763    30920566.03343  24086085.87742  23928764.311    23928762.730
  21004689.152    15800271.70044  12355161.73742  21004690.116    21004687.902
  23301567.591   -10828343.27243  -8407422.95942  23301569.289    23301567.872
  20661992.642   -13778581.93844 -10722298.62742  20661993.355    20661990.971
  20237343.313     7429767.46744   5794474.21042  20237344.276    20237341.333
 03 12 24  0  7  0.0000000  0  8G30G10G 9G 4G24G 6G17G 5
  20958848.642   -19312514.44143 -15040630.39342  20958850.633    20958847.327
  22046494.860   -13965561.19343 -10844211.48842  22046495.740    22046494.131
  24476562.475    32333931.40143  25191199.01442  24476563.791    24476563.901
  23948110.707    31022240.25443  24165312.50542  23948112.323    23948110.717
  21014897.168    15853915.09244  12396961.78042  21014898.120    21014895.905
  23288701.488   -10895954.69543  -8460107.10642  23288703.200    23288701.812
  20657625.746   -13801530.12044 -10740180.30042  20657626.450    20657624.040
  20239616.784     7441714.67944   5803783.73142  20239617.753    20239614.808
 03 12 24  0  7 30.0000000  0  8G30G10G 9G 4G24G 6G17G 5
  20947059.762   -19374465.14543 -15088903.63442  20947061.768    20947058.466
  22032247.466   -14040431.48843 -10902551.92142  22032248.344    22032246.711
  24495540.163    32433659.88243  25268909.41642  24495541.441    24495541.649
  23967470.594    31123977.14743  24244587.95942  23967472.198    23967470.660
  21025171.632    15907907.71044  12439033.94042  21025172.582    21025170.365
  23275845.891   -10963511.31143  -8512748.55142  23275847.556    23275846.118
  20653342.383   -13824039.15244 -10757719.78442  20653343.103    20653340.697
  20241991.362     7454193.06044   5813507.14642  20241992.309    20241989.363
 03 12 24  0  8  0.0000000  0  8G30G10G 9G 4G24G 6G17G 5
  20935347.761   -19436012.08843 -15136862.25642  20935349.753    20935346.439
  22018075.243   -14114906.91743 -10960584.66742  22018076.097    22018074.446
  24514507.357    32533332.05943  25346575.97042  24514508.532    24514508.778
  23986840.560    31225767.02843  24323904.71542  23986842.202    23986840.699
  21035510.635    15962239.42844  12481370.33742  21035511.582    21035509.346
  23262999.173   -11031020.76043  -8565353.23242  23263000.864    23262999.406
  20649141.115   -13846116.82944 -10774923.14642  20649141.847    20649139.407
  20244465.554     7467194.95044   5823638.49042  20244466.511    20244463.524
 03 12 24  0  8 30.0000000  0  8G30G10G 9G 4G24G 6G17G 5
  20923714.251   -19497146.40143 -15184499.34942  20923716.251    20923712.928
  22003980.007   -14188977.72643 -11018302.12142  22003980.856    22003979.190
  24533464.450    32632951.98443  25424201.80742  24533465.707    24533465.945
  24006221.515    31327614.49343  24403266.33942  24006223.202    24006221.644
  21045915.049    16016914.89144  12523974.58942  21045916.003    21045913.739
  23250162.782   -11098476.09443  -8617915.73942  23250164.481    23250163.004
  20645023.119   -13867756.94144 -10791785.55042  20645023.852    20645021.415
  20247040.656     7480727.25044   5834183.14242  20247041.617    20247038.636
 03 12 24  0  9  0.0000000  0  8G30G10G 9G 4G24G 6G17G 5
  20912159.374   -19557867.67543 -15231814.59642  20912161.349    20912157.998
  21989961.914   -14262642.85243 -11075703.45842  21989962.799    21989961.118
  24552410.727    32732514.73443  25501783.13142  24552412.065    24552412.112
  24025612.642    31429515.41443  24482669.62442  24025614.343    24025612.810
  21056384.039    16071929.69444  12566843.26342  21056384.977    21056382.688
  23237336.327   -11165879.20143  -8670437.56042  23237338.052    23237336.526
  20640988.058   -13888961.32644 -10808308.43142  20640988.763    20640986.328
  20249716.423     7494788.54544   5845140.00042  20249717.373    20249714.418
 03 12 24  0  9 30.0000000  0  8G30G10G 9G 4G24G 6G17G 5
  20900682.715   -19618177.88443 -15278809.53142  20900684.701    20900681.306
  21976020.854   -14335903.35043 -11132789.50542  21976021.720    21976020.068
  24571344.784    32832013.59243  25579314.60942  24571346.090    24571346.223
  24045012.738    31531463.66743  24562109.79642  24045014.463    24045012.933
  21066916.366    16127277.32444  12609971.28542  21066917.319    21066914.989
  23224519.052   -11233234.19343  -8722921.87842  23224520.755    23224519.193
  20637034.992   -13909734.80244 -10824495.54242  20637035.706    20637033.252
  20252492.072     7509374.74344   5856505.86842  20252493.018    20252490.054
 03 12 24  0 10  0.0000000  0  8G30G10G 9G 4G24G 6G17G 5
  20889286.274   -19678066.47743 -15325475.93742  20889288.240    20889284.860
  21962158.932   -14408747.93243 -11189551.46842  21962159.793    21962158.150
  24590267.809    32931454.25243  25656800.76342  24590269.063    24590269.285
  24064423.017    31633465.29343  24641591.55442  24064424.717    24064423.236
  21077513.162    16182963.85944  12653363.38942  21077514.125    21077511.789
  23211712.538   -11300532.67143  -8775362.17542  23211714.216    23211712.674
  20633165.488   -13930069.30244 -10840340.60042  20633166.181    20633163.717
  20255369.195     7524494.06544   5868287.15542  20255370.122    20255367.167
 03 12 24  0 10 30.0000000  0  8G30G10G 9G 4G24G 6G17G 5
  20877968.929   -19737539.55043 -15371818.56642  20877970.882    20877967.480
  21948375.114   -14481182.11343 -11245993.64342  21948375.953    21948374.336
  24609177.547    33030825.47043  25734232.79842  24609178.786    24609179.136
  24083841.494    31735510.03443  24721106.90142  24083843.152    24083841.725
  21088172.503    16238978.99444  12697011.54542  21088173.461    21088171.117
  23198915.209   -11367782.73943  -8827764.72942  23198916.918    23198915.314
  20629377.895   -13949973.24344 -10855850.16042  20629378.591    20629376.098
  20258346.154     7540138.13644   5880477.33642  20258347.089    20258344.147
 03 12 24  0 11  0.0000000  0  8G30G10G 9G 4G24G 6G17G 5
  20866732.234   -19796588.53843 -15417830.73842  20866734.193    20866730.818
  21934671.199   -14553196.56243 -11302108.76642  21934672.019    21934670.402
  24628074.799    33130130.97543  25811613.61742  24628076.090    24628076.475
  24103268.962    31837602.03043  24800659.08542  24103270.605    24103269.289
  21098895.083    16295326.61444  12740918.78442  21098896.075    21098893.703
  23186128.319   -11434978.15843  -8880124.70242  23186129.960    23186128.359
  20625673.286   -13969441.05744 -10871019.87942  20625673.992    20625671.474
  20261424.224     7556313.55344   5893081.55442  20261425.174    20261422.217
 03 12 24  0 11 30.0000000  0  8G30G10G 9G 4G24G 6G17G 5
  20855576.547   -19855211.99443 -15463511.32542  20855578.510    20855575.101
  21921047.638   -14624788.76043 -11357894.86242  21921048.430    21921046.803
  24646958.914    33229367.21743  25888940.51942  24646960.250    24646960.570
  24122704.929    31939738.58843  24880245.99342  24122706.491    24122705.180
  21109680.390    16352003.78244  12785082.81842  21109681.372    21109679.028
  23173351.697   -11502119.42443  -8932442.47642  23173353.366    23173351.704
  20622051.557   -13988473.45044 -10885850.31142  20622052.242    20622049.702
  20264603.330     7573019.80444   5906099.41042  20264604.274    20264601.315
 03 12 24  0 12  0.0000000  0  8G30G10G 9G 4G24G 6G17G 5
  20844501.177   -19913413.37543 -15508863.02742  20844503.133    20844499.718
  21907503.818   -14695962.01243 -11413354.51742  21907504.590    21907502.949
  24665828.206    33328525.90843  25966206.92142  24665829.585    24665829.888
  24142147.853    32041911.88143  24959861.51942  24142149.494    24142148.112
  21120526.819    16409002.29544  12829497.25342  21120527.831    21120525.461
  23160584.322   -11569212.15343  -8984722.43242  23160585.998    23160584.303
  20618511.447   -14007076.84344 -10900346.45642  20618512.115    20618509.586
  20267882.302     7590250.94344   5919526.26642  20267883.239    20267880.291
 03 12 24  0 12 30.0000000  0  8G30G10G 9G 4G24G 6G17G 5
  20833507.342   -19971186.22743 -15553880.80542  20833509.288    20833505.886
  21894041.075   -14766708.83343 -11468481.88342  21894041.886    21894040.239
  24684683.092    33427608.64243  26043414.18242  24684684.516    24684684.858
  24161598.213    32144124.01643  25039507.31042  24161599.813    24161598.442
  21131434.851    16466324.38444  12874163.82542  21131435.837    21131433.486
  23147826.981   -11636251.97443  -9036961.16842  23147828.717    23147826.990
  20615053.744   -14025247.21444 -10914505.17942  20615054.388    20615051.860
  20271262.019     7608011.45744   5933365.62642  20271262.949    20271260.000
 03 12 24  0 13  0.0000000  0  8G30G10G 9G 4G24G 6G17G 5
  20822595.438   -20028528.46943 -15598563.04542  20822597.385    20822593.991
  21880660.123   -14837026.32443 -11523274.71542  21880660.894    21880659.214
  24703523.061    33526612.75143  26120560.16642  24703524.478    24703524.696
  24181055.582    32246373.07443  25119181.87742  24181057.195    24181055.788
  21142404.021    16523967.77044  12919080.75442  21142405.012    21142402.645
  23135079.753   -11703238.66943  -9089158.49942  23135081.480    23135079.721
  20611678.326   -14042985.09444 -10928326.89742  20611678.972    20611676.437
  20274742.505     7626301.47844   5947617.58842  20274743.447    20274740.482
 03 12 24  0 13 30.0000000  0  8G30G10G 9G 4G24G 6G17G 5
  20811766.536   -20085434.64043 -15642905.49142  20811768.503    20811765.071
  21867362.003   -14906908.40443 -11577728.25842  21867362.790    21867361.047
  24722348.125    33625538.86843  26197645.40442  24722349.551    24722349.778
  24200520.213    32348660.47843  25198886.32342  24200521.926    24200520.438
  21153434.485    16581933.25044  12964248.66742  21153435.474    21153433.091
  23122343.269   -11770169.07543  -9141311.98542  23122344.939    23122343.200
  20608385.751   -14060287.53544 -10941809.30642  20608386.402    20608383.883
  20278324.352     7645124.17744   5962284.62842  20278325.294    20278322.312
 03 12 24  0 14  0.0000000  0  8G30G10G 9G 4G24G 6G17G 5
  20801020.396   -20141906.00043 -15686909.11942  20801022.334    20801018.926
  21854146.604   -14976355.69743 -11631842.99942  21854147.398    21854145.625
  24741157.020    33724380.51843  26274664.77442  24741158.412    24741158.720
  24219991.043    32450980.40343  25278616.11242  24219992.848    24219991.310
  21164525.103    16640214.86944  13009662.92142  21164526.092    21164523.700
  23109616.936   -11837046.43743  -9193424.14442  23109618.541    23109616.762
  20605175.274   -14077158.62444 -10954955.59242  20605175.933    20605173.413
  20282006.795     7664475.58944   5977363.65142  20282007.746    20282004.762
 03 12 24  0 14 30.0000000  0  8G30G10G 9G 4G24G 6G17G 5
  20790356.975   -20197942.44843 -15730573.85542  20790358.954    20790355.505
  21841014.152   -15045367.20443 -11685618.16942  21841014.922    21841013.138
  24759949.142    33823133.34343  26351614.96742  24759950.619    24759950.955
  24239467.328    32553328.98443  25358368.20942  24239469.095    24239467.641
  21175675.117    16698808.55444  13055320.34542  21175676.100    21175673.702
  23096900.283   -11903872.56843  -9245496.37842  23096901.903    23096900.079
  20602046.467   -14093600.57244 -10967767.47942  20602047.122    20602044.585
  20285789.514     7684353.94244   5992853.28142  20285790.472    20285787.485
 03 12 24  0 15  0.0000000  0  8G30G10G 9G 4G24G 6G17G 5
  20779777.937   -20253535.61643 -15773893.18142  20779779.905    20779776.461
  21827966.313   -15113933.98543 -11739046.79542  21827967.099    21827965.287
  24778725.010    33921800.78543  26428498.58742  24778726.407    24778726.709
  24258949.817    32655710.32543  25438145.85642  24258951.635    24258950.197
  21186885.258    16757718.24044  13101223.99942  21186886.217    21186883.844
  23084194.569   -11970641.23443  -9297523.85142  23084196.191    23084194.324
  20599000.362   -14109607.93444 -10980240.72442  20599000.995    20598998.477
  20289673.672     7704765.38544   6008758.30642  20289674.640    20289671.656
 03 12 24  0 15 30.0000000  0  8G30G10G 9G 4G24G 6G17G 5
  20769282.464   -20308689.55343 -15816870.24642  20769284.434    20769280.987
  21815002.429   -15182059.43543 -11792131.51742  21815003.211    21815001.413
  24797482.894    34020373.88243  26505308.74842  24797484.326    24797484.668
  24278437.101    32758116.41643  25517942.78442  24278438.825    24278437.427
  21198153.867    16816935.24344  13147367.12242  21198154.822    21198152.439
  23071498.593   -12037358.43843  -9349511.20942  23071500.242    23071498.383
  20596035.714   -14125187.19744 -10992380.38342  20596036.348    20596033.818
  20293658.064     7725703.55644   6025073.77142  20293659.043    20293656.046
 03 12 24  0 16  0.0000000  0  8G30G10G 9G 4G24G 6G17G 5
  20758870.682   -20363403.85544 -15859504.73142  20758872.620    20758869.176
  21802122.747   -15249742.45843 -11844871.49342  21802123.525    21802121.722
  24816221.995    34118848.61643  26582042.24442  24816223.347    24816223.843
  24297928.325    32860543.39443  25597755.97542  24297930.066    24297928.649
  21209480.259    16876455.88544  13193746.84942  21209481.217    21209478.851
  23058812.222   -12104025.72543  -9401459.68542  23058813.837    23058811.925
  20593152.066   -14140340.72544 -11004188.29842  20593152.709    20593150.187
  20297742.410     7747166.89644   6041798.46042  20297743.385    20297740.376
 03 12 24  0 16 30.0000000  0  8G30G10G 9G 4G24G 6G17G 5
  20748544.988   -20417665.72144 -15901786.67342  20748546.949    20748543.454
  21789329.865   -15316969.19343 -11897255.91642  21789330.669    21789328.864
  24834943.990    34217233.10343  26658705.37042  24834945.279    24834945.846
  24317425.307    32963000.31143  25677592.50542  24317426.983    24317425.612
  21220865.960    16936288.23244  13240369.45642  21220866.927    21220864.568
  23046137.365   -12170632.20243  -9453360.78442  23046139.015    23046137.092
  20590351.414   -14155058.16444 -11015656.40342  20590352.059    20590349.531
  20301928.558     7769165.36944   6058940.13542  20301929.527    20301926.537
 03 12 24  0 17  0.0000000  0  8G30G10G 9G 4G24G 6G17G 5
  20738304.191   -20471481.21544 -15943720.78742  20738306.165    20738302.663
  21776622.711   -15383745.45043 -11949289.31942  21776623.524    21776621.735
  24853646.621    34315516.21543  26735289.56142  24853647.932    24853648.576
  24336925.970    33065476.65143  25757444.18342  24336927.594    24336926.226
  21232309.035    16996421.98244  13287226.92742  21232309.989    21232307.650
  23033472.582   -12237185.90343  -9505220.75442  23033474.218    23033472.277
  20587632.018   -14169348.42344 -11026791.63642  20587632.714    20587630.173
  20306215.038     7791690.97844   6076492.57042  20306216.004    20306213.021
 03 12 24  0 17 30.0000000  0  8G30G10G 9G 4G24G 6G17G 5
  20728148.713   -20524848.26943 -15985305.46842  20728150.714    20728147.215
  21764001.859   -15450068.29243 -12000969.40442  21764002.672    21764000.885
  24872329.375    34413695.30443  26811792.69042  24872330.760    24872331.451
  24356430.023    33167970.72043  25837309.66842  24356431.627    24356430.221
  21243809.021    17056854.85644  13334317.47642  21243809.971    21243807.633
  23020817.853   -12303686.58743  -9557039.41442  23020819.517    23020817.551
  20584993.884   -14183211.76744 -11037594.20942  20584994.583    20584992.046
  20310601.768     7814743.36344   6094455.47942  20310602.706    20310599.725
 03 12 24  0 18  0.0000000  0  8G30G10G 9G 4G24G 6G17G 5
  20718080.176   -20577758.68743 -16026534.32942  20718082.163    20718078.659
  21751468.999   -15515928.77143 -12052289.21142  21751469.811    21751468.016
  24890993.328    34511773.83843  26888217.47642  24890994.620    24890995.272
  24375938.157    33270486.43543  25917192.02842  24375939.819    24375938.359
  21255366.667    17117590.69844  13381644.10242  21255367.622    21255365.287
  23008174.392   -12370128.24043  -9608812.09042  23008176.035    23008174.053
  20582438.009   -14196643.03344 -11048060.09742  20582438.664    20582436.133
  20315089.842     7838328.42644   6112833.46042  20315090.781    20315087.805
 03 12 24  0 18 30.0000000  0  8G30G10G 9G 4G24G 6G17G 5
  20708097.646   -20630217.14943 -16067411.01142  20708099.619    20708096.098
  21739023.327   -15581331.04843 -12103251.97542  21739024.151    21739022.334
  24909636.156    34609742.72843  26964556.80742  24909637.539    24909638.231
  24395448.742    33373015.26843  25997084.60242  24395450.432    24395448.959
  21266980.173    17178620.04044  13429199.43542  21266981.123    21266978.789
  22995540.992   -12436517.11443  -9660543.63142  22995542.581    22995540.599
  20579962.943   -14209649.47644 -11058194.95542  20579963.615    20579961.061
  20319677.944     7862439.18444   6131621.07642  20319678.918    20319675.932
 03 12 24  0 19  0.0000000  0  8G30G10G 9G 4G24G 6G17G 5
  20698202.199   -20682217.92744 -16107931.06542  20698204.179    20698200.633
  21726666.089   -15646268.59543 -12153852.61042  21726666.908    21726665.092
  24928258.261    34707602.84143  27040811.35542  24928259.538    24928260.368
  24414962.106    33475558.68043  26076988.54142  24414963.743    24414962.316
  21278649.840    17239944.53244  13476984.75042  21278650.760    21278648.453
  22982918.271   -12502849.71043  -9712231.32942  22982919.837    22982917.887
  20577569.309   -14222227.89844 -11067996.29242  20577569.986    20577567.438
  20324366.797     7887079.28444   6150821.16142  20324367.759    20324364.788
 03 12 24  0 19 30.0000000  0  8G30G10G 9G 4G24G 6G17G 5
  20688393.992   -20733760.31444 -16148093.92642  20688395.954    20688392.403
  21714397.506   -15710740.06143 -12204090.06142  21714398.323    21714396.551
  24946859.224    34805350.26443  27116978.15642  24946860.488    24946861.210
  24434477.686    33578113.78843  26156901.60942  24434479.339    24434477.898
  21290374.977    17301560.64543  13524997.30442  21290375.924    21290373.630
  22970306.009   -12569127.17843  -9763876.07142  22970307.595    22970305.673
  20575256.753   -14234380.41544 -11077465.75442  20575257.431    20575254.867
  20329155.969     7912246.76144   6170432.19042  20329156.942    20329153.978
 03 12 24  0 20  0.0000000  0  8G30G10G 9G 4G24G 6G17G 5
  20678673.564   -20784841.29544 -16187897.25242  20678675.539    20678671.976
  21702218.257   -15774742.07643 -12253961.70242  21702219.084    21702217.337
  24965438.327    34902983.54243  27193055.94642  24965439.554    24965440.340
  24453995.361    33680679.59643  26236823.02142  24453997.037    24453995.422
  21302155.396    17363467.17143  13573236.15542  21302156.327    21302154.060
  22957704.601   -12635348.06643  -9815476.72042  22957706.164    22957704.218
  20573025.339   -14246106.43644 -11086602.88242  20573026.045    20573023.450
  20334045.758     7937942.80244   6190455.09242  20334046.730    20334043.760
 03 12 24  0 20 30.0000000  0  8G30G10G 9G 4G24G 6G17G 5
  20669041.807   -20835456.42844 -16227337.58742  20669043.774    20669040.179
  21690129.435   -15838269.18043 -12303463.28442  21690130.251    21690128.475
  24983995.493    35000502.12643  27269044.33742  24983996.673    24983997.667
  24473515.053    33783256.46343  26316753.05242  24473516.730    24473515.154
  21313991.039    17425663.72744  13621700.99642  21313991.944    21313989.670
  22945114.389   -12701509.90443  -9867031.36542  22945115.939    22945114.013
  20570875.407   -14257404.43044 -11095406.49042  20570876.082    20570873.486
  20339036.415     7964168.83644   6210890.97242  20339037.379    20339034.397
 03 12 24  0 21  0.0000000  0  8G30G10G 9G 4G24G 6G17G 5
  20659497.815   -20885610.27444 -16266418.47542  20659499.780    20659496.185
  21678130.244   -15901325.16443 -12352597.75642  21678131.079    21678129.282
  25002529.357    35097897.31743  27344936.72042  25002530.464    25002531.375
  24493035.349    33885836.14543  26396685.27942  24493037.024    24493035.373
  21325880.210    17488141.79343  13670385.20242  21325881.121    21325878.848
  22932534.142   -12767619.04343  -9918544.92542  22932535.716    22932533.815
  20568805.567   -14268281.44744 -11103882.06542  20568806.244    20568803.629
  20344126.696     7990918.47944   6231734.86042  20344127.661    20344124.669
 03 12 24  0 21 30.0000000  0  8G30G10G 9G 4G24G 6G17G 5
  20650043.510   -20935292.86244 -16305132.15142  20650045.485    20650041.884
  21666222.641   -15963899.87043 -12401357.20542  21666223.483    21666221.653
  25021040.640    35195174.37143  27420736.94642  25021041.822    25021042.574
  24512557.292    33988424.65743  26476624.38742  24512558.988    24512557.292
  21337823.985    17550906.75844  13719292.95842  21337824.912    21337822.647
  22919965.497   -12833667.43343  -9970011.16442  22919967.058    22919965.192
  20566817.208   -14278730.36844 -11112024.06442  20566817.866    20566815.237
  20349318.022     8018199.02544   6252992.43742  20349318.981    20349315.972
 03 12 24  0 22  0.0000000  0  8G30G10G 9G 4G24G 6G17G 5
  20640677.739   -20984510.11944 -16343483.23442  20640679.736    20640676.115
  21654405.733   -16025998.04843 -12449745.32942  21654406.541    21654404.713
  25039527.579    35292322.83943  27496436.88442  25039528.749    25039529.359
  24532078.977    34091012.09743  26556562.67742  24532080.672    24532079.131
  21349820.484    17613948.64644  13768416.50042  21349821.383    21349819.132
  22907407.036   -12899662.53843 -10021435.87542  22907408.550    22907406.753
  20564908.716   -14288759.49444 -11119838.95242  20564909.365    20564906.745
  20354608.828     8046002.35944   6274657.38242  20354609.783    20354606.763
 03 12 24  0 22 30.0000000  0  8G30G10G 9G 4G24G 6G17G 5
  20631402.123   -21033253.83044 -16381465.32542  20631404.108    20631400.475
  21642681.067   -16087611.23643 -12497755.53642  21642681.926    21642680.056
  25057990.554    35389346.16843  27572039.52542  25057991.915    25057992.356
  24551601.358    34193602.77643  26636503.46242  24551603.043    24551601.456
  21361870.364    17677271.23443  13817758.77342  21361871.292    21361869.017
  22894859.864   -12965598.20943 -10072814.27342  22894861.377    22894859.585
  20563081.102   -14298363.57044 -11127322.63342  20563081.754    20563079.127
  20360000.136     8074334.07044   6296734.05142  20360001.121    20359998.094
 03 12 24  0 23  0.0000000  0  8G30G10G 9G 4G24G 6G17G 5
  20622216.599   -21081523.93644 -16419078.37542  20622218.592    20622214.957
  21631048.836   -16148738.64243 -12545387.21342  21631049.703    21631047.821
  25076428.924    35486240.35743  27647541.46442  25076430.243    25076430.638
  24571123.625    34296192.98643  26716443.91342  24571125.298    24571123.587
  21373972.910    17740870.47943  13867316.61442  21373973.830    21373971.565
  22882323.702   -13031476.03243 -10124147.58942  22882325.235    22882323.405
  20561333.915   -14307545.01844 -11134476.99742  20561334.556    20561331.932
  20365491.607     8103192.08644   6319220.82542  20365492.598    20365489.579
 03 12 24  0 23 30.0000000  0  7G30G10G 4G24G 6G17G 5
  20613122.698   -21129312.72844 -16456316.37242  20613124.653    20613121.028
  21619510.676   -16209371.78743 -12592633.75542  21619511.554    21619509.638
  24590646.487    34398786.70743  26796387.09842  24590648.313    24590646.488
  21386128.718    17804749.67543  13917092.59942  21386129.634    21386127.376
  22869799.649   -13097290.12643 -10175431.23342  22869801.172    22869799.368
  20559668.089   -14316298.96044 -11141298.24142  20559668.720    20559666.096
  20371084.224     8132581.44044   6342121.62942  20371085.201    20371082.185
 03 12 24  0 24  0.0000000  0  7G30G10G 4G24G 6G17G 5
  20604120.068   -21176621.93844 -16493180.67642  20604122.016    20604118.368
  21608066.382   -16269511.93043 -12639496.14142  21608067.227    21608065.275
  24610169.030    34501378.45743  26876328.74842  24610170.757    24610168.971
  21398336.699    17868902.97343  13967082.17042  21398337.622    21398335.350
  22857287.081   -13163043.86443 -10226667.84542  22857288.591    22857286.777
  20558082.814   -14324629.60444 -11147789.64342  20558083.446    20558080.794
  20376777.114     8162497.88244   6365433.15342  20376778.100    20376775.094
 03 12 24  0 24 30.0000000  0  7G30G10G 4G24G 6G17G 5
  20595207.620   -21223456.96744 -16529675.48942  20595209.597    20595205.937
  21596714.876   -16329164.19243 -12685978.36342  21596715.738    21596713.769
  24629689.436    34603959.01943  26956261.67142  24629691.238    24629689.447
  21410594.946    17933320.46943  14017277.60442  21410595.853    21410593.602
  22844784.630   -13228744.28843 -10277862.90942  22844786.165    22844784.366
  20556576.535   -14332545.13444 -11153957.58142  20556577.165    20556574.505
  20382568.853     8192933.64044   6389149.33442  20382569.823    20382566.805
 03 12 24  0 25  0.0000000  0  7G30G10G 4G24G 6G17G 5
  20586386.229   -21269813.57044 -16565797.50242  20586388.198    20586384.537
  21585457.162   -16388323.47843 -12732076.44542  21585458.057    21585456.053
  24649207.927    34706529.17443  27036186.50342  24649209.717    24649207.953
  21422903.532    17998002.43543  14067679.12542  21422904.439    21422902.188
  22832292.827   -13294388.74443 -10329014.36442  22832294.381    22832292.553
  20555149.512   -14340044.12444 -11159800.94342  20555150.133    20555147.478
  20388459.816     8223891.00544   6413271.96342  20388460.791    20388457.775
 03 12 24  0 25 30.0000000  0  7G30G10G 4G24G 6G17G 5
  20577657.567   -21315682.99244 -16601539.89642  20577659.539    20577655.852
  21574295.102   -16446980.41843 -12777783.09742  21574295.952    21574293.959
  24668725.269    34809093.48643  27116106.78742  24668726.986    24668725.306
  21435263.277    18062953.32543  14118290.19442  21435264.198    21435261.937
  22819812.970   -13359970.47543 -10380116.93942  22819814.552    22819812.683
  20553802.943   -14347120.33944 -11165314.86942  20553803.568    20553800.928
  20394451.217     8255376.04644   6437805.76842  20394452.206    20394449.180
 03 12 24  0 26  0.0000000  0  7G30G10G 4G24G 6G17G 5
  20569021.825   -21361064.22444 -16636901.88042  20569023.760    20569020.070
  21563228.943   -16505133.30343 -12823096.97542  21563229.801    21563227.778
  24688241.033    34911649.61943  27196020.69942  24688242.757    24688241.014
  21447673.646    18128170.13143  14169108.47242  21447674.569    21447672.282
  22807344.970   -13425489.88643 -10431170.95142  22807346.572    22807344.702
  20552536.506   -14353775.42044 -11170500.63842  20552537.136    20552534.504
  20400542.719     8287387.07744   6462749.43542  20400543.706    20400540.648
 03 12 24  0 26 30.0000000  0  7G30G10G 4G24G 6G17G 5
  20560477.524   -21405964.88644 -16671889.39642  20560479.457    20560475.752
  21552257.317   -16562789.31343 -12868023.68242  21552258.172    21552256.131
  24707753.089    35014186.27043  27275919.40542  24707754.924    24707753.045
  21460132.387    18193641.10443  14220124.80742  21460133.284    21460131.008
  22794887.098   -13490956.24743 -10482183.63242  22794888.692    22794886.757
  20551348.250   -14360019.67444 -11175366.28342  20551348.861    20551346.258
  20406732.384     8319914.03344   6488095.11942  20406733.373    20406730.329
 03 12 24  0 27  0.0000000  0  7G30G10G 4G24G 6G17G 5
  20552027.237   -21450371.24944 -16706491.73742  20552029.173    20552025.466
  21541382.997   -16619934.03543 -12912551.97942  21541383.848    21541381.798
  24727263.291    35116713.31043  27355810.65542  24727265.061    24727263.257
  21472641.162    18259375.27343  14271346.23442  21472642.082    21472639.816
  22782441.606   -13556357.61243 -10533145.66342  22782443.181    22782441.249
  20550240.270   -14365842.10544 -11179903.23142  20550240.887    20550238.269
  20413022.351     8352968.06344   6513851.51042  20413023.331    20413020.295
 03 12 24  0 27 30.0000000  0  7G30G10G 4G24G 6G17G 5
  20543670.579   -21494285.61244 -16740710.70542  20543672.521    20543668.826
  21530605.622   -16676569.28943 -12956683.29342  21530606.473    21530604.400
  24746770.547    35219225.06643  27435689.98442  24746772.425    24746770.511
  21485198.943    18325366.73043  14322768.14242  21485199.853    21485197.562
  22770007.795   -13621697.60843 -10584059.89242  22770009.350    22770007.401
  20549211.600   -14371247.87944 -11184115.51542  20549212.179    20549209.584
  20419411.795     8386544.83144   6540015.22742  20419412.773    20419409.748
 03 12 24  0 28  0.0000000  0  7G30G10G 4G24G 6G17G 5
  20535407.402   -21537708.82544 -16774546.95642  20535409.335    20535405.624
  21519925.161   -16732695.25243 -13000417.75242  21519926.008    21519923.936
  24766274.162    35321717.03043  27515553.89742  24766275.894    24766274.095
  21497804.737    18391610.56843  14374386.71442  21497805.652    21497803.367
  22757585.183   -13686978.65343 -10634928.17542  22757586.757    22757584.714
  20548261.600   -14376240.10744 -11188005.55142  20548262.173    20548259.591
  20425900.104     8420641.03244   6566583.70142  20425901.073    20425898.043
 03 12 24  0 28 30.0000000  0  7G30G10G 4G24G 6G17G 5
  20527238.686   -21580635.78044 -16807996.51142  20527240.598    20527236.895
  21509342.703   -16788306.07643 -13043750.80642  21509343.555    21509341.507
  24785774.215    35424190.68043  27595403.52142  24785776.110    24785774.249
  21510458.671    18458107.44143  14426202.46242  21510459.596    21510457.303
  22745174.495   -13752197.25043 -10685747.80542  22745176.077    22745173.943
  20547390.736   -14380816.45944 -11191571.52942  20547391.306    20547388.726
  20432487.738     8455259.37344   6593559.03342  20432488.703    20432485.705
 03 12 24  0 29  0.0000000  0  7G30G10G 4G24G 6G17G 5
  20519164.361   -21623066.63344 -16841059.49442  20519166.263    20519162.553
  21498858.368   -16843401.34143 -13086682.12542  21498859.227    21498857.164
  24805270.076    35526642.44843  27675236.09542  24805271.915    24805270.014
  21523159.933    18524853.12243  14478212.08942  21523160.870    21523158.594
  22732775.294   -13817355.20743 -10736520.19042  22732776.916    22732774.752
  20546598.424   -14384979.91744 -11194815.76742  20546599.017    20546596.437
  20439174.105     8490396.51644   6620938.62742  20439175.083    20439172.074
 03 12 24  0 29 30.0000000  0  6G30G10G24G 6G17G 5
  20511189.013   -21664977.34944 -16873717.17442  20511190.927    20511187.199
  21488476.793   -16897956.65843 -13129192.71542  21488477.651    21488475.580
  21535912.400    18591867.74643  14530431.28442  21535913.345    21535911.043
  22720391.955   -13882429.85843 -10787227.65942  22720393.581    22720391.392
  20545888.797   -14388708.95944 -11197721.49842  20545889.413    20545886.808
  20445963.406     8526074.50744   6648739.66142  20445964.377    20445961.350
 03 12 24  0 30  0.0000000  0  6G30G10G24G 6G17G 5
  20503305.176   -21706407.14244 -16906000.10942  20503307.083    20503303.345
  21478190.637   -16952010.69843 -13171312.69842  21478191.475    21478189.384
  21548707.813    18659108.18843  14582826.44142  21548708.762    21548706.474
  22708016.684   -13947462.01543 -10837902.03042  22708018.326    22708016.113
  20545253.831   -14392045.69444 -11200321.53642  20545254.437    20545251.829
  20452847.681     8562251.64744   6676929.63942  20452848.662    20452845.630
 03 12 24  0 30 30.0000000  0  6G30G10G24G 6G17G 5
  20495517.105   -21747333.57444 -16937890.81542  20495519.053    20495515.272
  21468004.279   -17005540.34243 -13213024.06442  21468005.090    21468002.991
  21561549.659    18726592.59043  14635411.69642  21561550.614    21561548.327
  22695653.542   -14012430.77443 -10888526.99642  22695655.171    22695652.897
  20544697.306   -14394970.10544 -11202600.28142  20544697.922    20544695.302
  20459830.664     8598947.43044   6705523.75842  20459831.622    20459828.603
 03 12 24  0 31  0.0000000  0  6G30G10G24G 6G17G 5
  20487825.034   -21787755.64944 -16969388.51442  20487826.962    20487823.193
  21457917.938   -17058544.20843 -13254325.73742  21457918.754    21457916.641
  21574437.366    18794317.96243  14688184.72442  21574438.327    21574436.023
  22683302.392   -14077336.45343 -10939102.82242  22683303.992    22683301.725
  20544218.904   -14397484.07944 -11204559.20042  20544219.501    20544216.889
  20466912.041     8636160.31444   6734520.81042  20466912.995    20466909.967
 03 12 24  0 31 30.0000000  0  6G30G10G24G 6G17G 5
  20480229.779   -21827669.01444 -17000489.81942  20480231.696    20480227.907
  21447932.620   -17111017.36443 -13295213.87642  21447933.419    21447931.252
  21587371.049    18862284.89943  14741145.97742  21587371.998    21587369.676
  22670963.778   -14142176.04543 -10989627.14542  22670965.383    22670963.096
  20543818.984   -14399585.59644 -11206196.72642  20543819.581    20543816.949
  20474092.263     8673892.67644   6763922.64842  20474093.232    20474090.212
 03 12 24  0 32  0.0000000  0  6G30G10G24G 6G17G 5
  20472731.020   -21867075.20944 -17031195.92642  20472732.926    20472729.144
  21438048.087   -17162960.90643 -13335689.33042  21438048.874    21438046.688
  21600349.495    18930487.18643  14794290.62242  21600350.457    21600348.142
  22658637.157   -14206952.68443 -11040102.41742  22658638.732    22658636.462
  20543496.677   -14401279.20644 -11207516.39842  20543497.269    20543494.634
  20481370.511     8712140.16744   6793725.88742  20481371.481    20481368.459
 03 12 24  0 32 30.0000000  0  6G30G10G24G 6G17G 5
  20465329.692   -21905969.34544 -17061503.02342  20465331.597    20465327.829
  21428265.366   -17214369.27243 -13375747.76842  21428266.167    21428263.973
  21613373.004    18998926.14043  14847619.68142  21613373.952    21613371.652
  22646323.240   -14271662.75643 -11090525.81042  22646324.794    22646322.502
  20543252.449   -14402562.43144 -11208516.29242  20543253.068    20543250.415
  20488747.343     8750905.70344   6823932.79542  20488748.298    20488745.314
 03 12 24  0 33  0.0000000  0  7G30G10G24G21G 6G17G 5
  20458021.111   -21944376.13344 -17091430.36542  20458023.034    20458019.229
  21418579.901   -17265266.69143 -13415408.06042  21418580.686    21418578.496
  21626436.148    19067573.37943  14901111.04542  21626437.086    21626434.763
  24885738.592    -5513906.66253  -4290994.02752  24885740.421    24885739.777
  22634017.053   -14336332.11843 -11140917.48042  22634018.580    22634016.296
  20543081.111   -14403462.68544 -11209217.76442  20543081.736    20543079.064
  20496217.493     8790161.57744   6854521.78742  20496218.441    20496215.466
 03 12 24  0 33 30.0000000  0  7G30G10G24G21G 6G17G 5
  20450814.088   -21982249.22544 -17120941.84042  20450816.005    20450812.220
  21409000.636   -17315606.03743 -13454633.49742  21409001.413    21408999.200
  21639546.989    19136471.34043  14954797.77242  21639547.924    21639545.608
  24867677.872    -5608816.31943  -4364949.49542  24867679.661    24867678.860
  22621727.189   -14400915.70443 -11191242.30942  22621728.686    22621726.419
  20542990.995   -14403936.13744 -11209586.66942  20542991.628    20542988.961
  20503789.263     8829951.49444   6885526.91842  20503790.212    20503787.249
 03 12 24  0 34  0.0000000  0  7G30G10G24G21G 6G17G 5
  20443706.266   -22019600.89244 -17150047.01042  20443708.201    20443704.405
  21399525.244   -17365399.32443 -13493433.43442  21399526.014    21399523.815
  21652702.403    19205603.69343  15008667.13942  21652703.369    21652701.016
  24849642.332    -5703593.23443  -4438801.54342  24849644.152    24849643.417
  22609450.975   -14465427.33343 -11241511.07342  22609452.485    22609450.230
  20542979.268   -14403997.84044 -11209634.73042  20542979.879    20542977.201
  20511459.884     8870260.81544   6916936.77542  20511460.827    20511457.842
 03 12 24  0 34 30.0000000  0  7G30G10G24G21G 6G17G 5
  20436696.370   -22056437.95744 -17178751.19042  20436698.322    20436694.526
  21390152.548   -17414652.83643 -13531812.76042  21390153.349    21390151.138
  21665900.344    19274959.24143  15062710.42942  21665901.295    21665898.934
  24831630.631    -5798244.89343  -4512555.97142  24831632.380    24831631.668
  22597186.871   -14529875.16043 -11291730.10342  22597188.435    22597186.183
  20543044.071   -14403657.32144 -11209369.37042  20543044.665    20543041.994
  20519227.496     8911080.02544   6948743.95142  20519228.471    20519225.495
 03 12 24  0 35  0.0000000  0  7G30G10G24G21G 6G17G 5
  20429784.917   -22092757.81244 -17207052.34842  20429786.854    20429783.055
  21380883.190   -17463363.36443 -13569768.98442  21380883.999    21380881.807
  21679140.564    19344537.19743  15116927.02242  21679141.537    21679139.164
  24813643.076    -5892769.30843  -4586211.29042  24813644.787    24813644.124
  22584935.218   -14594257.85043 -11341898.37842  22584936.756    22584934.516
  20543185.400   -14402914.55444 -11208790.57442  20543186.006    20543183.334
  20527092.166     8952409.11844   6980948.43442  20527093.132    20527090.153
 03 12 24  0 35 30.0000000  0  7G30G10G24G21G 6G17G 5
  20422972.583   -22128556.68944 -17234947.55042  20422974.541    20422970.717
  21371717.951   -17511526.81543 -13607298.90842  21371718.774    21371716.571
  21692423.123    19414337.41343  15171316.80642  21692424.091    21692421.688
  24795680.416    -5987163.16643  -4659764.80242  24795682.168    24795681.426
  22572696.444   -14658572.80043 -11392013.86542  22572697.979    22572695.733
  20543403.524   -14401768.20744 -11207897.30142  20543404.148    20543401.446
  20535054.179     8994249.65844   7013551.44842  20535055.130    20535052.161
 03 12 24  0 36  0.0000000  0  7G30G10G24G21G 6G17G 5
  20416260.096   -22163830.91744 -17262433.93442  20416262.068    20416258.229
  21362657.694   -17559138.88443 -13644399.18542  21362658.456    21362656.256
  21705747.989    19484360.03343  15225879.89242  21705748.947    21705746.543
  24777743.140    -6081423.20743  -4733214.02942  24777744.815    24777744.268
  22560471.028   -14722817.61443 -11442074.70342  22560472.520    22560470.325
  20543698.643   -14400217.36944 -11206688.84542  20543699.249    20543696.550
  20543113.619     9036602.31044   7046553.51542  20543114.597    20543111.623
 03 12 24  0 36 30.0000000  0  7G30G10G24G21G 6G17G 5
  20409646.550   -22198585.13744 -17289515.12042  20409648.527    20409644.691
  21353701.530   -17606203.77443 -13681073.09342  21353702.298    21353700.089
  21719113.491    19554596.28643  15280609.44642  21719114.444    21719112.056
  24759830.413    -6175555.10043  -4806563.34442  24759832.070    24759831.570
  22548257.749   -14786998.31943 -11492085.58342  22548259.275    22548257.099
  20544069.333   -14398269.31544 -11205170.87042  20544069.947    20544067.226
  20551269.147     9079459.90544   7079949.04042  20551270.133    20551267.158
 03 12 24  0 37  0.0000000  0  7G30G10G24G21G 6G17G 5
  20403133.811   -22232809.70244 -17316183.58942  20403135.784    20403131.951
  21344851.345   -17652711.53343 -13717312.86742  21344852.116    21344849.912
  21732520.764    19625051.89343  15335509.92842  21732521.684    21732519.304
  24741943.641    -6269549.76843  -4879805.66242  24741945.293    24741944.807
  22536058.345   -14851106.18743 -11542039.70642  22536059.893    22536057.740
  20544516.982   -14395916.82844 -11203337.75142  20544517.611    20544514.878
  20559522.211     9122829.93944   7113743.86942  20559523.184    20559520.195
 03 12 24  0 37 30.0000000  0  7G30G10G24G21G 6G17G 5
  20396720.991   -22266509.10344 -17342442.83542  20396722.954    20396719.154
  21336106.468   -17698666.07943 -13753121.57342  21336107.231    21336105.010
  21745968.237    19695718.83543  15390575.08442  21745969.164    21745966.765
  24724082.085    -6363411.76343  -4952944.61642  24724083.875    24724083.232
  22523871.748   -14915146.92143 -11591941.52242  22523873.307    22523871.151
  20545040.212   -14393167.22844 -11201195.19442  20545040.828    20545038.100
  20567871.351     9166704.80744   7147932.07642  20567872.301    20567869.303
 03 12 24  0 38  0.0000000  0  7G30G10G24G21G 6G17G 5
  20390409.343   -22299676.91244 -17368287.85742  20390411.306    20390407.499
  21327468.153   -17744060.65843 -13788493.94442  21327468.910    21327466.665
  21759456.391    19766599.61943  15445806.87142  21759457.294    21759454.952
  24706246.864    -6457135.54443  -5025975.85142  24706248.691    24706247.988
  22511698.924   -14979115.29943 -11641786.97042  22511700.463    22511698.324
  20545639.768   -14390016.51044 -11198740.08142  20545640.387    20545637.672
  20576317.385     9211088.95144   7182517.11942  20576318.342    20576315.329
 03 12 24  0 38 30.0000000  0  7G30G10G24G21G 6G17G 5
  20384197.996   -22332317.69544 -17393722.20942  20384199.951    20384196.135
  21318935.707   -17788898.94543 -13823432.84042  21318936.437    21318934.186
  21772983.708    19837686.28743  15501199.08442  21772984.620    21772982.282
  24688436.989    -6550725.86443  -5098903.08442  24688438.879    24688438.030
  22499538.853   -15043016.85343 -11691580.35042  22499540.369    22499538.204
  20546314.334   -14386471.58944 -11195977.79242  20546314.935    20546312.263
  20584858.914     9255974.99244   7217493.25342  20584859.878    20584856.838
 03 12 24  0 39  0.0000000  0  7G30G10G24G21G 6G17G 5
  20378088.132   -22364425.05244 -17418740.90842  20378090.107    20378086.286
  21310510.415   -17833174.20743 -13857933.02542  21310511.139    21310508.862
  21786550.660    19908980.94543  15556753.37142  21786551.528    21786549.222
  24670653.559    -6644177.34543  -5171722.15242  24670655.442    24670654.481
  22487392.489   -15106846.46743 -11741317.67342  22487393.980    22487391.766
  20547064.528   -14382529.22644 -11192905.81742  20547065.143    20547062.479
  20593496.692     9301366.71644   7252863.42142  20593497.632    20593494.611
 03 12 24  0 39 30.0000000  0  7G30G10G24G21G 6G17G 5
  20372079.809   -22395998.99144 -17443343.95442  20372081.779    20372077.928
  21302192.293   -17876885.99343 -13891994.13342  21302193.033    21302190.753
  21800156.539    19980480.41343  15612467.24942  21800157.394    21800155.135
  24652896.457    -6737490.57343  -5244433.51042  24652898.322    24652897.399
  22475259.605   -15170605.07943 -11790999.67742  22475261.111    22475258.862
  20547889.934   -14378191.64844 -11189525.87542  20547890.525    20547887.888
  20602230.214     9347261.62744   7288625.68642  20602231.139    20602228.109
 03 12 24  0 40  0.0000000  0  7G30G10G24G21G 6G17G 5
  20366173.577   -22427036.43544 -17467528.95242  20366175.529    20366171.673
  21293982.072   -17920030.98443 -13925613.58742  21293982.821    21293980.513
  21813801.281    20052184.07343  15668340.23542  21813802.136    21813799.870
  24635166.189    -6830662.59143  -5317034.82542  24635168.029    24635167.028
  22463140.594   -15234290.65343 -11840624.76842  22463142.105    22463139.862
  20548790.625   -14373458.39344 -11185837.61542  20548791.224    20548788.590
  20611059.536     9393660.06744   7324780.31142  20611060.480    20611057.448
 03 12 24  0 40 30.0000000  0  7G30G10G24G21G 6G17G 5
  20360369.045   -22457539.40744 -17491297.48342  20360371.011    20360367.134
  21285879.421   -17962610.68943 -13958792.55642  21285880.144    21285877.851
  21827483.811    20124086.29743  15724367.94542  21827484.647    21827482.411
  24617462.330    -6923696.07943  -5389528.25142  24617464.021    24617463.100
  22451034.911   -15297906.24743 -11890195.33242  22451036.448    22451034.135
  20549765.771   -14368333.98344 -11181844.56442  20549766.366    20549763.711
  20619983.880     9440557.83944   7361324.02442  20619984.827    20619981.793
 03 12 24  0 41  0.0000000  0  7G30G10G24G21G 6G17G 5
  20354666.971   -22487503.95844 -17514646.46342  20354668.916    20354665.045
  21277885.156   -18004620.76843 -13991527.65742  21277885.893    21277883.564
  21841204.176    20196187.23443  15780550.49442  21841205.000    21841202.758
  24599785.554    -7016587.63143  -5461911.10842  24599787.244    24599786.069
  22438943.174   -15361448.87643 -11939709.04442  22438944.682    22438942.321
  20550815.573   -14362817.13644 -11177545.71242  20550816.176    20550813.522
  20629003.415     9487955.81244   7398257.50942  20629004.352    20629001.338
 03 12 24  0 41 30.0000000  0  7G30G10G24G21G 6G17G 5
  20349068.341   -22516925.02944 -17537571.95642  20349070.277    20349066.390
  21270000.312   -18046055.75243 -14023814.63342  21270001.050    21269998.727
  21854962.642    20268488.51243  15836889.15342  21854963.480    21854961.224
  24582136.671    -7109332.75243  -5534179.90742  24582138.319    24582137.022
  22426866.108   -15424914.30543 -11989162.59642  22426867.625    22426865.233
  20551940.612   -14356905.01044 -11172938.85542  20551941.196    20551938.546
  20638118.637     9535856.70444   7435582.87742  20638119.586    20638116.561
 03 12 24  0 42  0.0000000  0  7G30G10G24G21G 6G17G 5
  20343572.356   -22545806.60144 -17560077.05542  20343574.288    20343570.402
  21262224.227   -18086919.05043 -14055656.13242  21262224.996    21262222.684
  21868757.767    20340982.46643  15893377.94842  21868758.612    21868756.356
  24564515.002    -7201935.34743  -5606337.69442  24564516.519    24564515.149
  22414802.725   -15488307.72543 -12038560.03742  22414804.263    22414801.841
  20553139.574   -14350604.34344 -11168029.23842  20553140.163    20553137.514
  20647328.282     9584253.73444   7473294.84442  20647329.226    20647326.218
 03 12 24  0 42 30.0000000  0  7G30G10G24G21G 6G17G 5
  20338179.027   -22574148.66244 -17582161.75742  20338180.953    20338177.042
  21254557.057   -18127210.21743 -14087051.81542  21254557.830    21254555.495
  21882588.924    20413665.69343  15950014.22742  21882589.751    21882587.501
  24546920.182    -7294396.28643  -5678385.14142  24546921.608    24546920.204
  22402752.909   -15551629.87943 -12087901.95142  22402754.468    22402752.018
  20554411.997   -14343917.62044 -11162818.79642  20554412.609    20554409.938
  20656631.889     9633144.57044   7511391.60242  20656632.853    20656629.836
 03 12 24  0 43  0.0000000  0  7G30G10G24G21G 6G17G 5
  20332889.394   -22601945.66244 -17603821.73542  20332891.344    20332887.409
  21246999.877   -18166923.25643 -14117997.00142  21247000.670    21246998.346
  21896456.385    20486539.80443  16006799.24442  21896457.229    21896454.990
  24529353.338    -7386710.47843  -5750318.25842  24529354.822    24529353.396
  22390717.495   -15614876.22743 -12137184.78342  22390719.064    22390716.612
  20555758.465   -14336841.97444 -11157305.29542  20555759.041    20555756.392
  20666030.011     9682532.01344   7549875.32342  20666030.966    20666027.973
 03 12 24  0 43 30.0000000  0  7G30G10G24G21G 6G17G 5
  20327704.071   -22629194.68044 -17625054.71342  20327706.009    20327702.062
  21239553.343   -18206054.91043 -14148489.15942  21239554.117    21239551.815
  21910360.155    20559604.72043  16063732.94342  21910361.033    21910358.779
  24511814.923    -7478875.25043  -5822134.96242  24511816.196    24511814.974
  22378696.926   -15678044.62243 -12186406.88042  22378698.498    22378696.050
  20557179.062   -14329376.58944 -11151488.10142  20557179.662    20557176.995
  20675522.698     9732416.52344   7588746.36942  20675523.674    20675520.678
 03 12 24  0 44  0.0000000  0  7G30G10G24G21G 6G17G 5
  20322622.402   -22655898.95744 -17645863.22142  20322624.343    20322620.388
  21232216.851   -18244608.21343 -14178530.64942  21232217.638    21232215.331
  21924298.976    20632853.55643  16120809.95542  21924299.819    21924297.539
  24494304.269    -7570894.42743  -5893838.25942  24494305.392    24494304.125
  22366690.422   -15741139.14943 -12235571.41142  22366691.997    22366689.544
  20558672.723   -14321527.38744 -11145371.82542  20558673.333    20558670.632
  20685108.965     9782792.52644   7628000.40042  20685109.911    20685106.916
 03 12 24  0 44 30.0000000  0  7G30G10G24G21G 6G17G 5
  20317644.958   -22682055.51744 -17666244.93642  20317646.895    20317642.934
  21224991.133   -18282579.47843 -14208118.60142  21224991.913    21224989.632
  21938272.716    20706286.02043  16178030.05242  21938273.557    21938271.261
  24476821.937    -7662765.12643  -5965425.83042  24476822.841    24476821.533
  22354698.414   -15804157.52843 -12284676.60242  22354699.971    22354697.495
  20560239.481   -14313294.00444 -11138956.18942  20560240.083    20560237.383
  20694788.772     9833660.38244   7667637.69042  20694789.731    20694786.736
 03 12 24  0 45  0.0000000  0  7G30G10G24G21G 6G17G 5
  20312772.564   -22707659.87844 -17686196.36842  20312774.517    20312770.559
  21217877.039   -18319963.99643 -14237249.34142  21217877.843    21217875.544
  21952281.599    20779903.13843  16235394.03942  21952282.440    21952280.128
  24459368.664    -7754483.24543  -6036894.52042  24459369.518    24459368.117
  22342721.581   -15867095.99243 -12333719.51742  22342723.162    22342720.678
  20561879.790   -14304674.07644 -11132239.34442  20561880.380    20561877.706
  20704562.524     9885021.83644   7707659.60542  20704563.495    20704560.496
 03 12 24  0 45 30.0000000  0  7G30G10G24G21G 6G17G 5
  20308004.864   -22732714.23744 -17705719.22642  20308006.813    20308002.867
  21210874.286   -18356763.59243 -14265924.30242  21210875.096    21210872.773
  21966324.557    20853699.36543  16292897.59042  21966325.421    21966323.075
  24441943.792    -7846051.33343  -6108246.24142  24441944.653    24441943.269
  22330759.431   -15929957.50543 -12382702.46542  22330760.993    22330758.462
  20563592.709   -14295672.46744 -11125225.08842  20563593.314    20563590.632
  20714429.271     9936871.92044   7748062.26942  20714430.216    20714427.254
 03 12 24  0 46  0.0000000  0  7G30G10G24G21G 6G17G 5
  20303342.460   -22757215.30144 -17724810.94642  20303344.407    20303340.445
  21203983.529   -18392974.61943 -14294140.62742  21203984.335    21203981.990
  21980401.593    20927674.48943  16350540.54442  21980402.418    21980400.088
  24424548.072    -7937466.54143  -6179478.78642  24424548.959    24424547.620
  22318812.347   -15992739.75843 -12431623.65142  22318813.911    22318811.346
  20565378.413   -14286288.44444 -11117912.84542  20565379.033    20565376.336
  20724389.126     9989211.26044   7788846.17242  20724390.068    20724387.099
 03 12 24  0 46 30.0000000  0  7G30G10G24G21G 6G17G 5
  20298784.735   -22781166.34444 -17743474.08342  20298786.679    20298782.693
  21197204.203   -18428600.01543 -14321900.61442  21197205.008    21197202.644
  21994511.364    21001821.91643  16408317.75942  21994512.237    21994509.877
  24407180.769    -8028731.95843  -6250594.61442  24407181.714    24407180.531
  22306879.595   -16055446.60443 -12480486.08142  22306881.167    22306878.570
  20567235.846   -14276527.51144 -11110306.90942  20567236.467    20567233.772
  20734441.042    10042034.36244   7830007.02942  20734442.000    20734439.001
 03 12 24  0 47  0.0000000  0  7G30G10G24G21G 6G17G 5
  20294333.624   -22804557.10444 -17761700.63642  20294335.564    20294331.576
  21190538.358   -18463629.08243 -14349195.93142  21190539.168    21190536.789
  22008655.187    21076148.30343  16466234.42642  22008656.066    22008653.717
  24389843.608    -8119838.58243  -6321586.63442  24389844.619    24389843.399
  22294963.058   -16118068.42143 -12529282.25542  22294964.613    22294961.972
  20569166.492   -14266381.89344 -11102401.21842  20569167.103    20569164.398
  20744586.416    10095348.80244   7871550.75042  20744587.397    20744584.390
 03 12 24  0 47 30.0000000  0  7G30G10G24G21G 6G17G 5
  20289987.500   -22827396.01944 -17779497.18042  20289989.456    20289985.475
  21183984.429   -18498070.06843 -14376033.00142  21183985.233    21183982.834
  22022830.903    21150642.13243  16524281.56842  22022831.788    22022829.433
  24372535.323    -8210794.27343  -6392461.04542  24372536.178    24372534.972
  22283060.962   -16180614.32443 -12578019.27242  22283062.510    22283059.848
  20571168.267   -14255862.38244 -11094204.18242  20571168.889    20571166.193
  20754823.206    10149143.41444   7913468.63142  20754824.175    20754821.169
 03 12 24  0 48  0.0000000  0  7G30G10G24G21G 6G17G 5
  20285747.810   -22849675.76444 -17796858.01042  20285749.749    20285745.771
  21177543.931   -18531915.02443 -14402405.63642  21177544.709    21177542.291
  22037039.334    21225307.91643  16582462.70242  22037040.204    22037037.857
  24355256.849    -8301592.46143  -6463212.67942  24355257.824    24355256.585
  22271174.533   -16243077.59243 -12626691.89442  22271176.090    22271173.421
  20573242.126   -14244964.16944 -11085712.05542  20573242.739    20573240.025
  20765152.288    10203423.16044   7955764.53942  20765153.250    20765150.265
 03 12 24  0 48 30.0000000  0  7G30G10G24G21G 6G17G 5
  20281614.667   -22871395.48244 -17813782.45642  20281616.610    20281612.630
  21171217.024   -18565162.91943 -14428313.03642  21171217.809    21171215.365
  22051279.913    21300142.91043  16640775.68642  22051280.841    22051278.484
  24338008.610    -8392232.07943  -6533840.76942  24338009.606    24338008.288
  22259303.893   -16305457.97743 -12675299.93942  22259305.476    22259302.809
  20575387.769   -14233688.60444 -11076925.88742  20575388.389    20575385.684
  20775573.346    10258186.18844   7998437.02942  20775574.318    20775571.308
 03 12 24  0 49  0.0000000  0  7G30G10G24G21G 6G17G 5
  20277588.147   -22892555.02244 -17830270.39942  20277590.058    20277586.091
  21165003.811   -18597813.25743 -14453754.80842  21165004.620    21165002.145
  22065552.136    21375143.90143  16699218.01942  22065553.054    22065550.691
  24320790.317    -8482714.06643  -6604346.04242  24320791.363    24320789.886
  22247448.956   -16367756.00943 -12723843.80342  22247450.489    22247447.865
  20577604.767   -14222038.14244 -11067847.59142  20577605.377    20577602.671
  20786085.991    10313430.51344   8041484.55442  20786086.960    20786083.952
 03 12 24  0 49 30.0000000  0  7G30G10G24G21G 6G17G 5
  20273667.389   -22913158.57344 -17846325.10742  20273669.315    20273665.364
  21158903.663   -18629869.63043 -14478733.75542  21158904.452    21158901.955
  22079854.642    21450304.08643  16757784.40042  22079855.568    22079853.210
  24303601.257    -8573042.29243  -6674731.47142  24303602.453    24303600.834
  22235608.805   -16429976.21443 -12772327.02642  22235610.365    22235607.705
  20579891.879   -14210019.17544 -11058482.14742  20579892.502    20579889.791
  20796688.843    10369148.98644   8084901.54742  20796689.823    20796686.833
 03 12 24  0 50  0.0000000  0  7G30G10G24G21G 6G17G 5
  20269854.507   -22933195.28544 -17861938.11742  20269856.439    20269852.472
  21152918.590   -18661321.25943 -14503241.47642  21152919.368    21152916.851
  22094188.856    21525630.82543  16816480.56342  22094189.794    22094187.409
  24286443.494    -8663206.25743  -6744988.87042  24286444.826    24286443.024
  22223785.409   -16492108.28743 -12820741.58342  22223786.988    22223784.316
  20582250.724   -14197623.26544 -11048822.98342  20582251.343    20582248.642
  20807383.573    10425350.14844   8128694.66242  20807384.557    20807381.540
 03 12 24  0 50 30.0000000  0  7G30G10G24G21G 6G17G 5
  20266148.922   -22952668.28344 -17877111.87042  20266150.838    20266146.894
  21147048.092   -18692170.74043 -14527279.99442  21147048.862    21147046.338
  22108553.513    21601117.67243  16875301.48042  22108554.485    22108552.079
  24269316.235    -8753209.27143  -6815120.85242  24269317.592    24269315.909
  22211978.083   -16554155.84043 -12869090.27542  22211979.660    22211977.025
  20584680.311   -14184855.76144 -11038874.26342  20584680.906    20584678.201
  20818169.016    10482028.01144   8172859.23242  20818170.001    20818166.973
 03 12 24  0 51  0.0000000  0  7G30G10G24G21G 6G17G 5
  20262550.617   -22971577.37744 -17891846.21742  20262552.539    20262548.596
  21141292.261   -18722417.55943 -14550848.91042  21141293.064    21141290.508
  22122948.108    21676761.72343  16934244.90142  22122949.068    22122946.652
  24252219.564    -8843051.65743  -6885127.66542  24252220.969    24252219.304
  22200186.827   -16616119.12743 -12917373.30642  22200188.397    22200185.756
  20587180.188   -14171718.80344 -11028637.65642  20587180.772    20587178.057
  20829044.789    10539180.62044   8217393.73342  20829045.782    20829042.744
 03 12 24  0 51 30.0000000  0  7G30G10G24G21G 6G17G 5
  20259059.199   -22989924.97844 -17906143.03942  20259061.116    20259057.154
  21135650.756   -18752063.67343 -14573949.74542  21135651.551    21135648.992
  22137371.592    21752557.83343  16993306.80842  22137372.578    22137370.164
  24235153.026    -8932735.61043  -6955011.03542  24235154.514    24235152.848
  22188411.063   -16678000.97243 -12965592.87042  22188412.627    22188409.990
  20589749.441   -14158217.12744 -11018116.85342  20589750.046    20589747.305
  20840009.939    10596802.86644   8262294.18542  20840010.937    20840007.884
 03 12 24  0 52  0.0000000  0  7G30G10G24G21G 6G17G 5
  20255677.086   -23007698.22244 -17919992.30942  20255678.978    20255675.009
  21130126.080   -18781095.93243 -14596572.25442  21130126.866    21130124.297
  22151825.869    21828515.61143  17052494.68542  22151826.873    22151824.452
  24218119.003    -9022248.75643  -7024761.31142  24218120.536    24218118.791
  22176653.153   -16739788.90543 -13013739.26442  22176654.735    22176652.085
  20592390.122   -14144340.20844 -11007303.65342  20592390.721    20592387.969
  20851066.379    10654904.79544   8307568.41642  20851067.345    20851064.318
 03 12 24  0 52 30.0000000  0  7G30G10G24G21G 6G17G 5
  20252401.930   -23024909.18044 -17933403.43342  20252403.843    20252399.851
  21124715.967   -18809526.12943 -14618725.62042  21124716.741    21124714.187
  22166308.105    21904620.18943  17111796.95142  22166309.097    22166306.680
  24201115.207    -9111602.97343  -7094387.73142  24201116.809    24201114.997
  22164910.741   -16801495.41343 -13061822.21042  22164912.325    22164909.684
  20595099.471   -14130102.43344 -10996209.26742  20595100.097    20595097.328
  20862211.297    10713471.76544   8353205.01442  20862212.292    20862209.252
 03 12 24  0 53  0.0000000  0  7G30G10G24G21G 6G17G 5
  20249235.038   -23041551.22144 -17946371.24542  20249236.956    20249232.964
  21119421.722   -18837347.47743 -14640404.55642  21119422.482    21119419.908
  22180818.984    21980875.23643  17171216.46642  22180819.948    22180817.530
  24184142.843    -9200792.02643  -7163885.43342  24184144.497    24184142.723
  22153185.058   -16863114.13043 -13109836.73942  22153186.640    22153184.003
  20597878.341   -14115499.31044 -10984830.19742  20597878.965    20597876.191
  20873445.619    10772508.49744   8399207.66442  20873446.613    20873443.576
 03 12 24  0 53 30.0000000  0  7G30G10G24G21G 6G17G 5
  20246177.057   -23057620.93244 -17958893.08342  20246178.966    20246174.989
  21114244.036   -18864556.20643 -14661606.12942  21114244.796    21114242.220
  22195358.547    22057281.06943  17230753.47242  22195359.505    22195357.084
  24167202.648    -9289812.63243  -7233251.89942  24167204.303    24167202.393
  22141476.605   -16924642.18643 -13157780.62342  22141478.196    22141475.531
  20600726.904   -14100529.82944 -10973165.65042  20600727.546    20600724.773
  20884769.409    10832015.31944   8445576.61542  20884770.381    20884767.346
 03 12 24  0 54  0.0000000  0  7G30G10G24G21G 6G17G 5
  20243227.605   -23073120.37544 -17970970.55442  20243229.509    20243225.523
  21109182.610   -18891154.01143 -14682331.65542  21109183.395    21109180.799
  22209925.781    22133832.38843  17290403.85042  22209926.691    22209924.328
  24150293.887    -9378667.11743  -7302488.91742  24150295.587    24150293.636
  22129785.022   -16986081.60043 -13205655.43742  22129786.625    22129783.930
  20603644.407   -14085198.17244 -10961218.88942  20603645.046    20603642.269
  20896181.794    10891987.88544   8492308.48742  20896182.786    20896179.754
 03 12 24  0 54 30.0000000  0  7G30G10G24G21G 6G17G 5
  20240386.441   -23088050.62844 -17982604.50442  20240388.361    20240384.374
  21104237.360   -18917141.54643 -14702581.64942  21104238.109    21104235.507
  22224520.032    22210525.68043  17350164.85442  22224520.934    22224518.584
  24133416.701    -9467356.49643  -7371597.27642  24133418.234    24133416.561
  22118110.038   -17047433.79043 -13253462.28542  22118111.643    22118108.955
  20606630.201   -14069507.73044 -10948992.55742  20606630.833    20606628.054
  20907682.151    10952422.68144   8539400.53342  20907683.141    20907680.099
 03 12 24  0 55  0.0000000  0  7G30G10G24G21G 6G17G 5
  20237654.363   -23102407.66944 -17993791.79242  20237656.275    20237652.307
  21099408.976   -18942514.77743 -14722352.96342  21099409.748    21099407.097
  22239141.517    22287362.13143  17410037.42442  22239142.429    22239140.064
  24116571.740    -9555876.77343  -7440573.90042  24116573.277    24116571.441
  22106452.378   -17108694.94943 -13301198.19242  22106453.957    22106451.277
  20609684.630   -14053456.46544 -10936485.05942  20609685.274    20609682.505
  20919270.753    11013321.04544   8586853.80742  20919271.717    20919268.682
 03 12 24  0 55 30.0000000  0  7G30G10G24G21G 6G17G 5
  20235031.637   -23116189.95644 -18004531.22242  20235033.569    20235029.614
  21094697.814   -18967271.93643 -14741644.22642  21094698.569    21094695.933
  22253789.984    22364340.29343  17470020.39842  22253790.883    22253788.540
  24099759.212    -9644226.45043  -7509417.61442  24099760.746    24099758.812
  22094812.316   -17169863.67143 -13348862.07042  22094813.884    22094811.199
  20612807.555   -14037045.24744 -10923697.08342  20612808.206    20612805.446
  20930947.373    11074682.18244   8634667.67942  20930948.335    20930945.331
 03 12 24  0 56  0.0000000  0  7G30G10G24G21G 6G17G 5
  20232517.624   -23129401.11744 -18014825.61642  20232519.561    20232515.589
  21090103.248   -18991416.38843 -14760458.05542  21090103.999    21090101.382
  22268464.085    22441453.30043  17530108.46042  22268465.013    22268462.640
  24082978.322    -9732409.66843  -7578131.61842  24082979.950    24082977.803
  22083189.086   -17230943.95143 -13396457.03442  22083190.640    22083187.960
  20615997.930   -14020279.80044 -10910633.08442  20615998.542    20615995.798
  20942710.830    11136499.49144   8682837.01242  20942711.790    20942708.769
 03 12 24  0 56 30.0000000  0  7G30G10G24G21G 6G17G 5
  20230113.845   -23142033.05744 -18024668.67242  20230115.775    20230111.797
  21085626.882   -19014939.66543 -14778787.85642  21085627.642    21085624.991
  22283164.968    22518706.89243  17590306.05942  22283165.874    22283163.517
  24066230.827    -9820417.79643  -7646709.18042  24066232.434    24066230.197
  22071584.188   -17291927.82843 -13443976.87942  22071585.746    22071583.060
  20619256.837   -14003154.12444 -10897288.39242  20619257.437    20619254.688
  20954562.261    11198779.24544   8731366.68942  20954563.223    20954560.197
 03 12 24  0 57  0.0000000  0  7G30G10G24G21G 6G17G 5
  20227820.170   -23154086.47844 -18034060.92742  20227822.080    20227818.117
  21081268.655   -19037842.28243 -14796634.02742  21081269.406    21081266.742
  22297891.907    22596097.57243  17650610.48442  22297892.813    22297890.482
  24049516.421    -9908251.43443  -7715150.77642  24049517.939    24049515.788
  22059997.485   -17352816.14843 -13491422.26642  22059999.041    22059996.350
  20622583.727   -13985671.05144 -10883665.19942  20622584.339    20622581.605
  20966500.994    11261517.76244   8780253.84842  20966501.949    20966498.951
 03 12 24  0 57 30.0000000  0  7G30G10G24G21G 6G17G 5
  20225635.225   -23165568.30144 -18043007.78642  20225637.157    20225633.199
  21077027.285   -19060130.70243 -14814001.60542  21077028.037    21077025.358
  22312643.180    22673615.89043  17711014.37242  22312644.059    22312641.744
  24032833.900    -9995917.55643  -7783461.87342  24032835.407    24032833.195
  22048427.684   -17413615.51043 -13538798.33542  22048429.286    22048426.564
  20625976.887   -13967839.84944 -10869770.74542  20625977.488    20625974.753
  20978525.241    11324705.70144   8829491.20442  20978526.201    20978523.204
 03 12 24  0 58  0.0000000  0  7G30G10G24G21G 6G17G 5
  20223561.387   -23176466.47844 -18051499.86042  20223563.320    20223559.313
  21072905.128   -19081792.68443 -14830881.05242  21072905.861    21072903.206
  22327420.481    22751271.01443  17771524.85742  22327421.330    22327419.005
  24016185.544   -10083404.50343  -7851633.36242  24016187.110    24016184.705
  22036877.087   -17474314.24943 -13586096.00142  22036878.666    22036875.915
  20629438.278   -13949650.15044 -10855596.94342  20629438.875    20629436.135
  20990636.871    11388352.81244   8879086.35442  20990637.846    20990634.850
 03 12 24  0 58 30.0000000  0  7G30G10G24G21G 6G17G 5
  20221596.420   -23186792.38144 -18059546.00142  20221598.342    20221594.345
  21068900.030   -19102839.56343 -14847281.19942  21068900.736    21068898.096
  22342221.123    22829048.92043  17832131.02442  22342221.998    22342219.647
  23999569.126   -10170723.80743  -7919674.24242  23999570.656    23999568.260
  22025343.443   -17534923.83143 -13633324.18942  22025345.020    22025342.249
  20632965.252   -13931115.71144 -10841154.50842  20632965.861    20632963.105
  21002833.226    11452445.19444   8929028.47542  21002834.220    21002831.220
 03 12 24  0 59  0.0000000  0  7G30G10G24G21G 6G17G 5
  20219742.407   -23196535.24544 -18067137.82842  20219744.333    20219740.316
  21065014.092   -19123260.28643 -14863193.43442  21065014.789    21065012.133
  22357046.656    22906957.72243  17892839.18442  22357047.558    22357045.209
  23982986.742   -10257864.32243  -7987575.79042  23982988.339    23982985.877
  22013828.838   -17595433.29143 -13680474.36542  22013830.432    22013827.629
  20636559.511   -13912227.71544 -10826436.57842  20636560.107    20636557.356
  21015115.896    11516991.11344   8979323.99942  21015116.882    21015113.900
 03 12 24  0 59 30.0000000  0  7G30G10G24G21G 6G17G 5
  20217998.381   -23205700.02544 -18074279.19942  20218000.318    20217996.317
  21061246.414   -19143059.52143 -14878621.39342  21061247.119    21061244.440
  22371895.763    22984990.31543  17953643.80742  22371896.687    22371894.325
  23966437.515   -10344830.93643  -8055341.85042  23966439.039    23966436.575
  22002332.381   -17655847.45343 -13727550.29142  22002333.987    22002331.143
  20640219.693   -13892993.22544 -10811448.64842  20640220.313    20640217.540
  21027483.507    11581983.28044   9029967.24642  21027484.502    21027481.470
 03 12 24  1  0  0.0000000  0  7G30G10G24G21G 6G17G 5
  20216365.777   -23214279.44144 -18080964.44542  20216367.722    20216363.695
  21057598.404   -19162229.80843 -14893559.26242  21057599.124    21057596.420
  22386769.267    23063151.01543  18014548.25942  22386770.195    22386767.825
  23949922.750   -10431616.10243  -8122966.53642  23949924.363    23949921.695
  21990855.444   -17716158.99143 -13774546.25742  21990857.055    21990854.188
  20643946.815   -13873407.01144 -10796186.65242  20643947.439    20643944.664
  21039936.918    11647426.35644   9080961.85042  21039937.918    21039934.881
 03 12 24  1  0 30.0000000  0  7G30G10G24G21G 6G17G 5
  20214843.068   -23222281.26344 -18087199.61342  20214845.009    20214840.968
  21054068.646   -19180778.66543 -14908012.89942  21054069.362    21054066.664
  22401665.157    23141429.62243  18075544.59042  22401666.114    22401663.720
  23933441.016   -10518227.43143  -8190455.75342  23933442.685    23933439.991
  21979396.637   -17776375.49843 -13821468.17542  21979398.200    21979395.326
  20647739.028   -13853478.76144 -10780658.12842  20647739.649    20647736.870
  21052474.314    11713310.65744   9132300.27142  21052475.295    21052472.258
 03 12 24  1  1  0.0000000  0  7G30G10G24G21G 6G17G 5
  20213430.983   -23229701.62944 -18092981.69742  20213432.958    20213428.900
  21050657.908   -19198702.09243 -14921979.18942  21050658.626    21050655.931
  22416583.760    23219827.33943  18136633.73242  22416584.686    22416582.313
  23916993.060   -10604661.42143  -8257806.80842  23916994.736    23916991.901
  21967956.598   -17836493.24043 -13868313.13742  21967958.138    21967955.258
  20651596.641   -13833206.78344 -10764861.76842  20651597.257    20651594.485
  21065095.841    11779637.13444   9183983.24342  21065096.825    21065093.754
 03 12 24  1  1 30.0000000  0  7G30G10G24G21G 6G17G 5
  20212130.752   -23236534.54344 -18098306.02842  20212132.694    20212128.628
  21047367.360   -19215993.87743 -14935453.29242  21047368.090    21047365.405
  22431525.700    23298347.81743  18197818.53242  22431526.639    22431524.228
  23900580.205   -10690911.66943  -8325014.68542  23900581.919    23900578.892
  21956536.562   -17896505.96543 -13915076.27242  21956538.083    21956535.179
  20655520.439   -13812586.95644 -10748794.35642  20655521.060    20655518.285
  21077802.175    11846409.35444   9236013.54742  21077803.153    21077800.084
 03 12 24  1  2  0.0000000  0  7G30G10G24G21G 6G17G 5
  20210940.997   -23242786.66044 -18103177.79342  20210942.936    20210938.874
  21044195.838   -19232660.33343 -14948440.12542  21044196.534    21044193.873
  22446489.242    23376981.78043  18259091.76442  22446490.160    22446487.752
  23884200.975   -10776984.72843  -8392084.48942  23884202.602    23884199.626
  21945135.272   -17956420.17843 -13961762.65642  21945136.786    21945133.835
  20659508.818   -13791627.96344 -10732462.66242  20659509.417    20659506.643
  21090591.591    11913618.23844   9288384.10942  21090592.572    21090589.500
 03 12 24  1  2 30.0000000  0  7G30G10G24G21G 6G17G 5
  20209862.437   -23248454.41944 -18107594.21242  20209864.369    20209860.316
  21041143.973   -19248697.80443 -14960936.83742  21041144.709    21041142.024
  22461474.687    23455730.73143  18320454.60442  22461475.596    22461473.200
  23867856.123   -10862877.09543  -8459013.49742  23867857.808    23867854.717
  21933753.508   -18016231.85843 -14008369.13342  21933755.000    21933752.001
  20663562.082   -13770327.86544 -10715865.17042  20663562.672    20663559.891
  21103464.429    11981265.48044   9341096.24942  21103465.409    21103462.354
 03 12 24  1  3  0.0000000  0  7G30G10G24G21G 6G17G 5
  20208895.224   -23253537.05744 -18111554.68942  20208897.155    20208893.108
  21038211.971   -19264105.54443 -14972942.84842  21038212.693    21038210.031
  22476481.645    23534593.06643  18381905.79442  22476482.571    22476480.202
  23851546.009   -10948587.32643  -8525800.61342  23851547.574    23851544.529
  21922391.389   -18075940.25543 -14054895.13942  21922392.864    21922389.835
  20667679.936   -13748688.28744 -10699003.15042  20667680.519    20667677.755
  21116420.234    12049348.69944   9394148.11342  21116421.212    21116418.164
 03 12 24  1  3 30.0000000  0  7G30G10G24G21G 6G17G 5
  20208039.020   -23258036.35944 -18115060.61442  20208040.947    20208036.934
  21035399.547   -19278884.85243 -14984459.16842  21035400.280    21035397.602
  22491509.419    23613564.53943  18443442.03242  22491510.335    22491507.945
  23835270.085   -11034117.38943  -8592447.31642  23835271.612    23835268.561
  21911048.632   -18135546.74643 -14101341.73342  21911050.125    21911047.072
  20671861.712   -13726712.74644 -10681879.33642  20671862.308    20671859.555
  21129458.256    12117863.97544   9447536.64642  21129459.229    21129456.205
 03 12 24  1  4  0.0000000  0  7G30G10G24G21G 6G17G 5
  20207295.020   -23261946.01144 -18118107.07642  20207296.956    20207292.941
  21032707.893   -19293029.38443 -14995480.86242  21032708.659    21032705.972
  22506558.660    23692648.98343  18505066.30142  22506559.591    22506557.179
  23819029.678   -11119460.98243  -8658948.74242  23819031.195    23819028.097
  21899726.494   -18195044.68843 -14147703.74742  21899728.013    21899724.960
  20676108.271   -13704396.80044 -10664490.28442  20676108.869    20676106.133
  21142579.275    12186815.41644   9501265.04342  21142580.246    21142577.216
 03 12 24  1  4 30.0000000  0  7G30G10G24G21G 6G17G 5
  20206661.485   -23265275.19344 -18120701.22142  20206663.406    20206659.413
  21030135.431   -19306548.05943 -15006014.87042  21030136.112    21030133.435
  22521627.245    23771835.06743  18566769.76542  22521628.179    22521625.758
  23802823.169   -11204626.76843  -8725311.63142  23802824.617    23802821.498
  21888423.361   -18254442.81343 -14193987.97542  21888424.890    21888421.861
  20680417.517   -13681751.49944 -10646844.58442  20680418.103    20680415.361
  21155781.108    12256191.58044   9555324.39742  21155782.084    21155779.066
 03 12 24  1  5  0.0000000  0  7G30G10G24G21G 6G17G 5
  20206140.870   -23268010.94344 -18122832.95242  20206142.814    20206138.806
  21027684.510   -19319427.73143 -15016050.95742  21027685.162    21027682.510
  22536717.258    23851133.62943  18628560.87742  22536718.158    22536715.745
  23786653.082   -11289601.30743  -8791525.53642  23786654.515    23786651.298
  21877141.779   -18313727.75043 -14240184.00142  21877143.294    21877140.284
  20684791.608   -13658765.58744 -10628933.47642  20684792.168    20684789.444
  21169065.698    12326002.72843   9609722.69842  21169066.690    21169063.686
 03 12 24  1  5 30.0000000  0  7G30G10G24G21G 6G17G 5
  20205731.396   -23270162.64444 -18124509.58342  20205733.343    20205729.321
  21025353.382   -19331677.71143 -15025596.37742  21025354.070    21025351.406
  22551826.421    23930532.94343  18690430.50142  22551827.335    22551824.869
  23770517.615   -11374393.61843  -8857597.44342  23770519.020    23770515.825
  21865880.034   -18372908.55243 -14286298.88342  21865881.515    21865878.541
  20689228.323   -13635450.42644 -10610765.80942  20689228.900    20689226.153
  21182430.853    12396237.23143   9664450.88442  21182431.830    21182428.855
 03 12 24  1  6  0.0000000  0  7G30G10G24G21G 6G17G 5
  20205433.885   -23271726.10844 -18125727.84842  20205435.829    20205431.791
  21023142.946   -19343293.64743 -15034647.73442  21023143.648    21023140.961
  22566955.146    24010034.93043  18752380.12042  22566956.025    22566953.559
  23754417.633   -11458999.64243  -8923524.19742  23754418.985    23754415.812
  21854638.965   -18431980.49743 -14332328.93842  21854640.483    21854637.472
  20693728.150   -13611803.64144 -10592339.73442  20693728.740    20693725.998
  21195876.946    12466897.08643   9719510.51242  21195877.943    21195874.968
 03 12 24  1  6 30.0000000  0  7G30G10G24G21G 6G17G 5
  20205248.222   -23272701.81144 -18126488.11742  20205250.154    20205246.092
  21021053.090   -19354275.78743 -15043205.21942  21021053.786    21021051.104
  22582102.894    24089637.03743  18814407.75642  22582103.810    22582101.301
  23738353.083   -11543419.50943  -8989305.92742  23738354.396    23738351.231
  21843418.611   -18490943.63543 -14378274.20442  21843420.135    21843417.121
  20698290.678   -13587827.41444 -10573656.95042  20698291.261    20698288.506
  21209403.494    12537979.57643   9774899.46942  21209404.480    21209401.533
 03 12 24  1  7  0.0000000  0  7G30G10G24G21G 6G17G 5
  20205174.841   -23273087.23844 -18126788.43442  20205176.799    20205172.735
  21019084.408   -19364621.26943 -15051266.61242  21019085.087    21019082.404
  22597269.720    24169339.43243  18876513.53942  22597270.675    22597268.115
  23722324.542   -11627650.31843  -9054940.34642  23722325.757    23722322.644
  21832219.548   -18549795.02043 -14424132.39642  21832221.042    21832218.048
  20702916.011   -13563521.15744 -10554716.99942  20702916.602    20702913.833
  21223010.492    12609484.77843   9830617.81242  21223011.458    21223008.524
 03 12 24  1  7 30.0000000  0  7G30G10G24G21G 6G17G 5
  20205212.860   -23272887.56044 -18126632.82842  20205214.800    20205210.713
  21017235.836   -19374335.32743 -15058835.98642  21017236.538    21017233.839
  22612454.317    24249135.04843  18938691.96642  22612455.252    22612452.671
  23706331.053   -11711696.86343  -9120431.16042  23706332.204    23706329.109
  21821040.840   -18608539.24343 -14469907.08042  21821042.349    21821039.368
  20707602.850   -13538891.61144 -10535525.14042  20707603.450    20707600.671
  21236696.451    12681405.09443   9886659.61442  21236697.439    21236694.487
 03 12 24  1  8  0.0000000  0  7G30G10G24G21G 6G17G 5
  20205363.840   -23272094.07244 -18126014.51042  20205365.782    20205361.696
  21015509.088   -19383409.29643 -15065906.58942  21015509.801    21015507.096
  22627657.899    24329030.46543  19000948.14942  22627658.831    22627656.248
  23690374.357   -11795550.06343  -9185771.30542  23690375.518    23690372.338
  21809884.330   -18667167.06343 -14515591.05742  21809885.813    21809882.842
  20712352.527   -13513931.76944 -10516075.90342  20712353.150    20712350.358
  21250462.632    12753746.96443   9943029.90442  21250463.624    21250460.686
 03 12 24  1  8 30.0000000  0  7G30G10G24G21G 6G17G 5
  20205626.503   -23270713.79644 -18124938.95642  20205628.436    20205624.315
  21013902.844   -19391850.07543 -15072483.79642  21013903.556    21013900.830
  22642878.774    24409016.83243  19063275.20942  22642879.712    22642877.127
  23674453.082   -11879216.78843  -9250966.15842  23674454.324    23674451.085
  21798748.777   -18725684.75543 -14561189.22442  21798750.245    21798747.258
  20717163.385   -13488650.43944 -10496376.15642  20717164.009    20717161.210
  21264307.322    12826501.35243   9999721.63242  21264308.311    21264305.380
 03 12 24  1  9  0.0000000  0  7G30G10G24G21G 6G17G 5
  20206001.987   -23268740.60544 -18123401.39242  20206003.917    20205999.782
  21012418.313   -19399651.32743 -15078562.67142  21012419.018    21012416.278
  22658117.759    24489098.40143  19125676.44942  22658118.743    22658116.104
  23658568.563   -11962690.24043  -9316010.35442  23658569.824    23658566.581
  21787635.453   -18784085.52343 -14606696.27842  21787636.950    21787633.927
  20722036.224   -13463043.38944 -10476422.60242  20722036.853    20722034.054
  21278231.225    12899671.93643  10056737.67542  21278232.216    21278229.273
 03 12 24  1  9 30.0000000  0  7G30G10G24G21G 6G17G 5
  20206488.956   -23266181.55544 -18121407.31342  20206490.872    20206486.740
  21011054.236   -19406819.54243 -15084148.27042  21011054.956    21011052.199
  22673373.139    24569266.11143  19188144.81142  22673374.128    22673371.483
  23642719.611   -12045977.08943  -9380909.15042  23642720.888    23642717.644
  21776543.164   -18842375.65843 -14652117.12142  21776544.676    21776541.652
  20726969.495   -13437118.85044 -10456221.65442  20726970.110    20726967.315
  21292232.582    12973249.56043  10114070.88842  21292233.580    21292230.609
 03 12 24  1 10  0.0000000  0  7G30G10G24G21G 6G17G 5
  20207088.679   -23263029.96344 -18118951.51742  20207090.576    20207086.434
  21009811.823   -19413348.26543 -15089235.56742  21009812.595    21009809.795
  22688645.802    24649524.61543  19250683.92942  22688646.776    22688644.135
  23626907.485   -12129070.27843  -9445657.01942  23626908.777    23626905.500
  21765473.286   -18900548.04043 -14697446.21342  21765474.797    21765471.788
  20731964.086   -13410872.12344 -10435769.65142  20731964.679    20731961.893
  21306312.282    13047238.67643  10171724.74342  21306313.273    21306310.263
 03 12 24  1 10 30.0000000  0  7G30G10G24G21G 6G17G 5
  20207801.010   -23259286.71544 -18116034.69242  20207802.871    20207798.737
  21008690.972   -19419238.36044 -15093825.23342  21008691.728    21008688.918
  22703935.248    24729871.15043  19313291.62442  22703936.189    22703933.557
  23611132.077   -12211970.29243  -9510254.36042  23611133.404    23611130.096
  21754425.795   -18958602.79143 -14742683.64442  21754427.308    21754424.311
  20737019.511   -13384305.75744 -10415068.58042  20737020.095    20737017.277
  21320469.667    13121636.20443  10229696.84142  21320470.666    21320467.642
 03 12 24  1 11  0.0000000  0  7G30G10G24G21G 6G17G 5
  20208625.494   -23254953.91444 -18112658.47542  20208627.374    20208623.239
  21007691.233   -19424491.96043 -15097918.92842  21007691.998    21007689.176
  22719240.680    24810301.73743  19375964.82342  22719241.605    22719238.935
  23595393.213   -12294678.35543  -9574702.10842  23595394.573    23595391.255
  21743400.409   -19016541.34543 -14787830.53342  21743401.922    21743398.933
  20742135.053   -13357423.48944 -10394121.35242  20742135.617    20742132.800
  21334703.906    13196437.48343  10287983.55142  21334704.890    21334701.854
 03 12 24  1 11 30.0000000  0  7G30G10G24G21G 6G17G 5
  20209562.378   -23250030.48044 -18108822.02742  20209564.270    20209560.106
  21006812.908   -19429107.57544 -15101515.49342  21006813.657    21006810.826
  22734561.937    24890815.69243  19438702.98942  22734562.884    22734560.214
  23579691.047   -12377193.70343  -9638999.67542  23579692.422    23579689.098
  21732397.550   -19074361.59443 -14832885.23642  21732399.064    21732396.058
  20747310.682   -13330225.39044 -10372928.02242  20747311.249    20747308.423
  21349014.709    13271641.28543  10346583.91242  21349015.702    21349012.660
 03 12 24  1 12  0.0000000  0  7G30G10G24G21G 6G17G 5
  20210611.907   -23244515.00944 -18104524.25342  20210613.808    20210609.647
  21006056.274   -19433083.61443 -15104613.68642  21006057.024    21006054.204
  22749899.024    24971412.61943  19501505.79842  22749899.953    22749897.318
  23564025.878   -12459514.25543  -9703145.45542  23564027.265    23564023.917
  21721417.635   -19132061.31443 -14877846.02542  21721419.143    21721416.135
  20752546.315   -13302711.90844 -10351488.94042  20752546.879    20752544.061
  21363402.046    13347247.20243  10405497.60942  21363403.022    21363399.985
 03 12 24  1 12 30.0000000  0  7G30G10G24G21G 6G17G 5
  20211773.917   -23238408.51944 -18099765.95142  20211775.828    20211771.673
  21005421.147   -19436421.10944 -15107214.31142  21005421.911    21005419.078
  22765251.316    25052089.61443  19564371.00142  22765252.266    22765249.624
  23548397.736   -12541640.19443  -9767139.57442  23548399.141    23548395.763
  21710460.618   -19189640.59143 -14922712.96542  21710462.136    21710459.105
  20757841.469   -13274885.65344 -10329806.14042  20757842.038    20757839.223
  21377865.330    13423252.22343  10464722.29442  21377866.308    21377863.250
 03 12 24  1 13  0.0000000  0  7G30G10G24G21G 6G17G 5
  20213048.359   -23231711.30244 -18094547.33642  20213050.244    20213046.095
  21004907.455   -19439120.53844 -15109317.73942  21004908.213    21004905.371
  22780618.467    25132844.66943  19627297.02942  22780619.417    22780616.805
  23532806.661   -12623571.23643  -9830981.82042  23532808.069    23532804.720
  21699526.602   -19247099.04443 -14967485.75442  21699528.111    21699525.115
  20763195.789   -13246748.32044 -10307880.93742  20763196.377    20763193.571
  21392404.065    13499653.85343  10524256.02942  21392405.052    21392402.004
 03 12 24  1 13 30.0000000  0  7G30G10G24G21G 6G17G 5
  20214435.659   -23224420.86544 -18088866.47742  20214437.545    20214433.441
  21004515.654   -19441179.22644 -15110921.89242  21004516.444    21004513.601
  22796000.691    25213678.84743  19690284.71242  22796001.633    22795999.032
  23517253.280   -12705304.23643  -9894669.74742  23517254.686    23517251.385
  21688616.235   -19304433.19643 -15012161.68842  21688617.740    21688614.760
  20768609.542   -13218298.86544 -10285712.52942  20768610.120    20768607.327
  21407018.273    13576451.97543  10584098.71642  21407019.252    21407016.195
 03 12 24  1 14  0.0000000  0  7G30G10G24G21G 6G17G 5
  20215935.278   -23216540.23444 -18082725.72342  20215937.157    20215933.049
  21004245.268   -19442600.07344 -15112029.02242  21004246.060    21004243.208
  22811397.058    25294587.23243  19753330.21542  22811397.992    22811395.385
  23501737.085   -12786842.09743  -9958205.62942  23501738.439    23501735.183
  21677729.139   -19361645.14343 -15056742.40242  21677730.645    21677727.638
  20774081.765   -13189542.12444 -10263304.67342  20774082.347    20774079.557
  21421706.953    13653641.34643  10644246.27442  21421707.921    21421704.835
 03 12 24  1 14 30.0000000  0  7G30G10G24G21G 6G17G 5
  20217547.130   -23208069.87544 -18076125.44242  20217549.008    20217544.915
  21004096.172   -19443383.34744 -15112639.33942  21004096.971    21004094.133
  22826807.229    25375568.04243  19816432.15142  22826808.118    22826805.536
  23486258.026   -12868184.77143 -10021589.42642  23486259.321    23486256.139
  21666865.429   -19418734.25243 -15101227.39642  21666866.919    21666863.912
  20779612.180   -13160479.55744 -10240658.51142  20779612.756    20779609.958
  21436469.623    13731219.68943  10704696.92742  21436470.588    21436467.527
 03 12 24  1 15  0.0000000  0  7G30G10G24G21G 6G17G 5
  20219272.802   -23199001.41044 -18069059.10542  20219274.697    20219270.571
  21004070.006   -19443520.85343 -15112746.46242  21004070.794    21004067.953
  22842232.306    25456627.40043  19879595.29442  22842233.184    22842230.628
  23470817.808   -12949323.13343 -10084814.00342  23470819.076    23470815.926
  21656026.864   -19475691.27843 -15145609.47342  21656028.321    21656025.328
  20785202.066   -13131104.54844 -10217768.88742  20785202.636    20785199.831
  21451307.423    13809192.86843  10765455.24142  21451308.378    21451305.324
 03 12 24  1 15 30.0000000  0  7G30G10G24G21G 6G17G 5
  20221109.422   -23189350.09944 -18061538.60242  20221111.298    20221107.162
  21004163.865   -19443027.54543 -15112362.03842  21004164.626    21004161.819
  22857669.243    25537749.04543  19942806.97842  22857670.109    22857667.598
  23455413.742   -13030271.58543 -10147890.62242  23455415.011    23455411.824
  21645210.729   -19532530.19843 -15189899.51042  21645212.235    21645209.220
  20790848.293   -13101433.46144 -10194648.55042  20790848.847    20790846.049
  21466217.169    13887544.17343  10826508.20142  21466218.125    21466215.105
 03 12 24  1 16  0.0000000  0  7G30G10G24G21G 6G17G 5
  20223059.201   -23179103.85844 -18053554.51742  20223061.084    20223056.942
  21004380.084   -19441891.20144 -15111476.54742  21004380.837    21004378.016
  22873120.072    25618943.55643  20006075.43042  22873120.916    22873118.413
  23440048.295   -13111017.27743 -10210809.24142  23440049.541    23440046.340
  21634419.592   -19589237.88043 -15234087.29142  21634421.079    21634418.099
  20796552.877   -13071455.57244 -10171289.14842  20796553.439    20796550.638
  21481200.680    13966283.16543  10887863.24842  21481201.660    21481198.643
 03 12 24  1 16 30.0000000  0  7G30G10G24G21G 6G17G 5
  20225121.730   -23168265.20744 -18045108.81442  20225123.611    20225119.458
  21004718.184   -19440114.34244 -15110091.95142  21004718.926    21004716.109
  22888583.994    25700207.10643  20069397.68542  22888584.845    22888582.391
  23424720.953   -13191562.54343 -10273571.70442  23424722.171    23424719.034
  21623653.173   -19645815.73743 -15278173.91442  21623654.675    21623651.663
  20802315.024   -13041175.14244 -10147693.99842  20802315.591    20802312.802
  21496257.168    14045405.36043  10949516.90142  21496258.109    21496255.109
 03 12 24  1 17  0.0000000  0  7G30G10G24G21G 6G17G 5
  20227296.826   -23156834.93544 -18036202.11042  20227298.704    20227294.583
  21005177.997   -19437697.89844 -15108208.97742  21005178.748    21005175.917
  22904060.580    25781537.24443  20132771.82742  22904061.446    22904059.004
  23409431.697   -13271907.70943 -10336178.24042  23409432.907    23409429.783
  21612911.521   -19702263.45343 -15322159.12642  21612913.017    21612910.010
  20808134.455   -13010593.83044 -10123864.39242  20808135.003    20808132.235
  21511385.971    14124907.82443  11011466.86442  21511386.922    21511383.935
 03 12 24  1 17 30.0000000  0  7G30G10G24G21G 6G17G 5
  20229584.321   -23144814.10344 -18026835.22842  20229586.212    20229582.046
  21005759.295   -19434643.03744 -15105828.53342  21005760.038    21005757.217
  22919549.325    25862931.26643  20196195.74542  22919550.174    22919547.794
  23394180.585   -13352052.58243 -10398628.72342  23394181.793    23394178.650
  21602194.668   -19758580.83943 -15366042.77642  21602196.188    21602193.151
  20814010.644   -12979714.23144 -10099802.35642  20814011.178    20814008.407
  21526586.655    14204787.89243  11073711.06142  21526587.583    21526584.606
 03 12 24  1 18  0.0000000  0  7G30G10G24G21G 6G17G 5
  20231984.161   -23132202.76344 -18017008.20942  20231986.062    20231981.925
  21006462.171   -19430949.42344 -15102950.36342  21006462.900    21006460.049
  22935050.057    25944388.24943  20259668.72642  22935050.910    22935048.547
  23378967.694   -13431996.32143 -10460922.48342  23378968.901    23378965.757
  21591502.827   -19814766.87643 -15409824.07742  21591504.335    21591501.262
  20819943.328   -12948537.68044 -10075508.92842  20819943.881    20819941.083
  21541858.686    14285043.05343  11136247.54242  21541859.636    21541856.674
 03 12 24  1 18 30.0000000  0  7G30G10G24G21G 6G17G 5
  20234496.159   -23119002.12844 -18006721.99842  20234498.062    20234493.904
  21007286.368   -19426618.15344 -15099575.31742  21007287.090    21007284.230
  22950562.225    26025905.29543  20323188.51742  22950563.071    22950560.718
  23363792.903   -13511739.96043 -10523060.31642  23363794.155    23363790.973
  21580835.961   -19870821.55943 -15453503.02942  21580837.472    21580834.375
  20825932.068   -12917066.54244 -10050985.94942  20825932.625    20825929.833
  21557201.497    14365670.08743  11199073.79042  21557202.434    21557199.492
 03 12 24  1 19  0.0000000  0  7G30G10G24G21G 6G17G 5
  20237120.957   -23105208.73744 -17995973.89842  20237122.856    20237118.706
  21008232.524   -19421645.88544 -15095700.79042  21008233.254    21008230.386
  22966086.232    26107484.59343  20386756.81342  22966087.119    22966084.738
  23348657.012   -13591279.51843 -10585039.14442  23348658.243    23348655.018
  21570194.986   -19926740.15543 -15497075.93142  21570196.485    21570193.385
  20831977.243   -12885298.78244 -10026231.83442  20831977.821    20831975.010
  21572615.353    14446670.41043  11262190.91542  21572616.278    21572613.330
 03 12 24  1 19 30.0000000  0  7G30G10G24G21G 6G17G 5
  20239857.821   -23090826.55144 -17984766.99942  20239859.701    20239855.537
  21009299.898   -19416036.65344 -15091329.92742  21009300.620    21009297.766
  22981621.125    26189121.01843  20450369.63342  22981622.032    22981619.608
  23333559.473   -13670617.60843 -10646860.99542  23333560.682    23333557.408
  21559579.445   -19982525.13043 -15540544.71542  21559580.939    21559577.836
  20838077.939   -12853239.40944 -10001250.48842  20838078.515    20838075.703
  21588099.109    14528038.15343  11325594.33842  21588100.048    21588097.099
 03 12 24  1 20  0.0000000  0  7G30G10G24G21G 6G17G 5
  20242707.243   -23075852.75244 -17973099.09942  20242709.115    20242704.964
  21010489.005   -19409787.63744 -15086460.52742  21010489.747    21010486.889
  22997167.163    26270816.05843  20514028.12542  22997168.070    22997165.622
  23318500.970   -13749750.36343 -10708522.83842  23318502.182    23318498.897
  21548990.129   -20038172.25143 -15583906.07242  21548991.622    21548988.516
  20844234.414   -12820886.80444  -9976040.64242  20844235.004    20844232.172
  21603652.990    14609774.22043  11389284.77342  21603653.923    21603650.947
 03 12 24  1 20 30.0000000  0  7G30G10G24G21G 6G17G 5
  20245668.789   -23060289.69044 -17960972.04042  20245670.657    20245666.507
  21011799.413   -19402901.13944 -15081094.39542  21011800.176    21011797.330
  23012723.603    26352565.89043  20577729.31342  23012724.561    23012722.079
  23303481.144   -13828679.93043 -10770026.36142  23303482.355    23303479.045
  21538426.856   -20093682.60343 -15627160.86142  21538428.327    21538425.231
  20850445.983   -12788244.73444  -9950605.24242  20850446.559    20850443.719
  21619276.131    14691874.10743  11453258.69642  21619277.063    21619274.068
 03 12 24  1 21  0.0000000  0  7G30G10G24G21G 6G17G 5
  20248742.731   -23044136.03244 -17948384.77042  20248744.599    20248740.443
  21013231.453   -19395375.56444 -15075230.28142  21013232.205    21013229.361
  23028290.559    26434370.90643  20641473.50342  23028291.517    23028289.023
  23288500.393   -13907403.96743 -10831369.72742  23288501.546    23288498.308
  21527890.112   -20149053.38943 -15670306.89642  21527891.606    21527888.481
  20856712.721   -12755312.69644  -9924943.89042  20856713.296    20856710.462
  21634968.428    14774337.56243  11517515.92142  21634969.369    21634966.335
 03 12 24  1 21 30.0000000  0  7G30G10G24G21G 6G17G 5
  20251928.093   -23027396.82044 -17935341.22742  20251929.967    20251925.799
  21014784.179   -19387215.94344 -15068872.10442  21014784.921    21014782.040
  23043866.878    26516225.14643  20705256.05042  23043867.834    23043865.354
  23273557.986   -13985926.69243 -10892556.23942  23273559.155    23273555.898
  21517379.253   -20204288.19443 -15713346.97042  21517380.761    21517377.624
  20863033.463   -12722096.93444  -9899061.45242  20863034.031    20863031.193
  21650728.610    14857157.76343  11582051.13342  21650729.546    21650726.494
 03 12 24  1 22  0.0000000  0  7G30G10G24G21G 6G17G 5
  20255226.033   -23010065.94344 -17921836.64742  20255227.917    20255223.741
  21016458.665   -19378416.36544 -15062015.25942  21016459.412    21016456.509
  23059453.472    26598133.40243  20769080.68742  23059454.444    23059451.967
  23258655.185   -14064241.21443 -10953580.50042  23258656.351    23258653.118
  21506895.669   -20259379.46343 -15756275.19942  21506897.205    21506894.079
  20869409.106   -12688592.46444  -9872954.04342  20869409.725    20869406.860
  21666557.362    14940338.36443  11646867.17342  21666558.297    21666555.232
 03 12 24  1 22 30.0000000  0  7G30G10G24G21G 6G17G 5
  20258635.711   -22992148.10144 -17907874.69142  20258637.563    20258633.410
  21018253.983   -19368981.68844 -15054663.53242  21018254.761    21018251.837
  23075049.278    26680089.79743  20832942.83042  23075050.226    23075047.766
  23243791.285   -14142351.29743 -11014445.47042  23243792.469    23243789.179
  21496438.827   -20314330.42143 -15799094.09342  21496440.374    21496437.228
  20875838.649   -12654804.89244  -9846626.03242  20875839.263    20875836.420
  21682453.486    15023872.95643  11711959.05142  21682454.432    21682451.355
 03 12 24  1 23  0.0000000  0  7G30G10G24G21G 6G17G 5
  20262157.620   -22973640.32444 -17893453.04442  20262159.479    20262155.315
  21020170.758   -19358908.83044 -15046814.52542  21020171.521    21020168.617
  23090654.619    26762096.42043  20896844.11142  23090655.528    23090653.100
  23228967.115   -14220252.81043 -11075147.91742  23228968.247    23228964.958
  21486009.550   -20369136.47343 -15841800.07442  21486011.103    21486007.930
  20882322.390   -12620732.43244  -9820076.03642  20882323.011    20882320.182
  21698417.175    15107762.70443  11777327.67142  21698418.118    21698415.058
 03 12 24  1 23 30.0000000  0  7G30G10G24G21G 6G17G 5
  20265791.141   -22954546.13244 -17878574.44842  20265792.994    20265788.814
  21022208.306   -19348201.30544 -15038470.96942  21022209.088    21022206.152
  23106268.701    26844148.85743  20960781.09742  23106269.592    23106267.103
  23214182.008   -14297948.62543 -11135690.06342  23214183.153    23214179.887
  21475607.473   -20423799.64643 -15884394.72142  21475609.030    21475605.827
  20888859.488   -12586379.62244  -9793307.58242  20888860.124    20888857.279
  21714447.432    15192002.16643  11842968.80142  21714448.376    21714445.310
 03 12 24  1 24  0.0000000  0  7G30G10G24G21G 6G17G 5
  20269536.518   -22934863.86844 -17863237.61742  20269538.385    20269534.224
  21024366.993   -19336857.23844 -15029631.41142  21024367.765    21024364.828
  23121891.514    26926247.66443  21024754.21042  23121892.477    23121889.940
  23199436.628   -14375436.05743 -11196069.83242  23199437.744    23199434.484
  21465233.192   -20478316.72543 -15926875.52542  21465234.750    21465231.532
  20895450.052   -12551745.92044  -9766320.25642  20895450.690    20895447.837
  21730544.187    15276591.11543  11908882.25342  21730545.120    21730542.069
 03 12 24  1 24 30.0000000  0  7G30G10G24G21G 6G17G 5
  20273393.129   -22914597.15444 -17847445.36842  20273395.002    20273390.863
  21026646.102   -19324880.42644 -15020298.80742  21026646.855    21026643.905
  23137522.304    27008387.89043  21088759.59342  23137523.252    23137520.700
  23184730.320   -14452718.13843 -11256289.60142  23184731.456    23184728.118
  21454886.319   -20532689.85943 -15969244.17042  21454887.868    21454884.631
  20902093.203   -12516835.75144  -9739117.50442  20902093.849    20902091.001
  21746706.386    15361523.96643  11975063.68042  21746707.330    21746704.264
 03 12 24  1 25  0.0000000  0  7G30G10G24G21G 6G17G 5
  20277361.767   -22893741.84444 -17831194.48042  20277363.619    20277359.483
  21029046.401   -19312266.63244 -15010469.85142  21029047.173    21029044.210
  23153161.655    27090573.28243  21152800.18542  23153162.580    23153160.045
  23170064.093   -14529789.33043 -11316345.02542  23170065.220    23170061.892
  21444567.960   -20586913.13643 -16011496.04542  21444569.494    21444566.250
  20908789.574   -12481646.04844  -9711696.93942  20908790.216    20908787.369
  21762934.519    15446803.28843  12041515.08542  21762935.462    21762932.395
 03 12 24  1 25 30.0000000  0  7G30G10G24G21G 6G17G 5
  20281441.471   -22872302.75044 -17814488.69042  20281443.340    20281439.211
  21031566.979   -19299020.85944 -15000148.44842  21031567.735    21031564.761
  23168808.515    27172798.09443  21216871.48242  23168809.473    23168806.889
  23155437.302   -14606653.32043 -11376239.00042  23155438.459    23155435.104
  21434277.550   -20640989.51243 -16053633.44542  21434279.102    21434275.818
  20915538.091   -12446182.33344  -9684062.85742  20915538.719    20915535.855
  21779227.308    15532422.46243  12108231.31042  21779228.247    21779225.200
 03 12 24  1 26  0.0000000  0  7G30G10G24G21G 6G17G 5
  20285632.858   -22850276.91344 -17797325.69442  20285634.716    20285630.583
  21034208.399   -19285139.99344 -14989332.15842  21034209.167    21034206.174
  23184463.287    27255064.58743  21280975.26342  23184464.260    23184461.690
  23140850.633   -14683306.39043 -11435968.61942  23140851.795    23140848.439
  21424016.009   -20694914.19043 -16095652.63842  21424017.555    21424014.265
  20922339.113   -12410442.63744  -9656213.72642  20922339.745    20922336.872
  21795584.949    15618382.40243  12175213.06742  21795585.885    21795582.854
 03 12 24  1 26 30.0000000  0  7G30G10G24G21G 6G17G 5
  20289935.618   -22827665.77444 -17779706.62542  20289937.465    20289933.329
  21036970.380   -19270625.68344 -14978022.29042  21036971.136    21036968.137
  23200125.520    27337370.29343  21345109.59042  23200126.508    23200123.978
  23126304.070   -14759749.00843 -11495534.25542  23126305.194    23126301.792
  21413783.340   -20748687.09943 -16137553.57342  21413784.886    21413781.601
  20929192.217   -12374429.39444  -9628151.45042  20929192.802    20929189.946
  21812006.939    15704680.43743  12242458.26942  21812007.859    21812004.851
 03 12 24  1 27  0.0000000  0  7G30G10G24G21G 6G17G 5
  20294349.217   -22804472.14544 -17761633.66342  20294351.066    20294346.924
  21039852.347   -19255480.80844 -14966221.06442  21039853.104    21039850.094
  23215794.500    27419711.51443  21409271.60742  23215795.521    23215792.976
  23111797.188   -14835982.89743 -11554937.23442  23111798.370    23111794.971
  21403579.337   -20802309.28043 -16179337.05942  21403580.891    21403577.610
  20936096.685   -12338146.07944  -9599878.72642  20936097.267    20936094.438
  21828492.218    15791311.16043  12309962.71742  21828493.150    21828490.125
 03 12 24  1 27 30.0000000  0  7G30G10G24G21G 6G17G 5
  20298873.538   -22780696.65144 -17743107.30342  20298875.387    20298871.248
  21042854.199   -19239705.81144 -14953928.83642  21042854.956    21042851.940
  23231470.074    27502087.20643  21473460.47142  23231471.081    23231468.522
  23097330.135   -14912007.52243 -11614177.14642  23097331.306    23097327.938
  21393404.243   -20855779.56843 -16221002.18842  21393405.817    21393402.519
  20943052.218   -12301594.36644  -9571396.86642  20943052.817    20943049.977
  21845040.443    15878272.66343  12377724.90742  21845041.344    21845038.376
 03 12 24  1 28  0.0000000  0  7G30G10G24G21G 6G17G 5
  20303508.778   -22756338.21944 -17724126.70342  20303510.635    20303506.501
  21045976.198   -19223299.53944 -14941144.70642  21045976.950    21045973.913
  23247152.271    27584497.60443  21537676.37942  23247153.247    23247150.643
  23082903.307   -14987821.06143 -11673252.59542  23082904.499    23082901.015
  21383258.664   -20909094.81743 -16262546.50342  21383260.231    21383256.940
  20950058.923   -12264773.82544  -9542705.52742  20950059.522    20950056.678
  21861651.510    15965564.53043  12445744.52542  21861652.441    21861649.466
 03 12 24  1 28 30.0000000  0  7G30G10G24G21G 6G17G 5
  20308255.403   -22731394.52844 -17704690.05742  20308257.256    20308253.112
  21049218.733   -19206259.80144 -14927866.96342  21049219.477    21049216.443
  23262841.333    27666944.30643  21601920.60142  23262842.340    23262839.673
  23068517.250   -15063419.89043 -11732160.71642  23068518.488    23068515.070
  21373143.375   -20962250.82543 -16303966.73842  21373144.943    21373141.638
  20957117.084   -12227682.91244  -9513803.50942  20957117.682    20957114.846
  21878325.529    16053187.01343  12514021.76742  21878326.440    21878323.487
 03 12 24  1 29  0.0000000  0  7G30G10G24G21G 6G17G 5
  20313112.502   -22705870.33344 -17684801.07242  20313114.352    20313110.218
  21052580.894   -19188591.39744 -14914099.35042  21052581.648    21052578.617
  23278536.307    27749421.99843  21666188.95842  23278537.270    23278534.639
  23054171.344   -15138807.73843 -11790904.43242  23054172.613    23054169.169
  21363057.867   -21015250.45543 -16345265.11742  21363059.407    21363056.099
  20964225.660   -12190327.06744  -9484695.04842  20964226.261    20964223.433
  21895061.253    16141133.68043  12582551.62242  21895062.126    21895059.189
 03 12 24  1 29 30.0000000  0  7G30G10G24G21G 6G17G 5
  20318079.900   -22679766.48344 -17664460.40542  20318081.752    20318077.588
  21056062.430   -19170295.59844 -14899842.85542  21056063.202    21056060.173
  23294236.917    27831929.14443  21730480.26642  23294237.873    23294235.250
  23039865.742   -15213984.14943 -11849483.40842  23039867.005    23039863.428
  21353002.268   -21068092.86343 -16386440.98442  21353003.807    21353000.491
  20971384.298   -12152708.11844  -9455381.57142  20971384.894    20971382.066
  21911858.217    16229402.31043  12651332.35242  21911859.087    21911856.177
 03 12 24  1 30  0.0000000  0  7G30G10G24G21G 6G17G 5
  20323157.570   -22653083.02944 -17643668.10042  20323159.423    20323155.289
  21059663.397   -19151372.30644 -14885097.40842  21059664.153    21059661.126
  23309942.951    27914465.07543  21794794.01942  23309943.892    23309941.307
  23025600.368   -15288948.47143 -11907897.10142  23025601.659    23025598.158
  21342976.945   -21120776.00143 -16427492.74842  21342978.495    21342975.170
  20978592.936   -12114826.54344  -9425863.45342  20978593.514    20978590.681
  21928716.086    16317991.00743  12720362.47842  21928716.959    21928714.072
 03 12 24  1 30 30.0000000  0  7G30G10G24G21G 6G17G 5
  20328345.471   -22625820.47144 -17622424.54442  20328347.329    20328343.185
  21063383.692   -19131821.92644 -14869863.31842  21063384.451    21063381.400
  23325654.364    27997029.07543  21859129.62842  23325655.252    23325652.681
  23011375.753   -15363699.37843 -11966144.49842  23011376.976    23011373.534
  21332982.265   -21173298.34543 -16468419.21442  21332983.792    21332980.456
  20985851.305   -12076683.52844  -9396141.60942  20985851.884    20985849.046
  21945634.426    16406897.50043  12789640.25042  21945635.326    21945632.431
 03 12 24  1 31  0.0000000  0  7G30G10G24G21G 6G17G 5
  20333642.981   -22597981.80644 -17600732.07542  20333644.823    20333640.716
  21067222.710   -19111647.60844 -14854143.04242  21067223.473    21067220.439
  23341370.409    28079617.65443  21923484.40142  23341371.281    23341368.716
  22997191.342   -15438238.84143 -12024227.14442  22997192.550    22997188.967
  21323017.984   -21225660.75243 -16509221.05642  21323019.541    21323016.203
  20993158.731   -12038282.65444  -9366218.83542  20993159.317    20993156.484
  21962612.443    16496117.53443  12859162.33542  21962613.355    21962610.477
 03 12 24  1 31 30.0000000  0  7G30G10G24G21G 6G17G 5
  20339050.972   -22569562.68244 -17578587.30042  20339052.803    20339048.680
  21071181.303   -19090844.92544 -14837933.13342  21071182.069    21071179.015
  23357091.806    28162234.37843  21987861.10042  23357092.668    23357090.103
  22983048.160   -15512561.48643 -12082140.82142  22983049.378    22983045.811
  21313085.365   -21277856.85643 -16549893.30942  21313086.931    21313083.590
  21000515.921   -11999620.32343  -9336092.32742  21000516.494    21000513.659
  21979650.567    16585653.52143  12928930.61442  21979651.484    21979648.649
 03 12 24  1 32  0.0000000  0  7G30G10G24G21G 6G17G 5
  20344568.389   -22540568.44744 -17555994.39042  20344570.210    20344566.085
  21075258.461   -19069419.20444 -14821237.74442  21075259.222    21075256.152
  23372817.511    28244873.69143  22052255.40042  23372818.355    23372815.804
  22968945.503   -15586671.52843 -12139888.84242  22968946.728    22968943.110
  21303183.801   -21329889.80943 -16590438.43342  21303185.360    21303182.024
  21007921.730   -11960702.44943  -9305766.69742  21007922.297    21007919.471
  21996747.625    16675498.84943  12998939.94442  21996748.507    21996745.653
 03 12 24  1 32 30.0000000  0  7G30G10G24G21G 6G17G 5
  20350195.557   -22510997.47944 -17532952.07442  20350197.395    20350193.269
  21079454.445   -19047369.09143 -14804055.81642  21079455.197    21079452.123
  23388547.824    28327536.95243  22116668.35942  23388548.628    23388546.055
  22954883.764   -15660566.19243 -12197469.03742  22954884.965    22954881.272
  21293313.974   -21381755.96843 -16630853.58142  21293315.524    21293312.200
  21015376.371   -11921527.98243  -9275241.11942  21015376.926    21015374.097
  22013903.430    16765653.12843  13069190.01442  22013904.320    22013901.473
 03 12 24  1 33  0.0000000  0  7G30G10G24G21G 6G17G 5
  20355932.267   -22480850.85144 -17509461.19242  20355934.109    20355929.986
  21083769.009   -19024695.86843 -14786388.34642  21083769.769    21083766.670
  23404282.267    28410222.27343  22181098.50842  23404283.113    23404280.501
  22940863.181   -15734245.01943 -12254881.04142  22940864.363    22940860.630
  21283476.083   -21433454.31943 -16671137.97542  21283477.640    21283474.277
  21022879.507   -11882098.65043  -9244516.94542  21022880.067    21022877.243
  22031117.512    16856113.75443  13139678.79442  22031118.421    22031115.582
 03 12 24  1 33 30.0000000  0  7G30G10G24G21G 6G17G 5
  20361777.755   -22450132.60444 -17485524.89342  20361779.607    20361775.477
  21088201.381   -19001403.52443 -14768238.44542  21088202.134    21088199.056
  23420020.165    28492925.78043  22245542.83942  23420021.052    23420018.390
  22926883.057   -15807710.73743 -12312126.96942  22926884.236    22926880.549
  21273669.793   -21484986.56043 -16711292.93142  21273671.351    21273667.981
  21030430.324   -11842418.70343  -9213597.48742  21030430.868    21030428.064
  22048388.923    16946875.59843  13210402.29342  22048389.856    22048387.004
 03 12 24  1 34  0.0000000  0  7G30G10G24G21G 6G17G 5
  20367732.144   -22418842.00844 -17461142.61242  20367734.010    20367729.864
  21092751.690   -18977491.30743 -14749605.52742  21092752.454    21092749.379
  23435761.625    28575647.70843  22310001.50542  23435762.482    23435759.803
  22912943.868   -15880961.50943 -12369205.44342  22912945.054    22912941.236
  21263895.680   -21536349.73143 -16751316.14142  21263897.230    21263893.856
  21038028.824   -11802488.15543  -9182482.75942  21038029.368    21038026.568
  22065717.510    17037937.68043  13281359.74142  22065718.426    22065715.550
 03 12 24  1 34 30.0000000  0  7G30G10G24G21G 6G17G 5
  20373795.789   -22386977.45744 -17436313.08942  20373797.610    20373793.502
  21097420.212   -18952957.94543 -14730488.60142  21097420.978    21097417.892
  23451506.770    28658389.27743  22374475.47442  23451507.657    23451504.984
  22899046.069   -15953994.41143 -12426114.12842  22899047.296    22899043.505
  21254154.462   -21587540.19843 -16791204.78442  21254155.997    21254152.607
  21045675.217   -11762306.03843  -9151172.00142  21045675.767    21045672.955
  22083103.210    17129300.09243  13352551.21242  22083104.124    22083101.256
 03 12 24  1 35  0.0000000  0  7G30G10G24G21G 6G17G 5
  20379968.359   -22354540.39644 -17411037.45542  20379970.179    20379966.078
  21102206.705   -18927804.54543 -14710888.52942  21102207.471    21102204.415
  23467255.339    28741148.67243  22438963.34442  23467256.247    23467253.561
  22885189.728   -16026809.45543 -12482853.04142  22885190.947    22885187.246
  21244446.234   -21638557.05243 -16830958.14342  21244447.765    21244444.380
  21053369.204   -11721873.83043  -9119666.36442  21053369.740    21053366.915
  22100545.495    17220959.96943  13423974.47342  22100546.424    22100543.570
 03 12 24  1 35 30.0000000  0  7G30G10G24G21G 6G17G 5
  20386248.995   -22321535.30044 -17385319.19842  20386250.834    20386246.740
  21107110.336   -18902035.74443 -14690808.92642  21107111.099    21107108.029
  23483006.502    28823921.52743  22503461.69842  23483007.395    23483004.654
  22871374.372   -16099409.62743 -12539424.55142  22871375.575    22871371.759
  21234770.653   -21689402.33043 -16870577.80642  21234772.210    21234768.818
  21061109.825   -11681196.55743  -9087969.77142  21061110.369    21061107.505
  22118043.240    17312911.07443  13495624.66742  22118044.149    22118041.298
 03 12 24  1 36  0.0000000  0  7G30G10G24G21G 6G17G 5
  20392638.077   -22287960.50244 -17359157.01342  20392639.891    20392635.814
  21112131.390   -18875650.06644 -14670248.63742  21112132.128    21112129.028
  23498760.441    28906709.20843  22567971.59242  23498761.378    23498758.604
  22857600.259   -16171792.39343 -12595826.63642  22857601.514    22857597.706
  21225128.483   -21740072.13043 -16910060.73142  21225130.033    21225126.643
  21068897.323   -11640272.99843  -9056081.26242  21068897.855    21068894.967
  22135596.452    17405153.75543  13567502.06542  22135597.369    22135594.549
 03 12 24  1 36 30.0000000  0  7G30G10G24G21G 6G17G 5
  20399134.903   -22253819.28344 -17332553.46342  20399136.740    20399132.671
  21117269.172   -18848650.77943 -14649210.21342  21117269.910    21117266.784
  23514516.673    28989508.64643  22632490.67042  23514517.581    23514514.805
  22843867.370   -16243959.19343 -12652060.44442  22843868.588    22843864.764
  21215519.516   -21790567.41443 -16949407.67442  21215521.073    21215517.678
  21076730.927   -11599107.01743  -9024003.85642  21076731.470    21076728.568
  22153204.266    17497683.52443  13639603.16942  22153205.201    22153202.376
 03 12 24  1 37  0.0000000  0  7G30G10G24G21G 6G17G 5
  20405739.475   -22219112.02944 -17305508.85042  20405741.298    20405737.250
  21122523.582   -18821038.45643 -14627694.09642  21122524.344    21122521.196
  23530274.976    29072319.14643  22697018.35342  23530275.848    23530273.075
  22830175.639   -16315909.44743 -12708125.52042  22830176.849    22830172.953
  21205944.191   -21840886.07143 -16988616.98442  21205945.740    21205942.328
  21084610.586   -11557699.03443  -8991737.87342  21084611.134    21084608.219
  22170866.422    17590498.62343  13711926.60042  22170867.341    22170864.547
 03 12 24  1 37 30.0000000  0  7G30G10G24G21G 6G17G 5
  20412451.998   -22183837.60544 -17278022.28642  20412453.812    20412449.754
  21127894.846   -18792812.00743 -14605699.44242  21127895.637    21127892.478
  23546035.576    29155141.96343  22761555.63742  23546036.457    23546033.731
  22816525.721   -16387640.30643 -12764019.64342  22816526.934    22816522.962
  21196403.132   -21891024.49843 -17027685.86242  21196404.685    21196401.246
  21092536.463   -11516048.13043  -8959282.60742  21092537.026    21092534.105
  22188582.775    17683598.56443  13784471.98642  22188583.686    22188580.890
 03 12 24  1 38  0.0000000  0  7G30G10G24G21G 6G17G 5
  20419272.236   -22147996.99844 -17250094.53742  20419274.077    20419270.012
  21133382.763   -18763972.62043 -14583227.17342  21133383.561    21133380.410
  23561798.333    29237975.88943  22826101.58642  23561799.207    23561796.447
  22802917.591   -16459151.14943 -12819742.31742  22802918.841    22802914.899
  21186896.654   -21940981.32043 -17066613.22442  21186898.175    21186894.748
  21100508.315   -11474155.73043  -8926639.15742  21100508.874    21100505.937
  22206352.848    17776980.70643  13857237.28142  22206353.768    22206350.935
 03 12 24  1 38 30.0000000  0  7G30G10G24G21G 6G17G 5
  20426199.035   -22111596.39544 -17221730.43242  20426200.876    20426196.797
  21138986.150   -18734526.67543 -14560282.26442  21138986.920    21138983.766
  23577561.954    29320814.58843  22890651.24942  23577562.862    23577560.124
  22789350.409   -16530447.12743 -12875297.58042  22789351.610    22789347.575
  21177423.962   -21990760.40043 -17105402.09042  21177425.499    21177422.089
  21108524.852   -11432028.51343  -8893812.73642  21108525.400    21108522.449
  22224175.216    17870637.79843  13930216.80942  22224176.142    22224173.310
 03 12 24  1 39  0.0000000  0  7G30G10G24G21G 6G17G 5
  20433233.572   -22074629.49344 -17192925.05242  20433235.432    20433231.380
  21144706.169   -18704467.77943 -14536859.73142  21144706.930    21144703.747
  23593327.726    29403664.41643  22955209.59242  23593328.634    23593325.893
  22775825.558   -16601520.63743 -12930679.49242  22775826.779    22775822.695
  21167986.857   -22040352.66843 -17144045.39242  21167988.354    21167984.957
  21116587.256   -11389660.12543  -8860798.38842  21116587.815    21116584.878
  22242050.914    17964575.01843  14003414.62242  22242051.805    22242048.967
 03 12 24  1 39 30.0000000  0  7G30G10G24G21G 6G17G 5
  20440374.314   -22037104.71344 -17163684.96342  20440376.165    20440372.093
  21150541.216   -18673804.44943 -14512966.20642  21150541.963    21150538.764
  23609094.015    29486517.01743  23019770.08342  23609094.917    23609092.227
  22762341.775   -16672378.05643 -12985893.00642  22762343.006    22762338.966
  21158584.158   -22089764.06643 -17182547.75042  21158585.660    21158582.234
  21124693.924   -11347059.26843  -8827602.89942  21124694.480    21124691.514
  22259978.028    18058782.45443  14076822.99942  22259978.902    22259976.056
 03 12 24  1 40  0.0000000  0  7G30G10G24G21G 6G17G 5
  20447621.990   -21999017.96544 -17134006.97742  20447623.821    20447619.760
  21156492.013   -18642532.76343 -14488598.63942  21156492.755    21156489.549
  23624861.657    29569376.89443  23084336.25942  23624862.623    23624859.891
  22748900.237   -16743013.95043 -13040933.93942  22748901.436    22748897.277
  21149217.189   -22138987.78143 -17220903.86742  21149218.669    21149215.240
  21132845.505   -11304222.27043  -8794223.40242  21132846.080    21132843.118
  22277957.047    18153262.65343  14150443.91442  22277957.929    22277955.063
 03 12 24  1 40 30.0000000  0  7G30G10G24G21G 6G17G 5
  20454975.755   -21960373.73744 -17103894.59142  20454977.598    20454973.519
  21162557.722   -18610657.15543 -14463760.48342  21162558.460    21162555.257
  23640629.946    29652239.64243  23148904.67142  23640630.895    23640628.120
  22735500.186   -16813431.39243 -13095804.63142  22735501.406    22735497.326
  21139885.518   -22188025.92743 -17259115.38442  21139887.012    21139883.557
  21141041.255   -11261153.34643  -8760663.18642  21141041.823    21141038.839
  22295986.823    18248009.92443  14224272.93542  22295987.749    22295984.881
 03 12 24  1 41  0.0000000  0  7G30G10G24G21G 6G17G 5
  20462435.591   -21921172.04844 -17073347.81642  20462437.412    20462433.343
  21168738.320   -18578177.79343 -14438451.86642  21168739.066    21168735.858
  23656398.674    29735105.17043  23213475.24742  23656399.652    23656396.843
  22722142.020   -16883629.04243 -13150504.06442  22722143.222    22722139.122
  21130589.726   -22236875.68043 -17297180.09942  21130591.192    21130587.736
  21149281.046   -11217852.85943  -8726922.52842  21149281.625    21149278.610
  22314067.255    18343023.14943  14298309.19742  22314068.183    22314065.295
 03 12 24  1 41 30.0000000  0  7G30G10G24G21G 6G17G 5
  20470001.168   -21881414.78144 -17042368.12442  20470002.985    20469998.900
  21175033.377   -18545096.84643 -14412674.48442  21175034.113    21175030.943
  23672167.715    29817971.88343  23278046.74942  23672168.645    23672165.843
  22708825.573   -16953607.05343 -13205032.36842  22708826.769    22708822.628
  21121329.902   -22285536.31543 -17335097.45542  21121331.370    21121327.890
  21157564.516   -11174322.95943  -8693003.11242  21157565.100    21157562.053
  22332197.654    18438298.93843  14372550.04642  22332198.578    22332195.693
 03 12 24  1 42  0.0000000  0  7G30G10G24G21G 6G17G 5
  20477672.727   -21841100.44144 -17010954.34942  20477674.538    20477670.456
  21181443.201   -18511412.79843 -14386427.15242  21181443.961    21181440.775
  23687937.209    29900841.38843  23342620.41742  23687938.239    23687935.339
  22695551.623   -17023362.22743 -13259387.01442  22695552.798    22695548.743
  21112106.830   -22334003.64043 -17372864.17942  21112108.331    21112104.837
  21165891.938   -11130562.05443  -8658903.69042  21165892.532    21165889.465
  22350378.049    18533837.73743  14446995.84442  22350379.006    22350376.142
 03 12 24  1 42 30.0000000  0  7G30G10G24G21G 6G17G 5
  20485449.165   -21800235.00944 -16979111.14742  20485450.973    20485446.891
  21187966.642   -18477131.74643 -14359714.61742  21187967.405    21187964.246
  23703706.129    29983708.02143  23407191.86642  23703707.209    23703704.333
  22682319.147   -17092899.14643 -13313571.59942  22682320.299    22682316.214
  21102919.927   -22382281.10044 -17410482.95142  21102921.429    21102917.917
  21174262.150   -11086576.25843  -8624629.02542  21174262.734    21174259.665
  22368607.223    18629632.58843  14521641.16442  22368608.196    22368605.341
 03 12 24  1 43  0.0000000  0  7G30G10G24G21G 6G17G 5
  20493330.610   -21758817.84244 -16946838.02742  20493332.424    20493328.304
  21194603.754   -18442253.30543 -14332536.58442  21194604.539    21194601.374
  23719474.781    30066572.95343  23471761.97042  23719475.833    23719473.014
  22669128.628   -17162215.79243 -13367584.55042  22669129.748    22669125.676
  21093769.781   -22430365.35644 -17447951.17842  21093771.297    21093767.756
  21182675.260   -11042365.10243  -8590178.76142  21182675.832    21182672.753
  22386884.942    18725682.62343  14596485.32842  22386885.908    22386883.070
 03 12 24  1 43 30.0000000  0  7G30G10G24G21G 6G17G 5
  20501316.667   -21716850.68044 -16914136.33942  20501318.502    20501314.396
  21201354.312   -18406778.87543 -14304894.14642  21201355.084    21201351.924
  23735242.822    30149434.69743  23536329.61342  23735243.844    23735241.062
  22655979.994   -17231312.16343 -13421425.82942  22655981.125    22655977.188
  21084656.666   -22478255.19844 -17485267.90942  21084658.155    21084654.591
  21191130.960   -10997929.93643  -8555553.94242  21191131.543    21191128.461
  22405210.720    18821985.07443  14671526.17542  22405211.643    22405208.856
 03 12 24  1 44  0.0000000  0  7G30G10G24G21G 6G17G 5
  20509407.994   -21674330.36244 -16881003.61942  20509409.839    20509405.736
  21208218.817   -18370705.64843 -14276785.10942  21208219.564    21208216.388
  23751010.880    30232296.44343  23600897.23042  23751011.840    23751009.095
  22642874.277   -17300183.15543 -13475091.52242  22642875.415    22642871.341
  21075581.648   -22525944.79444 -17522428.60742  21075583.115    21075579.533
  21199629.801   -10953267.98043  -8520752.40042  21199630.411    21199627.339
  22423584.889    18918541.89243  14746765.23842  22423585.817    22423583.014
 03 12 24  1 44 30.0000000  0  7G30G10G24G21G 6G17G 5
  20517603.054   -21631265.03144 -16847446.21242  20517604.893    20517600.797
  21215195.668   -18334041.96943 -14248215.97942  21215196.423    21215193.223
  23766777.506    30315150.71743  23665459.03442  23766778.566    23766775.669
  22629810.133   -17368835.53043 -13528586.84942  22629811.271    22629807.251
  21066543.721   -22573439.31944 -17559437.30142  21066545.207    21066541.605
  21208170.332   -10908387.16443  -8485780.31842  21208170.921    21208167.867
  22442005.725    19015343.75243  14822195.23942  22442006.620    22442003.822
 03 12 24  1 45  0.0000000  0  7G30G10G24G21G 6G17G 5
  20525902.374   -21587651.79544 -16813461.86942  20525904.223    20525900.103
  21222285.386   -18296785.17743 -14219184.68442  21222286.130    21222282.906
  23782543.340    30398000.98143  23730017.72142  23782544.392    23782541.510
  22616788.508   -17437264.73143 -13581908.26742  22616789.609    22616785.642
  21057544.021   -22620733.04044 -17596289.52542  21057545.496    21057541.874
  21216753.040   -10863284.72643  -8450635.54542  21216753.609    21216750.559
  22460473.449    19112392.27043  14897817.44042  22460474.330    22460471.581
 03 12 24  1 45 30.0000000  0  7G30G10G24G21G 6G17G 5
  20534304.981   -21543495.77744 -16779054.57842  20534306.829    20534302.717
  21229487.022   -18258940.28843 -14189695.13142  21229487.763    21229484.519
  23798307.488    30480842.13343  23794569.30142  23798308.531    23798305.602
  22603808.735   -17505473.99243 -13635058.32742  22603809.826    22603805.724
  21048582.102   -22667828.17444 -17632987.00342  21048583.565    21048579.949
  21225377.033   -10817965.36543  -8415321.73742  21225377.577    21225374.536
  22478986.924    19209681.40143  14973627.13642  22478987.843    22478985.057
 03 12 24  1 46  0.0000000  0  7G30G10G24G21G 6G17G 5
  20542810.779   -21498797.51044 -16744224.75642  20542812.616    20542808.515
  21236800.402   -18220508.18643 -14159748.00542  21236801.149    21236797.901
  23814069.913    30563674.09643  23859113.71942  23814070.850    23814067.973
  22590870.928   -17573462.45043 -13688036.30242  22590872.031    22590868.016
  21039658.351   -22714722.51944 -17669528.01742  21039659.851    21039656.231
  21234042.148   -10772429.65243  -8379839.34242  21234042.702    21234039.677
  22497545.944    19307209.52243  15049623.05442  22497546.849    22497544.101
 03 12 24  1 46 30.0000000  0  7G30G10G24G21G 6G17G 5
  20551420.093   -21453555.34844 -16708971.11942  20551421.913    20551417.808
  21244225.839   -18181487.12543 -14129341.95742  21244226.594    21244223.337
  23829831.069    30646499.69743  23923653.18342  23829832.018    23829829.144
  22577975.790   -17641226.58943 -13740839.49342  22577976.926    22577972.863
  21030773.707   -22761411.46044 -17705908.97842  21030775.208    21030771.588
  21242748.825   -10726675.76743  -8344186.94542  21242749.376    21242746.344
  22516150.511    19404976.98843  15125805.48642  22516151.423    22516148.642
 03 12 24  1 47  0.0000000  0  7G30G10G24G21G 6G17G 5
  20560132.577   -21407770.91444 -16673294.93242  20560134.410    20560130.317
  21251763.025   -18141878.77543 -14098478.27642  21251763.780    21251760.525
  23845590.739    30729317.52243  23988186.58342  23845591.722    23845588.849
  22565123.308   -17708766.53543 -13793467.98842  22565124.413    22565120.387
  21021928.366   -22807893.71744 -17742128.88742  21021929.887    21021926.276
  21251496.739   -10680705.14043  -8308365.64742  21251497.285    21251494.271
  22534800.075    19502981.38443  15202172.52742  22534801.010    22534798.300
 03 12 24  1 47 30.0000000  0  7G30G10G24G21G 6G17G 5
  20568947.539   -21361448.08344 -16637199.21342  20568949.371    20568945.247
  21259411.132   -18101687.46743 -14067160.34642  21259411.919    21259408.644
  23861348.265    30812123.96243  24052711.13042  23861349.191    23861346.323
  22552313.131   -17776084.17843 -13845923.25542  22552314.231    22552310.299
  21013122.193   -22854170.21644 -17778188.46242  21013123.732    21013120.145
  21260285.119   -10634521.80643  -8272378.61042  21260285.675    21260282.651
  22553493.783    19601217.47543  15278720.11842  22553494.710    22553492.024
 03 12 24  1 48  0.0000000  0  7G30G10G24G21G 6G17G 5
  20577864.251   -21314590.52444 -16600686.82242  20577866.071    20577861.942
  21267169.498   -18060916.82543 -14035390.98242  21267170.290    21267167.003
  23877103.065    30894916.14643  24117224.53742  23877103.985    23877101.096
  22539544.886   -17843181.47443 -13898206.82942  22539545.986    22539542.027
  21004355.098   -22900241.47044 -17814088.10442  21004356.628    21004353.054
  21269113.391   -10588128.80443  -8236228.18942  21269113.956    21269110.934
  22572230.720    19699680.65143  15355444.66442  22572231.671    22572228.924
 03 12 24  1 48 30.0000000  0  8G30G10G24G21G 6G17G 5G29
  20586880.526   -21267209.70944 -16563766.70442  20586882.350    20586878.190
  21275035.923   -18019578.42843 -14003179.21842  21275036.704    21275033.413
  23892853.169    30977683.45743  24181718.58942  23892854.110    23892851.193
  22526816.749   -17910068.12243 -13950326.26242  22526817.839    22526813.928
  20995625.453   -22946115.95044 -17849834.41742  20995626.997    20995623.408
  21277979.401   -10541537.38443  -8199923.15842  21277979.972    21277976.961
  22591008.517    19798358.60243  15432336.55642  22591009.463    22591006.731
  24590604.417    -5303161.01253  -4106475.17552  24590606.137    24590603.496
 03 12 24  1 49  0.0000000  0  8G30G10G24G21G 6G17G 5G29
  20596001.202   -21219280.06844 -16526418.92742  20596003.049    20595998.873
  21283015.187   -17977646.93643 -13970505.30442  21283015.972    21283012.684
  23908603.508    31060452.03743  24246213.62642  23908604.469    23908601.436
  22514133.873   -17976716.75943 -14002260.22942  22514134.981    22514131.080
  20986938.691   -22991765.15344 -17885405.19142  20986940.209    20986936.622
  21286888.056   -10494722.05243  -8163443.64742  21286888.619    21286885.599
  22609831.837    19897276.04243  15509415.07042  22609832.824    22609830.103
  24577268.608    -5373241.23543  -4161083.07242  24577270.454    24577267.654
 03 12 24  1 49 30.0000000  0  8G30G10G24G21G 6G17G 5G29
  20605222.859   -21170819.82644 -16488657.69642  20605224.723    20605220.548
  21291103.881   -17935140.50743 -13937383.38442  21291104.672    21291101.359
  23924350.762    31143204.24543  24310695.90542  23924351.685    23924348.621
  22501493.238   -18043144.02143 -14054021.71142  22501494.305    22501490.297
  20978291.964   -23037204.04344 -17920812.08242  20978293.462    20978289.864
  21295835.904   -10447700.65443  -8126803.56642  21295836.478    21295833.445
  22628697.036    19996413.34843  15586664.90842  22628698.020    22628695.318
  24563951.573    -5443222.44743  -4215613.81742  24563953.343    24563950.539
 03 12 24  1 50  0.0000000  0  8G30G10G24G21G 6G17G 5G29
  20614545.436   -21121829.26344 -16450483.22942  20614547.283    20614543.120
  21299301.917   -17892059.44943 -13903813.70442  21299302.695    21299299.388
  23940094.874    31225940.38543  24375165.65842  23940095.762    23940092.736
  22488894.979   -18109348.13143 -14105609.28242  22488896.042    22488892.078
  20969685.827   -23082429.56944 -17956052.71742  20969687.322    20969683.710
  21304823.044   -10400472.87243  -8090002.67142  21304823.588    21304820.560
  22647604.015    20095770.00943  15664085.67042  22647604.965    22647602.248
  24550654.331    -5513100.05743  -4270063.82942  24550656.046    24550653.225
 03 12 24  1 50 30.0000000  0  8G30G10G24G21G 6G17G 5G29
  20623969.290   -21072306.39844 -16411893.97842  20623971.147    20623966.998
  21307609.576   -17848402.21443 -13869795.05142  21307610.356    21307607.053
  23955836.487    31308663.39443  24439625.17142  23955837.359    23955834.390
  22476339.878   -18175325.49343 -14157020.19742  22476340.972    22476336.912
  20961121.185   -23127436.96844 -17991123.38142  20961122.679    20961119.066
  21313849.834   -10353036.60143  -8053039.31642  21313850.398    21313847.371
  22666552.808    20195346.54943  15741677.76942  22666553.744    22666551.048
  24537377.999    -5582867.32843  -4324427.88042  24537379.864    24537376.791
 03 12 24  1 51  0.0000000  0  8G30G10G24G21G 6G17G 5G29
  20633493.154   -21022258.27444 -16372895.43642  20633494.997    20633490.830
  21316025.491   -17804176.03343 -13835333.06842  21316026.266    21316023.011
  23971574.448    31391366.89443  24504069.49442  23971575.336    23971572.329
  22463826.876   -18241081.57143 -14208258.66542  22463827.995    22463823.957
  20952597.285   -23172230.17144 -18026027.14442  20952598.789    20952595.152
  21322915.040   -10305398.42743  -8015918.63442  21322915.638    21322912.578
  22685541.903    20295134.85243  15819434.87942  22685542.835    22685540.116
  24524122.196    -5652526.87843  -4378707.96542  24524123.984    24524121.021
 03 12 24  1 51 30.0000000  0  8G30G10G24G21G 6G17G 5G29
  20643116.987   -20971684.57044 -16333487.35142  20643118.835    20643114.690
  21324549.803   -17759380.39043 -13800427.34442  21324550.570    21324547.305
  23987308.897    31474052.12143  24568499.57642  23987309.766    23987306.813
  22451356.538   -18306613.54243 -14259322.50842  22451357.666    22451353.641
  20944114.843   -23216805.54144 -18060761.16142  20944116.354    20944112.693
  21332018.819   -10257557.70343  -7978640.12142  21332019.386    21332016.336
  22704571.274    20395134.64943  15897356.79342  22704572.191    22704569.466
  24510887.833    -5722073.53243  -4432900.11042  24510889.725    24510886.648
 03 12 24  1 52  0.0000000  0  8G30G10G24G21G 6G17G 5G29
  20652840.584   -20920586.62044 -16293670.76342  20652842.463    20652838.293
  21333182.182   -17714016.89043 -13765079.14142  21333182.949    21333179.666
  24003039.767    31556718.48743  24632914.95142  24003040.607    24003037.693
  22438928.845   -18371921.35943 -14310211.70042  22438929.975    22438925.919
  20935674.200   -23261161.26944 -18095324.03442  20935675.720    20935672.026
  21341160.930   -10209515.50443  -7941204.62242  21341161.519    21341158.433
  22723640.487    20495343.82743  15975441.85742  22723641.393    22723638.655
  24497675.562    -5791503.88243  -4487001.60442  24497677.383    24497674.387
 03 12 24  1 52 30.0000000  0  8G30G10G24G21G 6G17G 5G29
  20662663.909   -20868964.57444 -16253445.78942  20662665.792    20662661.629
  21341922.523   -17668085.94243 -13729288.76642  21341923.285    21341920.026
  24018767.145    31639366.36743  24697315.92042  24018767.911    24018765.060
  22426544.183   -18437002.77443 -14360924.45342  22426545.327    22426541.376
  20927275.944   -23305294.26944 -18129713.34842  20927277.447    20927273.762
  21350341.439   -10161271.51143  -7903611.87142  21350342.044    21350338.930
  22742749.259    20595760.95143  16053688.96042  22742750.168    22742747.415
  24484486.310    -5860813.47943  -4541009.02242  24484488.172    24484485.087
 03 12 24  1 53  0.0000000  0  8G30G10G24G21G 6G17G 5G29
  20672585.951   -20816824.08544 -16212816.83142  20672587.808    20672583.644
  21350769.769   -17621593.18443 -13693060.61742  21350770.543    21350767.290
  24034490.108    31721991.23143  24761698.95842  24034490.881    24034488.114
  22414201.945   -18501861.75943 -14411463.91042  22414203.056    22414199.006
  20918919.628   -23349206.77344 -18163930.85042  20918921.139    20918917.471
  21359559.430   -10112830.62143  -7865865.70142  21359560.013    21359556.908
  22761896.396    20696379.68643  16132093.16442  22761897.318    22761894.527
  24471319.904    -5930003.17943  -4594923.01142  24471321.702    24471318.501
 03 12 24  1 53 30.0000000  0  8G30G10G24G21G 6G17G 5G29
  20682606.404   -20764166.23644 -16171784.73742  20682608.281    20682604.083
  21359723.711   -17574539.88643 -13656395.68242  21359724.462    21359721.215
  24050208.780    31804593.33643  24826064.25642  24050209.630    24050206.778
  22401902.042   -18566497.64443 -14461829.50442  22401903.207    22401899.231
  20910605.676   -23392896.79144 -18197974.98842  20910607.166    20910603.504
  21368814.689   -10064193.85943  -7827966.90542  21368815.249    21368812.155
  22781081.533    20797198.08843  16210652.94942  22781082.443    22781079.633
  24458177.098    -5999069.08443  -4648740.53742  24458178.878    24458175.573
 03 12 24  1 54  0.0000000  0  8G30G10G24G21G 6G17G 5G29
  20692725.784   -20710988.61444 -16130347.62542  20692727.653    20692723.439
  21368784.706   -17526923.91643 -13619292.30542  21368785.459    21368782.197
  24065923.648    31887175.76943  24890414.22942  24065924.437    24065921.669
  22389645.485   -18630906.31643 -14512018.05542  22389646.664    22389642.606
  20902335.178   -23436358.44944 -18231841.18942  20902336.661    20902332.998
  21378107.838   -10015357.97643  -7789912.94942  21378108.379    21378105.311
  22800304.991    20898218.11643  16289369.84842  22800305.949    22800303.103
  24445059.115    -6068004.15443  -4702456.09742  24445060.877    24445057.685
 03 12 24  1 54 30.0000000  0  8G30G10G24G21G 6G17G 5G29
  20702942.875   -20657297.33444 -16088510.25942  20702944.753    20702940.556
  21377951.630   -17478751.28043 -13581755.16042  21377952.404    21377949.123
  24081633.866    31969733.46643  24954744.91942  24081634.609    24081631.805
  22377431.347   -18695091.88843 -14562032.75542  22377432.534    22377428.484
  20894107.606   -23479594.62244 -18265531.67842  20894109.078    20894105.404
  21387437.766    -9966328.73743  -7751708.32842  21387438.325    21387435.224
  22819565.483    20999432.51743  16368238.21542  22819566.418    22819563.579
  24431965.874    -6136809.49443  -4756070.61342  24431967.528    24431964.438
 03 12 24  1 55  0.0000000  0  8G30G10G24G21G 6G17G 5G29
  20713257.524   -20603093.36644 -16046273.39342  20713259.423    20713255.198
  21387224.344   -17430022.91443 -13543784.98342  21387225.102    21387221.794
  24097339.441    32052266.50343  25019056.40742  24097340.075    24097337.289
  22365260.010   -18759052.87843 -14611872.45942  22365261.190    22365257.124
  20885923.393   -23522602.74044 -18299044.46942  20885924.889    20885921.185
  21396804.472    -9917106.31843  -7713353.18042  21396805.022    21396801.933
  22838862.628    21100839.54843  16447256.66842  22838863.526    22838860.706
  24418897.993    -6205481.36643  -4809581.08342  24418899.704    24418896.588
 03 12 24  1 55 30.0000000  0  8G30G10G24G21G 6G17G 5G29
  20723669.539   -20548377.99844 -16003638.03842  20723671.410    20723667.173
  21396602.471   -17380740.35343 -13505382.97642  21396603.242    21396599.926
  24113040.197    32134774.47643  25083348.34442  24113040.871    24113038.036
  22353131.422   -18822788.79743 -14661536.77542  22353132.598    22353128.522
  20877782.916   -23565381.11244 -18332378.23742  20877784.396    20877780.680
  21406207.783    -9867691.62143  -7674848.19942  21406208.288    21406205.218
  22858196.012    21202437.32643  16526423.76442  22858196.927    22858194.155
  24405856.227    -6274015.88543  -4862984.54142  24405858.113    24405854.952
 03 12 24  1 56  0.0000000  0  8G30G10G24G21G 6G17G 5G29
  20734178.271   -20493154.06344 -15960606.39542  20734180.157    20734175.928
  21406085.461   -17330906.90243 -13466551.68742  21406086.235    21406082.909
  24128735.922    32217255.68643  25147619.44842  24128736.425    24128733.734
  22341045.499   -18886300.78643 -14711026.60942  22341046.672    22341042.579
  20869686.282   -23607929.20044 -18365532.56042  20869687.740    20869684.010
  21415647.203    -9818087.03043  -7636195.25942  21415647.710    21415644.646
  22877565.028    21304222.01843  16605736.51042  22877565.942    22877563.115
  24392840.938    -6342411.36443  -4916279.67342  24392842.730    24392839.798
 03 12 24  1 56 30.0000000  0  9G30G10G18G24G21G 6G17G 5G29
  20744782.262   -20437429.68644 -15917184.80042  20744784.152    20744779.933
  21415671.759   -17280530.58543 -13427297.39642  21415672.534    21415669.175
  24768001.176    -4698756.07453  -3460280.39852  24768002.914    24768000.186
  24144425.119    32299702.88343  25211864.03242  24144425.605    24144422.863
  22329000.953   -18949595.05243 -14760346.78842  22329002.159    22328998.033
  20861632.579   -23650251.50744 -18398510.95642  20861634.049    20861630.305
  21425121.343    -9768299.90943  -7597400.08542  21425121.862    21425118.798
  22896967.898    21406184.98043  16685188.15742  22896968.853    22896966.058
  24379851.492    -6410670.81243  -4969468.78942  24379853.334    24379850.355
 03 12 24  1 57  0.0000000  0  9G30G10G18G24G21G 6G17G 5G29
  20755483.695   -20381193.19944 -15873364.15842  20755485.595    20755481.385
  21425363.529   -17229599.89743 -13387611.12442  21425364.292    21425360.943
  24746865.040    -4809826.85443  -3546828.95442  24746866.804    24746864.145
  24160110.320    32382129.00443  25276092.20342  24160110.693    24160107.971
  22317000.589   -19012657.35643 -14809486.21142  22317001.787    22316997.656
  20853624.692   -23692332.98444 -18431301.68942  20853626.175    20853622.433
  21434632.559    -9718317.96843  -7558453.09742  21434633.102    21434630.019
  22916406.754    21508336.85443  16764787.01342  22916407.720    22916404.935
  24366891.127    -6478777.75743  -5022539.08742  24366892.982    24366889.951
 03 12 24  1 57 30.0000000  0  9G30G10G18G24G21G 6G17G 5G29
  20766281.129   -20324452.38444 -15829150.53342  20766283.014    20766278.799
  21435159.315   -17178122.70843 -13347499.00642  21435160.073    21435156.717
  24725733.625    -4920873.04643  -3633358.45442  24725735.246    24725732.236
  24175790.252    32464527.55843  25340298.88942  24175790.651    24175787.824
  22305043.265   -19075493.50943 -14858449.40642  22305044.428    22305040.289
  20845661.854   -23734177.85244 -18463908.04642  20845663.314    20845659.603
  21444179.532    -9668148.19743  -7519359.75142  21444180.052    21444176.992
  22935880.096    21610669.90843  16844527.05142  22935881.046    22935878.280
  24353959.253    -6546734.96643  -5075492.69642  24353961.087    24353958.132
 03 12 24  1 58  0.0000000  0  9G30G10G18G24G21G 6G17G 5G29
  20777174.537   -20267207.27044 -15784543.94842  20777176.401    20777172.176
  21445059.027   -17126099.36843 -13306961.32242  21445059.794    21445056.391
  24704607.996    -5031890.50543  -3719865.68442  24704609.526    24704606.240
  24191465.021    32546899.40543  25404484.75842  24191465.512    24191462.647
  22293129.252   -19138102.01043 -14907235.21642  22293130.406    22293126.216
  20837744.637   -23775782.85644 -18496327.50542  20837746.121    20837742.400
  21453762.385    -9617789.96143  -7480119.54842  21453762.906    21453759.820
  22955387.658    21713183.00343  16924407.36642  22955388.631    22955385.902
  24341056.764    -6614537.59343  -5128325.87142  24341058.505    24341055.648
 03 12 24  1 58 30.0000000  0  9G30G10G18G24G21G 6G17G 5G29
  20788162.420   -20209465.29444 -15739550.19742  20788164.334    20788160.095
  21455061.275   -17073537.24043 -13266003.79742  21455062.017    21455058.598
  24683486.679    -5142882.12043  -3806352.44342  24683488.214    24683485.373
  24207133.476    32629238.38543  25468645.03342  24207134.105    24207131.341
  22281257.605   -19200487.86043 -14955847.52642  22281258.782    22281254.575
  20829872.357   -23817151.79144 -18528563.00842  20829873.859    20829870.114
  21463379.789    -9567250.04143  -7440737.76742  21463380.336    21463377.217
  22974927.934    21815867.80643  17004421.49542  22974928.906    22974926.185
  24328183.229    -6682187.99943  -5181040.42542  24328184.950    24328182.026
 03 12 24  1 59  0.0000000  0  9G30G10G18G24G21G 6G17G 5G29
  20799245.759   -20151221.85944 -15694165.69942  20799247.683    20799243.450
  21465166.901   -17020431.78843 -13224622.90442  21465167.651    21465164.204
  24662372.411    -5253839.26243  -3892812.61642  24662373.953    24662370.577
  24222796.819    32711550.42943  25532784.31442  24222797.546    24222794.747
  22269429.507   -19262644.67143 -15004281.37142  22269430.682    22269426.451
  20822046.595   -23858276.49544 -18560608.20242  20822048.075    20822044.318
  21473032.780    -9516523.14243  -7401210.29342  21473033.353    21473030.189
  22994501.748    21918728.55543  17084572.71642  22994502.680    22994499.979
  24315340.479    -6749676.69543  -5233628.97242  24315342.202    24315339.355
 03 12 24  1 59 30.0000000  0  9G30G10G18G24G21G 6G17G 5G29
  20810422.340   -20092488.48644 -15648399.43142  20810424.242    20810420.062
  21475373.695   -16966794.60743 -13182827.67442  21475374.470    21475371.007
  24641263.107    -5364769.08743  -3979251.38642  24641264.674    24641261.662
  24238453.230    32793825.45443  25596894.74542  24238453.910    24238451.117
  22257643.330   -19324581.53243 -15052543.82042  22257644.504    22257640.246
  20814265.801   -23899164.75244 -18592469.15042  20814267.271    20814263.501
  21482719.327    -9465619.94843  -7361545.44342  21482719.892    21482716.724
  23014106.666    22021753.28043  17164851.71142  23014107.618    23014104.927
  24302527.410    -6817009.68643  -5286096.17542  24302529.131    24302526.311
 03 12 24  2  0  0.0000000  0  9G30G10G18G24G21G 6G17G 5G29
  20821693.679   -20033257.23744 -15602245.20942  20821695.584    20821691.382
  21485683.146   -16912617.88743 -13140612.02442  21485683.913    21485680.513
  24620161.465    -5475659.28243  -4065659.24142  24620162.956    24620160.062
  24254104.228    32876072.39843  25660983.30342  24254104.992    24254102.186
  22245900.719   -19386288.85543 -15100627.41242  22245901.935    22245897.643
  20806532.070   -23939805.53344 -18624137.25742  20806533.566    20806529.785
  21492441.067    -9414531.90743  -7321736.55842  21492441.612    21492438.411
  23033744.240    22124948.94643  17245263.90742  23033745.148    23033742.406
  24289746.272    -6884174.71043  -5338432.49642  24289748.111    24289744.994
 03 12 24  2  0 30.0000000  0  9G30G10G18G24G21G 6G17G 5G29
  20833058.383   -19973535.38244 -15555708.69342  20833060.283    20833056.070
  21496093.795   -16857909.42043 -13097982.02442  21496094.552    21496091.163
  24599066.698    -5586512.77943  -4152038.53542  24599068.190    24599065.268
  24269748.789    32958285.53643  25725045.52142  24269749.508    24269746.797
  22234200.970   -19447771.54743 -15148535.96642  22234202.188    22234197.890
  20798844.796   -23980202.35544 -18655615.26742  20798846.280    20798842.500
  21502196.718    -9363265.38843  -7281788.60042  21502197.306    21502194.072
  23053412.733    22228307.85643  17325803.30242  23053413.717    23053410.993
  24276996.688    -6951173.77643  -5390639.50442  24276998.493    24276995.444
 03 12 24  2  1  0.0000000  0  9G30G10G18G24G21G 6G17G 5G29
  20844516.171   -19913324.28043 -15508790.95642  20844518.054    20844513.872
  21506605.379   -16802670.46643 -13054938.65842  21506606.136    21506602.776
  24577979.610    -5697326.24443  -4238386.62342  24577981.076    24577978.056
  24285386.847    33040464.61943  25789081.19642  24285387.579    24285384.841
  22222544.093   -19509028.69443 -15196268.77442  22222545.306    22222540.962
  20791204.388   -24020352.83344 -18686901.32042  20791205.887    20791202.092
  21511986.324    -9311820.75543  -7241701.85342  21511986.899    21511983.627
  23073112.014    22331828.15743  17406468.46642  23073112.982    23073110.247
  24264279.607    -7018002.90843  -5442714.09242  24264281.492    24264278.273
 03 12 24  2  1 30.0000000  0  9G30G10G18G24G21G 6G17G 5G29
  20856066.730   -19852625.65143 -15461493.32142  20856068.599    20856064.441
  21517217.524   -16746902.96743 -13011483.43642  21517218.300    21517214.954
  24556900.414    -5808097.26243  -4324701.59042  24556901.975    24556899.057
  24301018.504    33122609.46543  25853090.19242  24301019.190    24301016.541
  22210930.147   -19570060.20043 -15243825.74942  22210931.371    22210927.059
  20783611.191   -24060255.29944 -18717994.11542  20783612.688    20783608.864
  21521809.550    -9260199.18143  -7201477.22742  21521810.128    21521806.857
  23092841.617    22435507.69343  17487257.70442  23092842.593    23092839.856
  24251595.318    -7084659.04543  -5494653.87942  24251597.114    24251594.210
 03 12 24  2  2  0.0000000  0  9G30G10G18G24G21G 6G17G 5G29
  20867709.258   -19791443.75244 -15413819.10942  20867711.120    20867706.967
  21527929.526   -16690610.87643 -12967619.44442  21527930.306    21527926.978
  24535829.463    -5918825.43043  -4410983.21542  24535830.966    24535827.939
  24316643.095    33204717.13443  25917070.21642  24316643.792    24316641.035
  22199358.791   -19630868.08243 -15291208.47542  22199359.997    22199355.643
  20776065.055   -24099910.19044 -18748893.99342  20776066.585    20776062.773
  21531665.844    -9208403.90143  -7161117.24342  21531666.418    21531663.139
  23112600.477    22539341.39143  17568167.06942  23112601.451    23112598.693
  24238944.076    -7151141.03343  -5546457.95242  24238945.903    24238942.988
 03 12 24  2  2 30.0000000  0  9G30G10G18G24G21G 6G17G 5G29
  20879444.094   -19729776.63043 -15365766.80242  20879445.974    20879441.821
  21538741.626   -16633792.79043 -12923345.58442  21538742.398    21538739.077
  24514767.796    -6029504.10043  -4497226.20742  24514769.335    24514766.350
  24332261.228    33286790.89743  25981023.81642  24332261.890    24332259.180
  22187830.680   -19691448.31043 -15338413.80742  22187831.896    22187827.551
  20768567.116   -24139312.01044 -18779596.67342  20768568.630    20768564.817
  21541555.738    -9156431.94843  -7120619.59642  21541556.329    21541553.057
  23132389.035    22643330.55543  17649197.57442  23132389.994    23132387.256
  24226327.409    -7217442.02643  -5598121.00142  24226329.223    24226326.215
 03 12 24  2  3  0.0000000  0  9G30G10G18G24G21G 6G17G 5G29
  20891270.440   -19667628.62343 -15317339.78642  20891272.330    20891268.179
  21549653.026   -16576452.98543 -12878665.19442  21549653.807    21549650.456
  24493715.790    -6140133.28443  -4583430.65342  24493717.247    24493714.265
  24347872.405    33368828.26143  26044949.05742  24347873.069    24347870.295
  22176345.572   -19751803.08943 -15385443.46842  22176346.764    22176342.400
  20761117.191   -24178461.35744 -18810102.62542  20761118.713    20761114.900
  21551478.594    -9104286.91243  -7079987.07742  21551479.198    21551475.881
  23152206.220    22747470.79843  17730345.80842  23152207.223    23152204.433
  24213744.822    -5708141.32053  -4422042.49852  24213745.301    24213745.744
 03 12 24  2  3 30.0000000  0  9G30G10G18G24G21G 6G17G 5G29
  20903188.119   -19605000.72643 -15268538.82342  20903189.999    20903185.874
  21560663.417   -16518592.89643 -12833579.38242  21560664.184    21560660.844
  24472673.813    -6250709.57243  -4669593.90942  24472675.251    24472672.239
  24363476.573    33450828.99743  26108845.76542  24363477.279    24363474.445
  22164903.507   -19811931.18743 -15432296.49442  22164904.714    22164900.328
  20753715.873   -24217355.39244 -18840409.63142  20753717.398    20753713.579
  21561434.375    -9051968.77543  -7039219.67542  21561434.983    21561431.681
  23172051.822    22851760.03243  17811610.12442  23172052.826    23172050.095
  24201198.702    -5774074.45843  -4473418.86842  24201199.566    24201197.274
 03 12 24  2  4  0.0000000  0  9G30G10G18G24G21G 6G17G 5G29
  20915196.026   -19541898.72543 -15219368.43242  20915197.910    20915193.781
  21571771.692   -16460218.36143 -12788092.70842  21571772.466    21571769.112
  24451641.513    -6361234.33243  -4755716.94542  24451642.959    24451640.113
  24379073.040    33532789.23643  26172710.90542  24379073.709    24379070.962
  22153503.976   -19871836.29743 -15478975.76542  22153505.143    22153500.753
  20746362.790   -24255996.21544 -18870519.33542  20746364.279    20746360.437
  21571422.160    -8999482.38543  -6998321.16342  21571422.786    21571419.476
  23191924.699    22956192.52343  17892986.08942  23191925.694    23191922.889
  24188687.095    -5839822.32143  -4524650.87642  24188688.107    24188685.631
 03 12 24  2  4 30.0000000  0  9G30G10G18G24G21G 6G17G 5G29
  20927294.715   -19478319.71343 -15169826.34442  20927296.594    20927292.480
  21582978.415   -16401326.46543 -12742202.88942  21582979.198    21582975.840
  24430620.394    -6471700.06343  -4841794.03742  24430621.866    24430619.103
  24394662.661    33614713.33243  26236547.88942  24394663.390    24394660.547
  22142147.850   -19931512.98843 -15525477.04742  22142148.999    22142144.567
  20739059.056   -24294377.32144 -18900426.65542  20739060.565    20739056.722
  21581442.729    -8946823.92543  -6957288.57042  21581443.326    21581440.030
  23211825.195    23060770.39743  17974475.30542  23211826.191    23211823.445
  24176212.219    -5905376.95753  -4575732.34552  24176213.719    24176211.110
 03 12 24  2  5  0.0000000  0  9G30G10G18G24G21G 6G17G 5G29
  20939483.057   -19414269.65043 -15119917.20342  20939484.933    20939480.774
  21594282.451   -16341923.26043 -12695914.65442  21594283.229    21594279.862
  24409610.282    -6582108.15843  -4927826.20842  24409611.805    24409609.006
  24410244.445    33696596.90743  26300353.29342  24410245.339    24410242.427
  22130834.416   -19990965.22343 -15571803.41742  22130835.557    22130831.201
  20731804.360   -24332500.90544 -18930133.31242  20731805.870    20731802.002
  21591495.118    -8893998.33743  -6916125.74842  21591495.682    21591492.355
  23231752.260    23165487.50643  18056073.06242  23231753.259    23231750.404
  24163774.162    -5970739.08343  -4626663.80242  24163775.743    24163773.135
 03 12 24  2  5 30.0000000  0  9G30G10G18G24G21G 6G17G 5G29
  20951760.657   -19349750.47143 -15069642.51642  20951762.523    20951758.386
  21605683.365   -16282010.76543 -12649229.56742  21605684.171    21605680.801
  24388611.836    -6692455.86143  -5013811.36542  24388613.266    24388610.317
  24425818.533    33778439.67843  26364126.89742  24425819.531    24425816.571
  22119563.860   -20050192.56143 -15617954.56642  22119564.961    22119560.517
  20724599.026   -24370364.97944 -18959637.75042  20724600.557    20724596.678
  21601579.115    -8841006.52843  -6874833.40542  21601579.675    21601576.340
  23251705.241    23270341.43443  18137777.38342  23251706.208    23251703.458
  24151373.398    -6035905.23543  -4677442.55342  24151375.009    24151372.239
 03 12 24  2  6  0.0000000  0  9G30G10G18G24G21G 6G17G 5G29
  20964127.570   -19284761.97443 -15019002.13042  20964129.411    20964125.270
  21617181.274   -16221588.86943 -12602147.54542  21617182.044    21617178.703
  24367625.577    -6802738.65143  -5099745.89742  24367627.045    24367624.090
  24441385.204    33860243.11443  26427869.86742  24441386.188    24441383.129
  22108336.389   -20109192.76443 -15663928.69442  22108337.502    22108333.166
  20717443.847   -24407965.60744 -18988936.91542  20717445.375    20717441.484
  21611694.972    -8787847.13943  -6833410.47542  21611695.557    21611692.225
  23271684.244    23375331.56543  18219587.87242  23271685.204    23271682.454
  24139011.100    -6100869.93743  -4728064.34742  24139012.721    24139009.815
 03 12 24  2  6 30.0000000  0  9G30G10G18G24G21G 6G17G 5G29
  20976582.899   -19219308.84443 -14967999.68642  20976584.723    20976580.574
  21628775.099   -16160662.71343 -12554672.59542  21628775.886    21628772.541
  24346651.653    -6912956.42343  -5185629.75242  24346653.171    24346650.326
  24456943.767    33942003.98243  26491579.65042  24456944.719    24456941.700
  22097151.781   -20167968.21743 -15709727.70842  22097152.878    22097148.496
  20710338.616   -24445303.82744 -19018031.60142  20710340.142    20710336.235
  21621842.025    -8734523.98543  -6791859.94042  21621842.582    21621839.264
  23291688.254    23480453.30843  18301500.89742  23291689.188    23291686.430
  24126687.208    -6165632.86443  -4778528.91142  24126688.603    24126685.600
 03 12 24  2  7  0.0000000  0  9G30G10G18G24G21G 6G17G 5G29
  20989126.623   -19153391.06943 -14916635.18842  20989128.474    20989124.324
  21640464.910   -16099232.16243 -12506804.61042  21640465.729    21640462.363
  24325690.984    -7023104.81643  -5271459.59042  24325692.516    24325689.660
  24472494.562    34023724.36143  26555257.89442  24472495.605    24472492.540
  22086010.308   -20226516.84043 -15755349.96942  22086011.429    22086007.059
  20703284.033   -24482375.82244 -19046918.84442  20703285.559    20703281.631
  21632020.514    -8681035.65343  -6750180.69942  21632021.028    21632017.729
  23311717.227    23585706.24143  18383516.13642  23311718.137    23311715.445
  24114402.607    -6230188.85443  -4828832.20842  24114404.141    24114400.821
 03 12 24  2  7 30.0000000  0  9G30G10G18G24G21G 6G17G 5G29
  21001757.964   -19087012.76143 -14864911.82842  21001759.824    21001755.695
  21652249.967   -16037301.45543 -12458546.89542  21652250.720    21652247.348
  24304743.719    -7133182.78843  -5357234.52642  24304745.193    24304742.482
  24488037.270    34105401.76743  26618902.64642  24488038.261    24488035.205
  22074911.630   -20284840.45743 -15800796.89542  22074912.761    22074908.379
  20696280.086   -24519181.67744 -19075598.70242  20696281.623    20696277.678
  21642229.796    -8627385.34843  -6708375.24142  21642230.312    21642227.047
  23331770.390    23691085.99543  18465630.23542  23331771.293    23331768.526
  24102157.555    -6294536.45553  -4878973.13452  24102159.140    24102155.925
 03 12 24  2  8  0.0000000  0 10G30G10G26G18G24G21G 6G17G 5G29
  21014475.733   -19020180.51143 -14812834.75142  21014477.578    21014473.446
  21664128.881   -15974877.32243 -12409904.69442  21664129.622    21664126.245
  24280303.400    -5645505.15953  -4360804.28752  24280305.333    24280302.729
  24283809.566    -7243192.27543  -5442956.13042  24283810.920    24283808.192
  24503570.776    34187031.21843  26682510.03242  24503571.841    24503568.800
  22063855.084   -20342943.08943 -15846071.63142  22063856.191    22063851.781
  20689326.263   -24555724.20944 -19104073.37842  20689327.781    20689323.846
  21652468.865    -8573578.50643  -6666447.81342  21652469.381    21652466.120
  23351846.179    23796585.41943  18547837.52442  23351847.186    23351844.490
  24089952.014    -6358677.09743  -4928952.79242  24089953.538    24089950.299
 03 12 24  2  8 30.0000000  0 10G30G10G26G18G24G21G 6G17G 5G29
  21027281.268   -18952886.88843 -14760398.16042  21027283.133    21027279.019
  21676103.066   -15911952.32443 -12360872.20842  21676103.821    21676100.440
  24263330.662    -5734697.28943  -4430304.57842  24263332.539    24263329.931
  24262890.566    -7353121.64843  -5528615.26942  24262891.985    24262889.366
  24519096.970    34268622.02843  26746087.31542  24519097.945    24519095.002
  22052842.263   -20400815.25843 -15891166.77042  22052843.396    22052838.980
  20682424.682   -24591992.12044 -19132334.05842  20682426.211    20682422.267
  21662739.333    -8519606.75043  -6624391.87742  21662739.825    21662736.579
  23371946.191    23902211.48443  18630143.56342  23371947.183    23371944.421
  24077788.144    -6422598.30343  -4978761.46142  24077789.792    24077786.455
 03 12 24  2  9  0.0000000  0 10G30G10G26G18G24G21G 6G17G 5G29
  21040173.227   -18885139.35543 -14707607.87442  21040175.067    21040170.942
  21688171.144   -15848534.02243 -12311455.33442  21688171.921    21688168.503
  24246366.823    -5823842.60443  -4499768.38142  24246368.686    24246366.113
  24241986.455    -7462973.62043  -5614214.16742  24241987.906    24241985.020
  24534614.637    34350167.97943  26809629.63642  24534615.610    24534612.595
  22041872.451   -20458461.88943 -15936086.17542  22041873.574    22041869.180
  20675574.725   -24627988.90044 -19160383.47742  20675576.244    20675572.282
  21673040.046    -8465476.09843  -6582212.13242  21673040.548    21673037.291
  23392068.800    24007956.59443  18712542.29842  23392069.780    23392067.114
  24065665.644    -6486302.15543  -5028400.75342  24065667.362    24065663.945
 03 12 24  2  9 30.0000000  0 10G30G10G26G18G24G21G 6G17G 5G29
  21053150.966   -18816940.69743 -14654466.06242  21053152.829    21053148.732
  21700332.536   -15784625.39743 -12261656.38642  21700333.316    21700329.902
  24229412.508    -5912937.99543  -4569193.30842  24229414.358    24229411.759
  24221097.353    -7572746.21043  -5699751.16642  24221098.826    24221095.971
  24550123.694    34431668.37943  26873136.45442  24550124.649    24550121.614
  22030945.407   -20515883.69943 -15980830.39442  22030946.523    22030942.116
  20668776.526   -24663713.55544 -19188220.84542  20668778.049    20668774.095
  21683370.668    -8411188.22443  -6539909.87642  21683371.186    21683367.909
  23412213.606    24113817.68843  18795031.46042  23412214.563    23412211.820
  24053584.963    -6549786.09443  -5077868.69242  24053586.623    24053583.316
 03 12 24  2 10  0.0000000  0 10G30G10G26G18G24G21G 6G17G 5G29
  21066214.343   -18748292.08143 -14600973.63242  21066216.210    21066212.129
  21712587.017   -15720227.64143 -12211476.29942  21712587.787    21712584.358
  24212468.598    -6001978.85543  -4638575.76042  24212470.352    24212467.731
  24200223.947    -7682435.77443  -5785223.45442  24200225.459    24200222.661
  24565624.072    34513123.86043  26936608.27842  24565625.153    24565622.096
  22020061.344   -20573079.42843 -16025398.43142  22020062.441    22020058.104
  20662030.670   -24699163.12444 -19215843.86242  20662032.181    20662028.259
  21693731.215    -8356743.08143  -6497485.07042  21693731.748    21693728.456
  23432380.111    24219793.66743  18877610.11442  23432381.058    23432378.384
  24041547.033    -6613045.88443  -5127161.98942  24041548.776    24041545.253
 03 12 24  2 10 30.0000000  0 10G30G10G26G18G24G21G 6G17G 5G29
  21079362.392   -18679198.55043 -14547134.51542  21079364.266    21079360.196
  21724933.567   -15655346.08443 -12160919.22142  21724934.336    21724930.870
  24195535.182    -6090964.67343  -4707915.33142  24195537.064    24195534.188
  24179366.297    -7792042.96843  -5870631.59842  24179367.892    24179364.976
  24581115.307    34594531.10143  27000042.50942  24581116.346    24581113.321
  22009219.771   -20630052.01543 -16069792.60242  22009220.880    22009216.514
  20655336.923   -24734338.84744 -19243253.49142  20655338.431    20655334.498
  21704120.994    -8302144.47943  -6454940.69542  21704121.520    21704118.216
  23452567.549    24325878.82143  18960273.84542  23452568.429    23452565.722
  24029551.797    -6676081.34343  -5176280.47242  24029553.523    24029550.036
 03 12 24  2 11  0.0000000  0 10G30G10G26G18G24G21G 6G17G 5G29
  21092595.918   -18609655.69943 -14492945.27942  21092597.830    21092593.757
  21737373.005   -15589976.40143 -12109981.78642  21737373.767    21737370.289
  24178614.185    -6179885.24143  -4777204.06242  24178616.000    24178613.163
  24158526.250    -7901558.33943  -5955968.18342  24158527.781    24158524.856
  24596598.520    34675896.19243  27063443.91642  24596599.580    24596596.538
  21998422.028   -20686794.46343 -16114007.44542  21998423.155    21998418.746
  20648696.878   -24769232.45744 -19270443.29242  20648698.382    20648694.434
  21714541.024    -8247386.78243  -6412272.34742  21714541.540    21714538.242
  23472776.374    24432077.19943  19043025.81542  23472777.245    23472774.598
  24017601.018    -6738882.77243  -5225216.58842  24017602.795    24017599.297
 03 12 24  2 11 30.0000000  0 10G30G10G26G18G24G21G 6G17G 5G29
  21105913.332   -18539672.38343 -14438412.82542  21105915.226    21105911.131
  21749903.604   -15524127.67943 -12058671.07942  21749904.365    21749900.847
  24161704.964    -6268743.65943  -4846444.36842  24161706.834    24161703.959
  24137702.658    -8010986.09943  -6041236.49942  24137704.299    24137701.279
  24612072.475    34757212.47543  27126807.27642  24612073.571    24612070.515
  21987666.802   -20743313.29143 -16158048.03542  21987667.945    21987663.518
  20642109.575   -24803848.94344 -19297417.15242  20642111.059    20642107.111
  21724989.861    -8192477.78543  -6369486.10442  21724990.360    21724987.065
  23493005.206    24538379.96843  19125859.10942  23493006.042    23493003.456
  24005693.988    -6801453.97443  -5273973.32342  24005695.878    24005692.320
 03 12 24  2 12  0.0000000  0 10G30G10G26G18G24G21G 6G17G 5G29
  21119313.802   -18469252.38143 -14383540.09042  21119315.698    21119311.615
  21762524.645   -15457803.69143 -12006990.03142  21762525.396    21762521.863
  24144807.964    -6357537.85743  -4915634.61742  24144809.827    24144807.072
  24116896.232    -8120324.93443  -6126435.55642  24116897.747    24116894.668
  24627536.648    34838477.53643  27190130.72542  24627537.765    24627534.757
  21976953.841   -20799610.09443 -16201915.61842  21976954.999    21976950.544
  20635575.049   -24838188.00444 -19324174.83442  20635576.526    20635572.574
  21735467.090    -8137419.70143  -6326583.68842  21735467.569    21735464.245
  23513253.029    24644782.96743  19208770.52442  23513253.862    23513251.207
  23993831.155    -6863792.98243  -5322549.11642  23993833.137    23993829.560
 03 12 24  2 12 30.0000000  0 10G30G10G26G18G24G21G 6G17G 5G29
  21132797.977   -18398392.59843 -14328324.67242  21132799.884    21132795.773
  21775236.728   -15391001.28043 -11954936.18842  21775237.477    21775233.897
  24127924.937    -6446258.48643  -4984767.53742  24127926.846    24127923.961
  24096108.230    -8229567.01243  -6211559.23042  24096109.704    24096106.584
  24642992.167    34919696.74743  27253418.44342  24642993.311    24642990.237
  21966284.192   -20855679.13543 -16245605.72642  21966285.375    21966280.890
  20629094.680   -24872242.32144 -19350710.64142  20629096.196    20629092.227
  21745973.496    -8082208.08743  -6283561.63642  21745973.972    21745970.648
  23533520.524    24751289.43643  19291762.54342  23533521.364    23533518.794
  23982014.233    -6925891.31143  -5370937.38542  23982016.183    23982012.747
 03 12 24  2 13  0.0000000  0 10G30G10G26G18G24G21G 6G17G 5G29
  21146364.991   -18327097.51543 -14272770.05842  21146366.880    21146362.760
  21788038.954   -15323725.10443 -11902513.17742  21788039.683    21788036.105
  24111056.082    -6534904.71243  -5053842.45742  24111058.035    24111055.025
  24075338.416    -8338712.36543  -6296607.48842  24075339.929    24075336.778
  24658438.372    35000867.13943  27316668.10742  24658439.547    24658436.466
  21955657.417   -20911522.87843 -16289120.27542  21955658.630    21955654.129
  20622668.387   -24906012.62444 -19377025.13642  20622669.888    20622665.926
  21756508.498    -8026846.23343  -6240422.52042  21756508.976    21756505.627
  23553806.793    24857894.37843  19374831.30142  23553807.662    23553805.049
  23970243.221    -6987748.33043  -5419137.62242  23970244.998    23970241.704
 03 12 24  2 13 30.0000000  0 10G30G10G26G18G24G21G 6G17G 5G29
  21160013.597   -18255373.62543 -14216881.30942  21160015.473    21160011.361
  21800930.047   -15255981.63743 -11849726.04442  21800930.806    21800927.239
  24094201.293    -6623476.96543  -5122859.72742  24094203.136    24094200.333
  24054586.844    -8447762.55043  -6381581.64042  24054588.314    24054585.227
  24673874.569    35081984.42943  27379876.40442  24673875.709    24673872.551
  21945072.834   -20967145.16243 -16332462.26042  21945074.061    21945069.517
  20616295.705   -24939501.13744 -19403120.05442  20616297.214    20616293.267
  21767071.077    -7971339.42543  -6197170.45342  21767071.557    21767068.208
  23574110.493    24964591.07843  19457971.56942  23574111.382    23574108.745
  23958517.915    -7049365.14143  -5467150.65542  23958519.794    23958516.499
 03 12 24  2 14  0.0000000  0 10G30G10G26G18G24G21G 6G17G 5G29
  21173745.554   -18183211.85243 -14160651.35442  21173747.409    21173743.272
  21813911.765   -15187762.23143 -11796568.04742  21813912.504    21813908.931
  24077363.303    -6711960.42843  -5191807.80442  24077365.148    24077362.427
  24033856.106    -8556703.95943  -6466471.05842  24033857.446    24033854.253
  24689302.651    35163059.46843  27443051.78642  24689303.644    24689300.564
  21934532.486   -21022534.80043 -16375622.96642  21934533.731    21934529.212
  20609979.111   -24972695.01244 -19428985.38442  20609980.597    20609976.663
  21777663.271    -7915677.08843  -6153797.18942  21777663.732    21777660.384
  23594433.359    25071388.07643  19541189.97942  23594434.211    23594431.616
  23946841.133    -7110727.24243  -5514965.24642  23946842.897    23946839.536
 03 12 24  2 14 30.0000000  0 10G30G10G26G18G24G21G 6G17G 5G29
  21187557.366   -18110630.50643 -14104094.45542  21187559.221    21187555.039
  21826980.505   -15119085.34843 -11743053.57242  21826981.297    21826977.683
  24060539.969    -6800367.33443  -5260696.21642  24060541.870    24060539.051
  24013143.353    -8665550.03043  -6551286.13442  24013144.734    24013141.550
  24704719.574    35244076.05943  27506181.62342  24704720.555    24704717.410
  21924033.433   -21077707.47043 -16418614.60242  21924034.688    21924030.128
  20603715.892   -25005608.29244 -19454632.06842  20603717.395    20603713.438
  21788281.833    -7859876.04743  -6110315.84642  21788282.310    21788278.954
  23614771.801    25178267.57443  19624472.69042  23614772.701    23614770.086
  23935210.257    -7171847.60343  -5562591.45142  23935212.043    23935208.624
 03 12 24  2 15  0.0000000  0 10G30G10G26G18G24G21G 6G17G 5G29
  21201450.936   -18037619.32243 -14047202.62142  21201452.785    21201448.590
  21840138.311   -15049940.43243 -11689174.40142  21840139.125    21840135.502
  24043734.210    -6888681.61043  -5329512.43042  24043736.096    24043733.308
  23992451.670    -8774285.15343  -6636014.80142  23992453.046    23992449.899
  24720127.740    35325046.61543  27569275.58342  24720128.782    24720125.599
  21913578.089   -21132650.69443 -16461427.45242  21913579.313    21913574.740
  20597508.811   -25038226.54744 -19480048.86342  20597510.330    20597506.356
  21798929.039    -7803924.70443  -6066717.38042  21798929.502    21798926.133
  23635127.910    25285239.39243  19707827.32642  23635128.844    23635126.181
  23923628.486    -7232710.47743  -5610017.01442  23923630.211    23923626.776
 03 12 24  2 15 30.0000000  0 10G30G10G26G18G24G21G 6G17G 5G29
  21215424.554   -17964187.49643 -13989983.00842  21215426.410    21215422.171
  21853383.467   -14980336.77343 -11634937.76442  21853384.252    21853380.629
  24026945.507    -6976906.43743  -5398258.96342  24026947.412    24026944.566
  23971780.313    -8882913.97843  -6720660.63842  23971781.736    23971778.432
  24735525.767    35405963.75543  27632327.94242  24735526.705    24735523.659
  21903165.126   -21187371.03343 -16504066.61942  21903166.346    21903161.722
  20591356.890   -25070555.07644 -19505239.89442  20591358.390    20591354.410
  21809603.377    -7747830.66643  -6023007.72042  21809603.852    21809600.435
  23655499.776    25392294.68843  19791247.00142  23655500.703    23655498.165
  23912094.849    -7293319.63143  -5657244.87142  23912096.627    23912093.068
 03 12 24  2 16  0.0000000  0 10G30G10G26G18G24G21G 6G17G 5G29
  21229478.083   -17890335.76943 -13932436.20342  21229479.924    21229475.684
  21866715.714   -14910275.17043 -11580344.28642  21866716.522    21866712.888
  24010174.845    -7065036.71743  -5466931.82342  24010176.645    24010173.798
  23951129.793    -8991432.58543  -6805220.57542  23951131.249    23951128.094
  24750913.903    35486828.79243  27695339.67742  24750914.744    24750911.812
  21892794.910   -21241866.78743 -16546530.79642  21892796.112    21892791.460
  20585260.703   -25102590.57244 -19530202.59042  20585262.220    20585258.234
  21820304.923    -7691593.48843  -5979186.52442  21820305.422    21820302.001
  23675887.466    25499432.18643  19874730.76342  23675888.365    23675885.701
  23900610.398    -7353670.50443  -5704271.47542  23900612.188    23900608.669
 03 12 24  2 16 30.0000000  0 10G30G10G26G18G24G21G 6G17G 5G29
  21243611.216   -17816065.39143 -13874563.17842  21243613.075    21243608.872
  21880134.814   -14839757.31943 -11525395.28842  21880135.611    21880131.984
  23993422.988    -7153067.61043  -5535527.23742  23993424.855    23993421.966
  23930501.150    -9099837.15943  -6889691.67542  23930502.490    23930499.370
  24766292.074    35567642.27443  27758311.25842  24766292.942    24766289.992
  21882467.645   -21296136.72643 -16588819.01042  21882468.860    21882464.169
  20579220.819   -25134330.41044 -19554934.90842  20579222.314    20579218.322
  21831033.747    -7635213.07543  -5935253.71442  21831034.241    21831030.784
  23696290.344    25606650.57443  19958277.52042  23696291.217    23696288.781
  23889175.949    -7413758.97143  -5751093.61342  23889177.740    23889174.139
 03 12 24  2 17  0.0000000  0 10G30G10G26G18G24G21G 6G17G 5G29
  21257823.244   -17741380.64543 -13816367.26342  21257825.124    21257820.896
  21893639.905   -14768787.55843 -11470094.15642  21893640.689    21893637.078
  23976690.457    -7240997.48743  -5604043.96342  23976692.274    23976689.334
  23909894.369    -9208126.86443  -6974073.25742  23909895.656    23909892.524
  24781660.192    35648402.42843  27821241.25842  24781661.011    24781658.058
  21872182.929   -21350182.91843 -16630932.87042  21872184.168    21872179.487
  20573237.180   -25165774.59544 -19579436.84042  20573238.671    20573234.671
  21841789.363    -7578691.81443  -5891211.15542  21841789.878    21841786.407
  23716707.944    25713945.33743  20041883.82442  23716708.828    23716706.241
  23877791.630    -7473583.69143  -5797710.21842  23877793.409    23877789.799
 03 12 24  2 17 30.0000000  0 10G30G10G26G18G24G21G 6G17G 5G29
  21272113.897   -17666282.86443 -13757849.50842  21272115.766    21272111.527
  21907230.758   -14697367.00743 -11414441.76042  21907231.540    21907227.968
  23959978.024    -7328821.71243  -5672478.35242  23959979.868    23959976.915
  23889310.034    -9316298.24943  -7058362.61942  23889311.323    23889308.083
  24797018.296    35729109.66643  27884130.05842  24797019.035    24797016.105
  21861941.028   -21404004.29043 -16672871.55442  21861942.249    21861937.572
  20567310.318   -25196920.39744 -19603706.27442  20567311.808    20567307.787
  21852571.741    -7522029.91843  -5847059.00942  21852572.267    21852568.800
  23737139.685    25821315.18643  20125548.60642  23737140.589    23737138.072
  23866458.192    -7533140.86243  -5844118.33442  23866459.990    23866456.347
 03 12 24  2 18  0.0000000  0 10G30G10G26G18G24G21G 6G17G 5G29
  21286482.452   -17590775.40143 -13699012.51742  21286484.360    21286480.150
  21920906.794   -14625498.95343 -11358440.65642  21920907.568    21920904.006
  23943286.243    -7416537.42543  -5740828.19342  23943288.047    23943285.116
  23868748.540    -9424349.89043  -7142558.70042  23868749.843    23868746.428
  24812366.098    35809762.89143  27946976.73042  24812366.759    24812363.808
  21851741.784   -21457601.51843 -16714635.57142  21851742.987    21851738.327
  20561440.451   -25227766.78044 -19627742.39542  20561441.936    20561437.884
  21863380.530    -7465229.10043  -5802798.60942  21863381.092    21863377.628
  23757585.282    25928757.29443  20209269.69942  23757586.187    23757583.635
  23855176.119    -7592428.25443  -5890316.25242  23855177.930    23855174.172
 03 12 24  2 18 30.0000000  0 10G30G10G26G18G24G21G 6G17G 5G29
  21300928.550   -17514860.47543 -13639858.02142  21300930.459    21300926.264
  21934667.418   -14553186.21543 -11302093.04742  21934668.201    21934664.666
  23926615.774    -7504141.00843  -5809090.65442  23926617.625    23926614.644
  23848210.174    -9532279.45143  -7226659.61742  23848211.524    23848208.116
  24827703.612    35890362.06443  28009781.30942  24827704.294    24827701.194
  21841585.206   -21510974.50743 -16756224.86242  21841586.415    21841581.760
  20555627.876   -25258311.91844 -19651543.77442  20555629.367    20555625.303
  21874215.647    -7408290.09443  -5758430.53342  21874216.227    21874212.733
  23778044.061    26036268.81343  20293044.90042  23778044.937    23778042.365
  23843946.070    -7651442.67743  -5936301.44942  23843947.779    23843944.116
 03 12 24  2 19  0.0000000  0 10G30G10G26G18G24G21G 6G17G 5G29
  21315451.602   -17438541.34743 -13580388.56842  21315453.490    21315449.327
  21948512.082   -14480431.93643 -11245401.38142  21948512.867    21948509.320
  23909967.230    -7591629.39443  -5877263.36642  23909969.089    23909966.067
  23827695.513    -9640084.45643  -7310663.48142  23827696.868    23827693.477
  24843030.524    35970905.83843  28072542.71442  24843031.379    24843028.110
  21831471.195   -21564123.91943 -16797639.94142  21831472.405    21831467.699
  20549872.803   -25288554.91344 -19675109.72242  20549874.298    20549870.218
  21885076.811    -7351214.30743  -5713955.87142  21885077.388    21885073.884
  23798515.543    26143846.92943  20376871.96842  23798516.399    23798513.883
  23832768.433    -7710181.85443  -5982072.17942  23832770.102    23832766.402
 03 12 24  2 19 30.0000000  0 10G30G10G26G18G24G21G 6G17G 5G29
  21330051.242   -17361819.58143 -13520605.36442  21330053.130    21330049.004
  21962440.439   -14407237.74343 -11188366.92042  21962441.237    21962437.687
  23893341.441    -7678998.34243  -5945342.99142  23893343.335    23893340.314
  23807205.227    -9747761.90743  -7394567.96642  23807206.614    23807203.136
  24858346.989    36051394.85843  28135261.43842  24858347.934    24858344.702
  21821399.869   -21617048.88243 -16838880.11442  21821401.047    21821396.371
  20544175.724   -25318493.25344 -19698438.27742  20544177.227    20544173.104
  21895963.910    -7294002.03143  -5669374.85342  21895964.508    21895960.989
  23818999.270    26251489.46443  20460749.24742  23819000.107    23818997.661
  23821643.724    -7768642.09543  -6027625.55542  23821645.460    23821641.670
 03 12 24  2 20  0.0000000  0 10G30G10G26G18G24G21G 6G17G 5G29
  21344726.772   -17284699.12343 -13460511.49542  21344728.647    21344724.549
  21976451.787   -14333607.62143 -11130992.78042  21976452.569    21976449.025
  23876738.750    -7766245.71143  -6013327.89342  23876740.696    23876737.583
  23786739.306    -9855311.17143  -7478372.53342  23786740.676    23786737.215
  24873652.784    36131827.19843  28197936.00442  24873653.753    24873650.446
  21811371.007   -21669750.76143 -16879946.45342  21811372.165    21811367.488
  20538536.658   -25348126.75844 -19721529.30142  20538538.145    20538534.011
  21906876.547    -7236655.62843  -5624689.32542  21906877.136    21906873.631
  23839494.541    26359192.55243  20544673.72842  23839495.400    23839492.857
  23810572.442    -7826821.82743  -6072960.35142  23810574.193    23810570.384
 03 12 24  2 20 30.0000000  0  9G30G10G26G18G21G 6G17G 5G29
  21359479.670   -17207172.20443 -13400100.90542  21359481.536    21359477.413
  21990547.547   -14259533.83243 -11073272.92442  21990548.306    21990544.753
  23860161.900    -7853357.47443  -6081207.11942  23860163.845    23860160.717
  23766300.214    -9962718.95943  -7562066.85242  23766301.559    23766298.176
  21801386.489   -21722219.45643 -16920831.08642  21801387.633    21801382.991
  20532957.884   -25377443.46244 -19744373.46842  20532959.363    20532955.210
  21917816.472    -7179165.78043  -5579892.02342  21917817.080    21917813.536
  23860002.874    26466964.44543  20628651.79742  23860003.757    23860001.314
  23799557.063    -7884707.89943  -6118066.31842  23799558.872    23799554.986
 03 12 24  2 21  0.0000000  0  9G30G10G26G18G21G 6G17G 5G29
  21374306.427   -17129256.91043 -13339387.67942  21374308.309    21374304.199
  22004724.274   -14185034.42443 -11015221.41642  22004725.069    22004721.493
  23843608.564    -7940345.69343  -6148990.09542  23843610.509    23843607.376
  23745885.626   -10069998.31143  -7645661.10942  23745887.033    23745883.554
  21791443.392   -21774470.38543 -16961546.03642  21791444.533    21791439.916
  20527436.708   -25406457.28844 -19766981.62742  20527438.222    20527434.043
  21928780.657    -7121548.64043  -5534995.53042  21928781.228    21928777.691
  23880520.810    26574786.74443  20712669.15342  23880521.644    23880519.153
  23788595.141    -7942312.69243  -6162953.12442  23788596.920    23788593.074
 03 12 24  2 21 30.0000000  0  9G30G10G26G18G21G 6G17G 5G29
  21389207.122   -17050953.22443 -13278371.81642  21389209.001    21389204.868
  22018981.991   -14110109.57143 -10956838.39142  22018982.808    22018979.233
  23827079.895    -8027204.22143  -6216672.00342  23827081.861    23827078.685
  23725496.274   -10177144.58143  -7729151.66242  23725497.694    23725494.213
  21781542.211   -21826501.11943 -17002089.40242  21781543.330    21781538.743
  20521973.992   -25435163.97144 -19789350.45142  20521975.513    20521971.312
  21939769.368    -7063802.69643  -5489998.66742  21939769.914    21939766.349
  23901048.351    26682659.41643  20796725.77642  23901049.250    23901046.669
  23777687.700    -7999630.92843  -6207616.63242  23777689.585    23777685.714
 03 12 24  2 22  0.0000000  0  9G30G10G26G18G21G 6G17G 5G29
  21404182.332   -16972257.90243 -13217050.77742  21404184.225    21404180.083
  22033321.268   -14034756.14943 -10898121.42342  22033322.086    22033318.472
  23810577.735    -8113923.57343  -6284245.46342  23810579.663    23810576.472
  23705133.815   -10284149.48443  -7812532.03942  23705135.203    23705131.879
  21771684.024   -21878305.90743 -17042456.70342  21771685.143    21771680.574
  20516571.158   -25463555.98244 -19811474.07942  20516572.665    20516568.474
  21950783.425    -7005923.17143  -5444897.71242  21950783.998    21950780.449
  23921585.965    26790585.93743  20880824.32442  23921586.937    23921584.447
  23766836.612    -8056653.94843  -6252050.09342  23766838.454    23766834.554
 03 12 24  2 22 30.0000000  0  9G30G10G26G18G21G 6G17G 5G29
  21419230.612   -16893178.58543 -13155430.52542  21419232.509    21419228.366
  22047740.659   -13958981.59743 -10839076.29742  22047741.490    22047737.881
  23794101.720    -8200505.32043  -6351711.71342  23794103.651    23794100.489
  23684797.857   -10391015.61243  -7895804.31342  23684799.226    23684795.865
  21761867.929   -21929889.69843 -17082651.80342  21761869.023    21761864.452
  20511227.569   -25491636.75344 -19833355.18642  20511229.067    20511224.862
  21961821.819    -6947915.92543  -5399697.24342  21961822.392    21961818.846
  23942132.565    26898558.61443  20964958.89042  23942133.531    23942130.992
  23756041.185    -8113383.87943  -6296255.18042  23756042.945    23756039.111
 03 12 24  2 23  0.0000000  0  9G30G10G26G18G21G 6G17G 5G29
  21434351.898   -16813715.76243 -13093511.43542  21434353.766    21434349.632
  22062240.044   -13882786.72543 -10779703.65542  22062240.887    22062237.265
  23777653.009    -8286943.70443  -6419066.23442  23777654.913    23777651.768
  23664489.080   -10497738.83743  -7978965.21242  23664490.394    23664487.028
  21752094.212   -21981250.67243 -17122673.28042  21752095.326    21752090.713
  20505943.903   -25519402.60944 -19854990.90242  20505945.407    20505941.189
  21972884.715    -6889779.87343  -5354396.40642  21972885.288    21972881.754
  23962687.768    27006577.31343  21049129.26542  23962688.712    23962686.290
  23745302.609    -8169815.86243  -6340228.11742  23745304.345    23745300.429
 03 12 24  2 23 30.0000000  0  9G30G10G26G18G21G 6G17G 5G29
  21449545.880   -16733870.82343 -13031294.58942  21449547.760    21449543.616
  22076819.156   -13806172.89743 -10720004.54642  22076820.000    22076816.379
  23761232.519    -8373233.97943  -6486305.36442  23761234.421    23761231.151
  23644208.204   -10604315.22543  -8062011.69542  23644209.560    23644206.161
  21742363.175   -22032387.44743 -17162520.06242  21742364.310    21742359.657
  20500720.742   -25546850.49044 -19876378.84442  20500722.228    20500718.020
  21983972.223    -6831514.57843  -5308994.85542  21983972.804    21983969.263
  23983251.734    27114640.64143  21133334.45142  23983252.630    23983250.099
  23734621.340    -8225945.61943  -6383965.52942  23734623.029    23734619.358
 03 12 24  2 24  0.0000000  0  9G30G10G26G18G21G 6G17G 5G29
  21464811.945   -16653647.04443 -12968782.55042  21464813.850    21464809.675
  22091477.341   -13729143.55943 -10659981.67542  22091478.187    22091474.549
  23744840.734    -8459373.18643  -6553426.75742  23744842.615    23744839.328
  23623955.476   -10710743.32743  -8144942.62242  23623956.844    23623953.496
  21732674.615   -22083300.89343 -17202192.81942  21732675.778    21732671.092
  20495558.220   -25573979.64344 -19897518.42742  20495559.701    20495555.486
  21995084.036    -6773121.58543  -5263493.80342  21995084.603    21995081.056
  24003823.197    27222745.33143  21217571.86042  24003824.210    24003821.728
  23723998.114    -8281771.12043  -6427465.87642  23723999.856    23723996.074
 03 12 24  2 24 30.0000000  0  9G30G10G26G18G21G 6G17G 5G29
  21480149.300   -16573048.81943 -12905978.72842  21480151.196    21480147.000
  22106213.780   -13651703.04143 -10599638.39342  22106214.606    22106210.975
  23728477.983    -8545359.58643  -6620429.08542  23728479.894    23728476.617
  23603731.253   -10817022.29643  -8227757.35542  23603732.594    23603729.259
  21723028.190   -22133992.80843 -17241692.95042  21723029.386    21723024.657
  20490456.320   -25600790.17344 -19918409.73242  20490457.804    20490453.588
  22006219.600    -6714603.66543  -5217895.40442  22006220.192    22006216.640
  24024401.912    27330887.08743  21301838.14742  24024402.922    24024400.489
  23713433.005    -8337291.06143  -6470728.12042  23713434.724    23713430.995
 03 12 24  2 25  0.0000000  0  9G30G10G26G18G21G 6G17G 5G29
  21495557.790   -16492076.83543 -12842883.66842  21495559.643    21495555.447
  22121028.344   -13573852.06343 -10538975.27542  22121029.158    22121025.496
  23712145.434    -8631187.54643  -6687307.95042  23712147.273    23712144.042
  23583536.317   -10923147.47743  -8310452.25742  23583537.615    23583534.256
  21713424.333   -22184461.15343 -17281018.88242  21713425.562    21713420.786
  20485415.760   -25627278.51944 -19939049.98642  20485417.220    20485412.999
  22017379.202    -6655959.61643  -5172198.72442  22017379.760    22017376.218
  24044987.579    27439065.42543  21386132.93742  24044988.589    24044986.195
  23702926.890    -8392500.83243  -6513748.68242  23702928.632    23702924.763
 03 12 24  2 25 30.0000000  0  9G30G10G26G18G21G 6G17G 5G29
  21511036.623   -16410734.89943 -12779500.33542  21511038.525    21511034.312
  22135920.293   -13495594.47943 -10477995.32442  22135921.074    22135917.378
  23695843.476    -8716854.69143  -6754061.50742  23695845.303    23695842.030
  23563370.701   -11029117.75643  -8393026.43842  23563372.032    23563368.744
  21703862.728   -22234707.44243 -17320171.78842  21703863.975    21703859.172
  20480436.586   -25653444.18344 -19959438.79942  20480438.043    20480433.822
  22028562.362    -6597191.77543  -5126405.58542  22028562.921    22028559.344
  24065579.531    27547277.14643  21470453.73742  24065580.564    24065578.127
  23692480.058    -8447398.84343  -6556526.28442  23692481.789    23692477.974
 03 12 24  2 26  0.0000000  0  9G30G10G26G18G21G 6G17G 5G29
  21526585.313   -16329025.82943 -12715830.92542  21526587.204    21526583.017
  22150889.006   -13416933.23943 -10416700.83642  22150889.790    22150886.086
  23679572.781    -8802357.50043  -6820687.00142  23679574.605    23679571.321
  23543235.064   -11134931.31543  -8475478.53642  23543236.345    23543232.994
  21694343.372   -22284731.94443 -17359151.87442  21694344.562    21694339.774
  20475519.085   -25679285.82244 -19979575.12942  20475520.539    20475516.305
  22039768.901    -6538301.00643  -5080516.65542  22039769.457    22039765.893
  24086177.331    27655519.02343  21554798.05542  24086178.358    24086175.912
  23682093.117    -8501982.45543  -6599058.93342  23682094.928    23682091.016
 03 12 24  2 26 30.0000000  0  9G30G10G26G18G21G 6G17G 5G29
  21542203.215   -16246953.20543 -12651878.22142  21542205.098    21542200.898
  22165933.938   -13337871.64843 -10355094.38542  22165934.718    22165930.976
  23663333.839    -8887693.31643  -6887182.36642  23663335.699    23663332.417
  23523129.395   -11240586.70143  -8557807.35342  23523130.691    23523127.408
  21684866.000   -22334535.62743 -17397959.89442  21684867.192    21684862.403
  20470663.381   -25704802.63244 -19999458.33942  20470664.855    20470660.598
  22050998.482    -6479288.90043  -5034533.17642  22050999.073    22050995.506
  24106780.248    27763787.86643  21639163.34442  24106781.199    24106778.812
  23671766.285    -8556249.53743  -6641344.91642  23671768.112    23671764.292
 03 12 24  2 27  0.0000000  0  9G30G10G26G18G21G 6G17G 5G29
  21557890.514   -16164515.77343 -12587641.25442  21557892.406    21557888.213
  22181055.215   -13258408.63543 -10293175.13242  22181056.010    22181052.266
  23647128.094    -8972854.82743  -6953541.91142  23647129.911    23647126.655
  23503055.214   -11346077.28343  -8640007.77542  23503056.471    23503053.172
  21675431.469   -22384114.38743 -17436592.64942  21675432.656    21675427.831
  20465870.518   -25729989.27344 -20019084.27842  20465871.974    20465867.722
  22062251.710    -6420152.77643  -4988453.06142  22062252.290    22062248.714
  24127388.632    27872085.11843  21723550.81342  24127389.525    24127387.133
  23661501.054    -8610193.70743  -6683379.28542  23661502.875    23661498.992
 03 12 24  2 27 30.0000000  0  9G30G10G26G18G21G 6G17G 5G29
  21573645.719   -16081721.77943 -12523126.44542  21573647.606    21573643.380
  22196251.320   -13178552.42143 -10230949.49842  22196252.111    22196248.373
  23630955.144    -9057843.80643  -7019767.02342  23630957.000    23630953.742
  23483011.778   -11451406.31343  -8722082.31142  23483013.043    23483009.693
  21666038.582   -22433474.20843 -17475054.80142  21666039.777    21666034.928
  20461139.727   -25754849.53344 -20038455.89342  20461141.210    20461136.972
  22073527.374    -6360898.76843  -4942281.08742  22073527.952    22073524.352
  24148000.767    27980402.38143  21807953.85242  24148001.718    24147999.231
  23651296.798    -8663817.37443  -6725163.92042  23651298.620    23651294.702
 03 12 24  2 28  0.0000000  0 10G30G10G26G18G21G 6G17G16G 5G29
  21589465.739   -15998586.97043 -12458346.06842  21589467.608    21589463.391
  22211519.235   -13098319.01643 -10168429.94042  22211519.997    22211516.255
  23614813.214    -9142669.64143  -7085865.00642  23614815.113    23614811.861
  23462996.983   -11556584.60843  -8804039.40342  23462998.277    23462994.876
  21656684.889   -22482627.91243 -17513356.34042  21656686.072    21656681.246
  20456468.860   -25779395.01744 -20057582.22942  20456470.341    20456466.113
  22084822.780    -6301540.87443  -4896028.16842  22084823.356    22084819.767
  24750674.572    -4513922.02553  -3474614.69652  24750676.063    24750672.124
  24168613.743    28088724.58343  21892360.73442  24168614.692    24168612.266
  23641151.462    -8717131.12243  -6766707.04242  23641153.224    23641149.395
 03 12 24  2 28 30.0000000  0 10G30G10G26G18G21G 6G17G16G 5G29
  21605355.458   -15915085.87543 -12393280.27842  21605357.316    21605353.119
  22226863.748   -13017682.90243 -10105596.58342  22226864.510    22226860.766
  23598708.413    -9227300.73543  -7151811.25842  23598710.287    23598707.028
  23443016.741   -11661581.53343  -8885855.16842  23443018.022    23443014.555
  21647375.758   -22531547.52943 -17551475.47842  21647376.914    21647372.091
  20451863.595   -25803595.73344 -20076439.91442  20451865.077    20451860.873
  22096143.163    -6242051.65843  -4849672.91642  22096143.739    22096140.186
  24733705.566    -4603094.23943  -3544099.44442  24733707.092    24733703.267
  24189232.592    28197077.46043  21976791.53742  24189233.526    24189231.103
  23631071.129    -8770103.87443  -6807984.46942  23631072.875    23631068.979
 03 12 24  2 29  0.0000000  0 10G30G10G26G18G21G 6G17G16G 5G29
  21621312.597   -15831230.50343 -12327938.42242  21621314.479    21621310.258
  22242282.675   -12936655.80743 -10042458.56942  22242283.429    22242279.662
  23582639.598    -9311742.79443  -7217610.19742  23582641.481    23582638.156
  23423069.669   -11766403.78543  -8967534.82042  23423070.972    23423067.517
  21638109.413   -22580242.39243 -17589419.48642  21638110.562    21638105.720
  20447322.473   -25827459.43544 -20095034.99242  20447323.954    20447319.752
  22107486.625    -6182441.46243  -4803223.39542  22107487.175    22107483.635
  24716792.329    -4691973.22943  -3613355.72542  24716793.811    24716790.116
  24209854.978    28305448.76543  22061236.68242  24209855.889    24209853.529
  23621054.407    -8822742.20343  -6849001.29342  23621056.145    23621052.210
 03 12 24  2 29 30.0000000  0 10G30G10G26G18G21G 6G17G16G 5G29
  21637336.271   -15747025.60243 -12262324.20942  21637338.132    21637333.917
  22257775.032   -12855242.89643  -9979019.91642  22257775.791    22257772.006
  23566607.077    -9395994.03243  -7283260.45842  23566608.959    23566605.677
  23403155.883   -11871051.39243  -9049078.39042  23403157.172    23403153.706
  21628885.343   -22628715.01443 -17627190.32042  21628886.487    21628881.627
  20442845.349   -25850986.71944 -20113367.92342  20442846.852    20442842.642
  22118852.553    -6122713.07943  -4756681.78242  22118853.111    22118849.566
  24699935.128    -4780558.39943  -3682383.02742  24699936.503    24699932.591
  24230480.114    28413834.47243  22145693.04642  24230481.014    24230478.704
  23611101.322    -8875045.57843  -6889757.11342  23611103.132    23611099.164
 03 12 24  2 30  0.0000000  0 10G30G10G26G18G21G 6G17G16G 5G29
  21653426.037   -15662473.21243 -12196439.22842  21653427.913    21653423.664
  22273340.394   -12773446.19843  -9915282.21542  22273341.150    22273337.404
  23550611.665    -9480050.37843  -7348758.85642  23550613.531    23550610.209
  23383275.968   -11975521.00243  -9130483.25542  23383277.231    23383273.796
  21619703.726   -22676964.66043 -17664787.40842  21619704.848    21619699.953
  20438432.731   -25874175.22444 -20131436.87342  20438434.206    20438429.995
  22130240.959    -6062866.45943  -4710048.03242  22130241.538    22130237.979
  24683134.355    -4868846.49643  -3751178.86442  24683135.862    24683131.911
  24251107.627    28522232.55043  22230159.06042  24251108.394    24251106.215
  23601212.747    -8927010.35643  -6930249.11142  23601214.524    23601210.500
 03 12 24  2 30 30.0000000  0 10G30G10G26G18G21G 6G17G16G 5G29
  21669580.566   -15577580.72643 -12130289.23042  21669582.436    21669578.174
  22288977.428   -12691272.81343  -9851250.98742  22288978.194    22288974.444
  23534653.136    -9563912.76543  -7414106.10442  23534655.000    23534651.737
  23363429.459   -12079815.17743  -9211751.40942  23363430.653    23363427.272
  21610563.683   -22724995.77843 -17702214.21642  21610564.791    21610559.879
  20434084.003   -25897028.00044 -20149244.21542  20434085.458    20434081.246
  22141650.807    -6002907.23743  -4663326.53942  22141651.360    22141647.836
  24666389.785    -4956839.60343  -3819744.83242  24666391.280    24666387.265
  24271736.114    28630635.78743  22314629.11242  24271736.869    24271734.597
  23591388.243    -8978638.33343  -6970478.64942  23591389.954    23591386.061
 03 12 24  2 31  0.0000000  0 10G30G10G26G18G21G 6G17G16G 5G29
  21685799.584   -15492349.18143 -12063875.03542  21685801.483    21685797.187
  22304685.920   -12608724.02143  -9786927.23442  22304686.682    22304682.913
  23518732.509    -9647575.93543  -7479298.11742  23518734.438    23518731.108
  23343617.101   -12183929.71743  -9292879.58642  23343618.290    23343614.889
  21601465.500   -22772806.89443 -17739469.59042  21601466.586    21601461.674
  20429799.739   -25919541.80044 -20166787.42242  20429801.215    20429796.997
  22153082.235    -5942834.57243  -4616516.66042  22153082.763    22153079.251
  24649702.166    -5044533.24343  -3888077.46242  24649703.826    24649699.667
  24292365.393    28739043.81743  22399102.87442  24292366.286    24292364.041
  23581628.579    -9029925.38143  -7010442.51942  23581630.233    23581626.465
 03 12 24  2 31 30.0000000  0 10G30G10G26G18G21G 6G17G16G 5G29
  21702083.209   -15406778.27643 -11997196.39842  21702085.084    21702080.749
  22320465.897   -12525799.54043  -9722310.73542  22320466.662    22320462.910
  23502851.072    -9731033.26543  -7544329.76442  23502852.965    23502849.667
  23323839.850   -12287859.37043  -9373863.68142  23323841.073    23323837.682
  21592409.724   -22820395.19443 -17776551.34542  21592410.806    21592405.876
  20425580.906   -25941712.00144 -20184062.88842  20425582.365    20425578.121
  22164535.709    -5882646.24743  -4569616.64542  22164536.198    22164532.705
  24633072.642    -5131921.85143  -3956172.40142  24633074.275    24633069.931
  24312995.673    28847456.72743  22483580.43742  24312996.542    24312994.399
  23571934.850    -9080865.68943  -7050136.22942  23571936.543    23571932.776
 03 12 24  2 32  0.0000000  0 10G30G10G26G18G21G 6G17G16G 5G29
  21718430.362   -15320873.40043 -11930257.53142  21718432.239    21718427.941
  22336316.376   -12442504.63843  -9657405.59942  22336317.132    22336313.355
  23487009.043    -9814283.53543  -7609200.03842  23487010.889    23487007.548
  23304097.864   -12391604.19843  -9454703.74442  23304099.123    23304095.682
  21583395.865   -22867763.14643 -17813461.39642  21583396.935    21583392.016
  20421427.221   -25963539.58144 -20201071.37342  20421428.705    20421424.456
  22176010.605    -5822345.43743  -4522628.98542  22176011.058    22176007.560
  24616501.141    -5219005.36843  -4024029.61842  24616502.820    24616498.416
  24333626.045    28955869.70643  22568058.06742  24333626.912    24333624.684
  23562307.157    -9131459.07843  -7089559.59742  23562308.908    23562305.154
 03 12 24  2 32 30.0000000  0 10G30G10G26G18G21G 6G17G16G 5G29
  21734840.182   -15234639.13243 -11863061.99042  21734842.060    21734837.734
  22352236.485   -12358843.82543  -9592215.33642  22352237.253    22352233.419
  23471206.688    -9897325.22443  -7673907.79042  23471208.557    23471205.172
  23284391.065   -12495164.01143  -9535399.64042  23284392.337    23284388.802
  21574423.507   -22914913.15443 -17850201.62042  21574424.576    21574419.639
  20417338.682   -25985024.94144 -20217813.19742  20417340.179    20417335.921
  22187506.342    -5761935.05043  -4475555.93642  22187506.780    22187503.250
  24599987.946    -5305783.14243  -4091648.58242  24599989.317    24599985.131
  24354255.566    29064278.53343  22652532.46742  24354256.439    24354254.127
  23552745.640    -9181704.85343  -7128712.10342  23552747.380    23552743.580
 03 12 24  2 33  0.0000000  0 10G30G10G26G18G21G 6G17G16G 5G29
  21751312.708   -15148075.51843 -11795609.82142  21751314.570    21751310.292
  22368226.156   -12274817.39843  -9526740.17942  22368226.935    22368223.068
  23455445.244    -9980151.96743  -7738448.05442  23455447.145    23455443.664
  23264720.452   -12598533.41743  -9615947.15642  23264721.720    23264718.237
  21565493.194   -22961842.13043 -17886769.61642  21565494.251    21565489.295
  20413316.137   -26006163.59944 -20234284.86342  20413317.612    20413313.326
  22199023.268    -5701413.00143  -4428395.88042  22199023.714    22199020.175
  24583533.752    -5392249.85443  -4159025.17642  24583535.203    24583531.030
  24374884.315    29172683.49843  22737003.81942  24374885.189    24374882.940
  23543251.378    -9231597.56643  -7167589.49642  23543253.088    23543249.229
 03 12 24  2 33 30.0000000  0 10G30G10G26G18G21G 6G17G16G 5G29
  21767847.475   -15061184.60743 -11727902.60542  21767849.340    21767845.077
  22384285.025   -12190427.22243  -9460981.58142  22384285.821    22384281.951
  23439725.520   -10062759.41143  -7802817.44442  23439727.410    23439723.892
  23245086.574   -12701709.53043  -9696344.01742  23245087.957    23245084.487
  21556605.015   -23008549.60243 -17923165.01242  21556606.074    21556601.129
  20409359.946   -26026953.41044 -20250484.69842  20409361.415    20409357.127
  22210561.464    -5640779.32843  -4381148.84242  22210561.897    22210558.383
  24567139.433    -5478402.42143  -4226156.97142  24567140.846    24567136.696
  24395512.060    29281082.69843  22821470.72142  24395512.853    24395510.712
  23533824.888    -9281133.78943  -7206189.11142  23533826.616    23533822.786
 03 12 24  2 34  0.0000000  0 10G30G10G26G18G21G 6G17G16G 5G29
  21784443.124   -14973973.66843 -11659946.02842  21784445.020    21784440.798
  22400411.765   -12105680.72043  -9394945.32842  22400412.529    22400408.642
  23424047.336   -10145148.38143  -7867016.57242  23424049.257    23424045.786
  23225489.140   -12804694.69343  -9776592.11142  23225490.496    23225486.973
  21547758.122   -23055040.20943 -17959391.42742  21547759.156    21547754.218
  20405469.586   -26047397.26544 -20266414.96042  20405471.076    20405466.750
  22222119.867    -5580039.38343  -4333819.00142  22222120.281    22222116.799
  24550804.569    -5564242.76043  -4293045.46642  24550805.916    24550801.595
  24416137.398    29389469.29343  22905927.78842  24416138.211    24416136.000
  23524465.861    -9330315.63743  -7244512.58842  23524467.588    23524463.694
 03 12 24  2 34 30.0000000  0 10G30G10G26G18G21G 6G17G16G 5G29
  21801100.304   -14886439.60343 -11591737.65742  21801102.178    21801097.947
  22416606.950   -12020574.43743  -9328628.71742  22416607.693    22416603.799
  23408412.599   -10227309.37743  -7931038.06142  23408414.471    23408411.031
  23205929.668   -12907480.29743  -9856684.68242  23205931.025    23205927.430
  21538953.563   -23101308.37943 -17995444.50542  21538954.596    21538949.640
  20401646.508   -26067487.62444 -20282069.76742  20401648.005    20401643.669
  22233699.541    -5519187.84343  -4286402.20842  22233699.915    22233696.467
  24534530.732    -5649762.03743  -4359683.80242  24534532.083    24534527.791
  24436760.984    29497846.63443  22990377.64842  24436761.729    24436759.578
  23515175.996    -9379134.16843  -7282552.96042  23515177.739    23515173.852
 03 12 24  2 35  0.0000000  0 10G30G10G26G18G21G 6G17G16G 5G29
  21817817.501   -14798590.00643 -11523283.42142  21817819.393    21817815.199
  22432869.131   -11935115.98043  -9262037.69342  22432869.900    22432866.007
  23392820.966   -10309243.61943  -7994882.86842  23392822.817    23392819.435
  23186407.634   -13010069.02743  -9936623.82942  23186408.996    23186405.371
  21530190.358   -23147359.12243 -18031328.16042  21530191.415    21530186.444
  20397890.059   -26087227.82844 -20297451.72942  20397891.558    20397887.217
  22245299.292    -5458230.44943  -4238902.92342  22245299.706    22245296.252
  24518317.477    -5734962.75243  -4426073.89942  24518318.775    24518314.585
  24457381.429    29606207.73943  23074814.85642  24457382.225    24457380.088
  23505954.894    -9427591.68443  -7320312.03642  23505956.635    23505952.629
 03 12 24  2 35 30.0000000  0 10G30G10G26G18G21G 6G17G16G 5G29
  21834594.336   -14710426.83843 -11454584.84442  21834596.249    21834592.068
  22449197.947   -11849307.54443  -9195173.96242  22449198.696    22449194.797
  23377273.331   -10390946.75243  -8058547.58742  23377275.207    23377271.799
  23166923.577   -13112458.02343 -10016407.35342  23166924.965    23166921.257
  21521468.692   -23193191.39643 -18067041.58242  21521469.774    21521464.817
  20394200.700   -26106615.56144 -20312559.03842  20394202.189    20394197.839
  22256919.265    -5397167.10443  -4191321.07742  22256919.641    22256916.196
  24502165.552    -5819841.33443  -4492212.98842  24502166.773    24502162.673
  24477998.445    29714550.92743  23159238.09842  24477999.296    24477997.039
  23496803.000    -9475684.96443  -7357787.25342  23496804.703    23496800.803
 03 12 24  2 36  0.0000000  0 10G30G10G26G18G21G 6G17G16G 5G29
  21851431.026   -14621949.39143 -11385641.37342  21851432.910    21851428.791
  22465593.504   -11763148.25343  -9128036.83242  22465594.248    22465590.364
  23361771.036   -10472411.54143  -8122026.57342  23361772.932    23361769.535
  23147478.661   -13214641.24543 -10096030.51842  23147480.065    23147476.337
  21512789.272   -23238801.86843 -18102582.17642  21512790.358    21512785.392
  20390579.364   -26125645.73744 -20327387.73042  20390580.858    20390576.491
  22268559.847    -5335995.17243  -4143654.61742  22268560.240    22268556.809
  24486076.024    -5904391.91043  -4558096.48342  24486077.326    24486073.231
  24498612.226    29822877.17643  23243648.15542  24498613.095    24498610.860
  23487721.710    -9523407.70743  -7394973.76242  23487723.388    23487719.402
 03 12 24  2 36 30.0000000  0 10G30G10G26G18G21G 6G17G16G 5G29
  21868325.691   -14533167.38343 -11316460.57942  21868327.550    21868323.402
  22482053.985   -11676647.84743  -9060633.89742  22482054.727    22482050.850
  23346313.494   -10553641.11743  -8185322.28142  23346315.412    23346311.964
  23128072.085   -13316622.95243 -10175496.65742  23128073.478    23128069.715
  21504150.727   -23284197.38543 -18137955.26742  21504151.822    21504146.886
  20387025.049   -26144323.72044 -20341941.98442  20387026.535    20387022.180
  22280219.771    -5274721.86343  -4095909.16042  22280220.165    22280216.698
  24470048.184    -5988618.62943  -4623727.60942  24470049.293    24470045.389
  24519221.092    29931177.46743  23328037.96042  24519221.931    24519219.731
  23478709.999    -9570764.20143  -7431874.88042  23478711.764    23478707.741
 03 12 24  2 37  0.0000000  0 10G30G10G26G18G21G 6G17G16G 5G29
  21885278.907   -14444077.55443 -11247039.92642  21885280.773    21885276.618
  22498579.995   -11589803.14443  -8992962.68542  22498580.705    22498576.852
  23330902.591   -10634626.07043  -8248427.37542  23330904.444    23330900.992
  23108705.402   -13418395.03643 -10254799.47342  23108706.806    23108702.970
  21495554.191   -23329372.17543 -18173156.36342  21495555.305    21495550.378
  20383539.181   -26162641.97344 -20356215.93042  20383540.677    20383536.330
  22291899.921    -5213342.22443  -4048080.86042  22291900.314    22291896.817
  24454083.471    -6072513.09743  -4689099.85142  24454084.736    24454080.769
  24539825.697    30039454.95943  23412410.00942  24539826.477    24539824.318
  23469769.669    -9617745.87143  -7468483.92342  23469771.391    23469767.382
 03 12 24  2 37 30.0000000  0 10G30G10G26G18G21G 6G17G16G 5G29
  21902289.684   -14354685.34843 -11177383.65642  21902291.542    21902287.357
  22515170.471   -11502619.27043  -8925027.18142  22515171.240    22515167.403
  23315538.388   -10715365.30843  -8311340.99942  23315540.249    23315536.765
  23089378.538   -13519957.87443 -10333939.22842  23089379.945    23089376.190
  21486999.176   -23374329.05743 -18208187.66342  21487000.250    21486995.332
  20380121.557   -26180601.56844 -20370210.40442  20380123.051    20380118.728
  22303599.713    -5151859.34043  -4000172.09542  22303600.122    22303596.596
  24438182.066    -6156075.26143  -4754213.16142  24438183.373    24438179.334
  24560425.086    30147704.97243  23496760.66642  24560425.830    24560423.601
  23460900.577    -9664352.85443  -7504801.00142  23460902.292    23460898.318
 03 12 24  2 38  0.0000000  0 10G30G10G26G18G21G 6G17G16G 5G29
  21919357.532   -14264993.09943 -11107493.58642  21919359.404    21919355.224
  22531825.070   -11415098.81343  -8856829.41142  22531825.804    22531821.992
  23300221.735   -10795854.80743  -8374060.03542  23300223.608    23300220.095
  23070092.006   -13621308.65543 -10412913.75842  23070093.432    23070089.579
  21478485.673   -23419067.81943 -18243049.00342  21478486.727    21478481.810
  20376772.575   -26198200.53244 -20383923.86742  20376774.049    20376769.741
  22315319.093    -5090273.66443  -3952183.24642  22315319.471    22315315.943
  24422344.485    -6239302.18643  -4819065.23442  24422345.743    24422341.622
  24581018.815    30255925.58343  23581088.42842  24581019.616    24581017.308
  23452103.424    -9710581.96343  -7540823.63742  23452105.142    23452101.204
 03 12 24  2 38 30.0000000  0 10G30G10G26G18G21G 6G17G16G 5G29
  21936482.274   -14175002.08543 -11037370.70342  21936484.149    21936479.914
  22548543.493   -11327242.79943  -8788370.17142  22548544.247    22548540.413
  23284953.513   -10876089.39743  -8436580.42142  23284955.423    23284951.897
  23050846.615   -13722443.65643 -10491720.15742  23050848.050    23050844.159
  21470013.993   -23463586.76043 -18277739.05542  21470015.066    21470010.097
  20373492.833   -26215435.69044 -20397353.84742  20373494.308    20373489.992
  22327058.197    -5028584.25443  -3904113.56442  22327058.545    22327055.027
  24406571.418    -6322189.94643  -4883653.01742  24406572.710    24406568.594
  24601606.786    30364116.27543  23665392.83142  24601607.611    24601605.298
  23443378.869    -9756429.26343  -7576548.75342  23443380.661    23443376.689
 03 12 24  2 39  0.0000000  0 10G30G10G26G18G21G 6G17G16G 5G29
  21953662.449   -14084719.59243 -10967020.70442  21953664.335    21953660.126
  22565324.369   -11239058.66143  -8719655.24642  22565325.096    22565321.276
  23269733.688   -10956069.87743  -8498902.82542  23269735.614    23269732.088
  23031641.855   -13823365.14443 -10570360.17442  23031643.241    23031639.343
  21461583.248   -23507890.53443 -18312261.44142  21461584.328    21461579.317
  20370281.729   -26232310.15144 -20410502.75942  20370283.190    20370278.883
  22338816.059    -4966796.19443  -3855967.00442  22338816.418    22338812.897
  24390862.546    -6404740.39943  -4947977.96042  24390863.887    24390859.689
  24622187.748    30472269.87043  23749668.32842  24622188.601    24622186.296
  23434726.645    -9801896.52443  -7611977.74142  23434728.427    23434724.499
 03 12 24  2 39 30.0000000  0 10G30G10G26G18G21G 6G17G16G 5G29
  21970898.415   -13994143.90243 -10896442.23042  21970900.321    21970896.089
  22582168.030   -11150544.44843  -8650683.11842  22582168.801    22582164.980
  23254563.752   -11035788.09743  -8561020.87142  23254565.756    23254562.145
  23012479.094   -13924065.88343 -10648828.20442  23012480.492    23012476.430
  21453194.270   -23551974.82843 -18346612.80442  21453195.355    21453190.346
  20367140.427   -26248817.66144 -20423365.73842  20367141.905    20367137.606
  22350593.436    -4904905.78443  -3807740.70342  22350593.769    22350590.231
  24375219.253    -6486946.22943  -5012034.37942  24375220.571    24375216.350
  24642762.078    30580388.65643  23833916.73442  24642762.991    24642760.584
  23426148.113    -9846976.86843  -7647105.23042  23426149.935    23426145.915
 03 12 24  2 40  0.0000000  0 10G30G10G26G18G21G 6G17G16G 5G29
  21988189.000   -13903281.26043 -10825640.16642  21988190.878    21988186.681
  22599073.342   -11061706.45043  -8581458.69642  22599074.096    22599070.269
  23239443.794   -11115243.77843  -8622934.33842  23239445.811    23239442.107
  22993358.138   -14024546.86143 -10727124.96942  22993359.520    22993355.447
  21444846.367   -23595843.06343 -18380795.81242  21444847.490    21444842.450
  20364068.595   -26264960.18844 -20435944.31842  20364070.060    20364065.753
  22362389.481    -4842916.93643  -3759437.69442  22362389.844    22362386.287
  24359641.304    -6568808.29443  -5075822.91442  24359642.695    24359638.466
  24663328.656    30688466.62843  23918133.33742  24663329.699    24663327.151
  23417643.104    -9891671.03843  -7681931.81642  23417644.870    23417640.854
 03 12 24  2 40 30.0000000  0 10G30G10G26G18G21G 6G17G16G 5G29
  22005534.100   -13812131.94043 -10754614.71542  22005535.994    22005531.818
  22616040.246   -10972544.63943  -8511981.95042  22616041.038    22616037.174
  23224374.933   -11194430.87643  -8684638.53342  23224376.883    23224373.247
  22974279.879   -14124803.55343 -10805246.97142  22974281.262    22974277.089
  21436540.084   -23639492.78143 -18414808.54142  21436541.223    21436536.133
  20361066.959   -26280733.73344 -20448235.37642  20361068.423    20361064.135
  22374204.656    -4780827.84643  -3711056.57142  22374204.989    22374201.422
  24344129.749    -6650321.74443  -5139339.80042  24344131.147    24344126.936
  24683887.518    30796504.15043  24002318.41942  24683888.574    24683886.012
  23409212.412    -9935974.04643  -7716453.58942  23409214.216    23409210.217
 03 12 24  2 41  0.0000000  0 10G30G10G26G18G21G 6G17G16G 5G29
  22022932.613   -13720702.42843 -10683370.92642  22022934.490    22022930.246
  22633067.519   -10883065.66843  -8442258.07042  22633068.307    22633064.419
  23209357.205   -11273349.36443  -8746133.40542  23209359.162    23209355.534
  22955244.004   -14224837.42943 -10883195.37342  22955245.356    22955241.133
  21428274.674   -23682927.68043 -18448653.88642  21428275.808    21428270.696
  20358135.145   -26296140.43744 -20460240.58642  20358136.607    20358132.319
  22386038.064    -4718642.88543  -3662600.74342  22386038.401    22386034.824
  24328684.341    -6731487.81243  -5202585.99742  24328685.729    24328681.554
  24704437.451    30904494.90543  24086467.01042  24704438.547    24704436.001
  23400856.078    -9979887.03643  -7750671.46642  23400857.842    23400853.791
 03 12 24  2 41 30.0000000  0 10G30G10G26G18G21G 6G17G16G 5G29
  22040384.770   -13628990.44343 -10611907.04542  22040386.641    22040382.482
  22650155.569   -10793267.18843  -8372285.21642  22650156.378    22650152.511
  23194392.214   -11351990.68443  -8807412.30142  23194394.147    23194390.617
  22936251.907   -14324641.10943 -10960964.36942  22936253.268    22936249.078
  21420051.035   -23726143.05043 -18482328.16642  21420052.182    21420047.049
  20355274.385   -26311173.75944 -20471954.85142  20355275.852    20355271.568
  22397890.510    -4656357.60143  -3614066.74442  22397890.864    22397887.311
  24313306.385    -6812298.77943  -5265555.49242  24313307.817    24313303.727
  24724979.109    31012441.94943  24170581.59842  24724980.198    24724977.720
  23392575.302   -10023402.52943  -7784579.59242  23392577.114    23392573.121
 03 12 24  2 42  0.0000000  0 10G30G10G26G18G21G 6G17G16G 5G29
  22057889.534   -13537002.52543 -10540228.12442  22057891.391    22057887.176
  22667303.250   -10703155.54443  -8302068.34142  22667304.052    22667300.196
  23179480.035   -11430354.57643  -8868475.03342  23179481.934    23179478.413
  22917303.441   -14424215.55843 -11038554.77142  22917304.810    22917300.571
  21411868.556   -23769142.33443 -18515834.06842  21411869.658    21411864.506
  20352484.254   -26325835.68844 -20483379.71642  20352485.768    20352481.489
  22409761.256    -4593976.11943  -3565457.78342  22409761.647    22409758.082
  24297995.854    -6892755.79343  -5328249.18042  24297997.328    24297993.053
  24745511.271    31120339.34743  24254657.52742  24745512.398    24745509.929
  23384370.041   -10066521.57243  -7818178.82842  23384371.838    23384367.817
 03 12 24  2 42 30.0000000  0 10G30G10G26G18G21G 6G17G16G 5G29
  22075446.195   -13444741.41143 -10468336.35342  22075448.058    22075443.906
  22684509.981   -10612733.63343  -8231609.70342  22684510.782    22684506.882
  23164621.350   -11508437.73143  -8929319.00542  23164623.227    23164619.595
  22898398.976   -14523558.86643 -11115965.05142  22898400.354    22898396.106
  21403727.100   -23811925.81643 -18549171.81442  21403728.215    21403723.042
  20349765.099   -26340124.87844 -20494514.13942  20349766.613    20349762.316
  22421650.275    -4531499.04543  -3516774.33942  22421650.615    22421647.051
  24282753.117    -6972856.47343  -5390665.20842  24282754.632    24282750.307
  24766033.635    31228185.09743  24338693.16942  24766034.778    24766032.274
  23376240.605   -10109241.82543  -7851467.27142  23376242.442    23376238.383
 03 12 24  2 43  0.0000000  0 10G30G10G26G18G21G 6G17G16G 5G29
  22093053.970   -13352211.59943 -10396235.18742  22093055.875    22093051.675
  22701774.928   -10522005.58543  -8160912.51642  22701775.733    22701771.853
  23149816.408   -11586237.91843  -8989942.46742  23149818.294    23149814.685
  22879538.652   -14622670.09443 -11193194.48742  22879540.066    22879535.770
  21395626.417   -23854495.25443 -18582342.78342  21395627.503    21395622.327
  20347116.885   -26354041.26444 -20505358.06542  20347118.400    20347114.112
  22433556.997    -4468928.62943  -3468018.16042  22433557.374    22433553.775
  24267578.415    -7052599.41443  -5452802.47542  24267579.999    24267575.628
  24786545.351    31335974.66643  24422685.03342  24786546.419    24786543.985
  23368187.279   -10151562.23943  -7884444.18242  23368189.141    23368185.059
 03 12 24  2 43 30.0000000  0 10G30G10G26G18G21G 6G17G16G 5G29
  22110713.261   -13259411.60943 -10323923.50642  22110715.135    22110710.991
  22719098.376   -10430970.17743  -8089975.82642  22719099.178    22719095.318
  23135066.834   -11663747.37043  -9050339.39142  23135068.684    23135065.164
  22860723.689   -14721543.08343 -11270238.30542  22860725.123    22860720.706
  21387567.227   -23896846.53843 -18615343.76042  21387568.303    21387563.106
  20344540.684   -26367579.26144 -20515907.14142  20344542.204    20344537.900
  22445482.167    -4406261.30043  -3419186.46442  22445482.579    22445478.960
  24252473.110    -7131978.18243  -5514655.97142  24252474.647    24252470.261
  24807046.855    31443710.08643  24506634.70542  24807047.798    24807045.444
  23360211.275   -10193476.39443  -7917104.52342  23360213.058    23360208.996
 03 12 24  2 44  0.0000000  0 10G30G10G26G18G21G 6G17G16G 5G29
  22128423.074   -13166345.48043 -10251404.44042  22128424.993    22128420.821
  22736479.630   -10339631.04343  -8018802.46742  22736480.421    22736476.565
  23120373.014   -11740963.49543  -9110507.75242  23120374.856    23120371.331
  22841954.266   -14820176.57543 -11347095.48042  22841955.690    22841951.355
  21379549.350   -23938980.58043 -18648175.44942  21379550.419    21379545.233
  20342036.618   -26380738.31644 -20526160.93642  20342038.117    20342033.813
  22457425.495    -4343498.66043  -3370280.50142  22457425.945    22457422.254
  24237437.308    -7210991.50543  -5576224.73142  24237438.848    24237434.428
  24827537.371    31551388.32243  24590539.85042  24827538.326    24827535.873
  23352312.870   -10234982.85743  -7949447.18642  23352314.586    23352310.469
 03 12 24  2 44 30.0000000  0  9G30G10G26G18G21G 6G17G16G29
  22146183.641   -13073013.51743 -10178678.22742  22146185.509    22146181.339
  22753918.722   -10247988.24543  -7947392.49242  22753919.454    22753915.628
  23105736.128   -11817880.30343  -9170442.87442  23105737.942    23105734.493
  22823231.419   -14918565.58843 -11423762.17142  22823232.856    22823228.359
  21371573.205   -23980895.35043 -18680836.27142  21371574.274    21371569.109
  20339605.379   -26393514.52044 -20536116.40842  20339606.867    20339602.577
  22469387.243    -4280639.10843  -3321299.01742  22469387.721    22469384.018
  24222472.054    -7289634.37843  -5637504.81342  24222473.569    24222469.047
  23344492.929   -10276076.67443  -7981468.29742  23344494.694    23344490.617
 03 12 24  2 45  0.0000000  0  9G30G10G26G18G21G 6G17G16G29
  22163992.772   -12979425.53743 -10105752.53442  22163994.649    22163990.556
  22771413.666   -10156051.85843  -7875753.74542  22771414.354    22771410.532
  23091155.606   -11894501.22743  -9230147.44242  23091157.444    23091154.016
  22804554.085   -15016715.29343 -11500242.37242  22804555.556    22804551.095
  21363637.446   -24022597.76343 -18713331.62142  21363638.522    21363633.374
  20337245.915   -26405913.54244 -20545777.97142  20337247.400    20337243.109
  22481366.030    -4217690.11443  -3272247.84642  22481366.502    22481362.821
  24207576.438    -7367911.43743  -5698499.85242  24207577.876    24207573.300
  23336750.557   -10316762.63343  -8013171.60542  23336752.352    23336748.207
 03 12 24  2 45 30.0000000  0  9G30G10G26G18G21G 6G17G16G29
  22181850.330   -12885583.63843 -10032628.96142  22181852.196    22181848.080
  22788964.024   -10063823.88343  -7803887.78342  22788964.753    22788960.918
  23076632.271   -11970821.77443  -9289617.94842  23076634.042    23076630.648
  22785923.014   -15114622.23343 -11576533.42642  22785924.443    22785919.941
  21355742.208   -24064087.27743 -18745661.08142  21355743.293    21355738.156
  20334958.652   -26417933.15044 -20555143.88742  20334960.135    20334955.839
  22493361.942    -4154651.25543  -3223126.64842  22493362.395    22493358.713
  24192751.024    -7445819.22443  -5759207.14842  24192752.419    24192747.854
  23329086.519   -10357037.30443  -8044554.42742  23329088.331    23329084.179
 03 12 24  2 46  0.0000000  0  9G30G10G26G18G21G 6G17G16G29
  22199756.319   -12791486.82843  -9959306.77942  22199758.163    22199754.173
  22806570.113    -9971303.32643  -7731793.82842  22806570.831    22806566.997
  23062167.447   -12046834.50343  -9348848.60742  23062169.246    23062165.856
  22767339.266   -15212280.19343 -11652630.47442  22767340.688    22767336.120
  21347888.361   -24105359.32043 -18777821.08242  21347889.451    21347884.349
  20332744.615   -26429568.09444 -20564210.06542  20332746.081    20332741.770
  22505375.551    -4091519.38443  -3173932.97542  22505375.956    22505372.353
  24177997.036    -7523351.61843  -5819621.93242  24177998.460    24177993.930
  23321501.835   -10396894.75943  -8075612.14942  23321503.702    23321499.526
 03 12 24  2 46 30.0000000  0  9G30G10G26G18G21G 6G17G16G29
  22217709.153   -12697143.98743  -9885792.86242  22217711.027    22217706.963
  22824230.203    -9878498.91043  -7659478.69642  22824230.919    22824227.078
  23047760.768   -12122541.89643  -9407841.32842  23047762.574    23047759.126
  22748802.252   -15309692.79843 -11728536.32442  22748803.645    22748799.074
  21340074.635   -24146420.64743 -18809816.88442  21340075.727    21340070.612
  20330602.907   -26440822.89044 -20572980.02342  20330604.367    20330600.035
  22517405.605    -4028301.11543  -3124671.97442  22517405.983    22517402.349
  24163313.815    -7600512.13343  -5879746.94042  24163315.244    24163310.684
  23313995.951   -10436338.51543  -8106347.50142  23313997.805    23313993.602
 03 12 24  2 47  0.0000000  0  9G30G10G26G18G21G 6G17G16G29
  22235709.393   -12602552.28043  -9812085.04842  22235711.244    22235707.249
  22841944.929    -9785407.44243  -7586939.88742  22841945.653    22841941.800
  23033413.992   -12197934.66443  -9466588.89542  23033415.777    23033412.251
  22730313.167   -15406853.17543 -11804245.64442  22730314.585    22730309.916
  21332302.001   -24187266.23743 -18841644.58042  21332303.058    21332297.921
  20328534.881   -26451690.34344 -20581448.15242  20328536.370    20328532.013
  22529453.058    -3964991.29343  -3075339.63742  22529453.455    22529449.839
  24148702.948    -7677292.58043  -5939575.79442  24148704.357    24148699.745
  23306570.284   -10475360.56943  -8136754.24942  23306572.108    23306567.958
 03 12 24  2 47 30.0000000  0  9G30G10G26G18G21G 6G17G16G29
  22253756.389   -12507714.41743  -9738185.40442  22253758.280    22253754.212
  22859713.765    -9692031.47943  -7514179.39042  22859714.517    22859710.648
  23019127.791   -12273009.03843  -9525088.36842  23019129.581    23019125.963
  22711872.790   -15503757.87343 -11879755.72342  22711874.178    22711869.556
  21324570.482   -24227895.49243 -18873303.70242  21324571.545    21324566.408
  20326540.867   -26462168.87944 -20589613.23542  20326542.344    20326537.986
  22541517.873    -3901590.09343  -3025936.10742  22541518.264    22541514.673
  24134164.866    -7753690.37243  -5999106.48242  24134166.278    24134161.684
  23299225.371   -10513958.31843  -8166830.38242  23299227.170    23299223.008
 03 12 24  2 48  0.0000000  0  9G30G10G26G18G21G 6G17G16G29
  22271849.306   -12412635.75143  -9664098.13842  22271851.187    22271847.140
  22877535.748    -9598376.26443  -7441201.29142  22877536.512    22877532.648
  23004902.392   -12347764.10943  -9583339.02742  23004904.126    23004900.477
  22693480.829   -15600407.72843 -11955067.23942  22693482.209    22693477.577
  21316879.626   -24268311.18043 -18904796.41442  21316880.691    21316875.545
  20324620.615   -26472259.87944 -20597476.34042  20324622.092    20324617.714
  22553599.424    -3838101.01743  -2976464.09542  22553599.811    22553596.236
  24119699.568    -7829705.90743  -6058339.30642  24119700.966    24119696.283
  23291961.017   -10552132.52343  -8196576.48342  23291962.810    23291958.660
 03 12 24  2 48 30.0000000  0  9G30G10G26G18G21G 6G17G16G29
  22289986.892   -12317321.65743  -9589827.41742  22289988.818    22289984.774
  22895409.841    -9504447.10343  -7368009.71942  22895410.619    22895406.799
  22990737.993   -12422198.56643  -9641339.86142  22990739.725    22990736.039
  22675137.418   -15696802.82443 -12030180.23142  22675138.801    22675134.180
  21309228.945   -24308515.76543 -18936124.63042  21309230.022    21309224.819
  20322773.962   -26481964.10144 -20605038.05942  20322775.407    20322771.049
  22565697.184    -3774526.77743  -2926925.72242  22565697.562    22565694.023
  24105307.060    -7905338.82043  -6117273.98042  24105308.419    24105303.735
  23284777.288   -10589882.86643  -8225992.28542  23284779.081    23284774.926
 03 12 24  2 49  0.0000000  0 10G30G15G10G26G18G21G 6G17G16G29
  22308167.946   -12221780.01343  -9515379.37242  22308169.845    22308165.724
  24733577.591    -5927168.39553  -4584208.48752  24733578.000    24733576.647
  22913334.556    -9410251.87743  -7294610.84642  22913335.360    22913331.520
  22976634.255   -12496313.93743  -9699092.04942  22976636.055    22976632.230
  22656841.937   -15792945.89143 -12105096.84942  22656843.320    22656838.665
  21301617.470   -24348514.23843 -18967292.23742  21301618.554    21301613.317
  20321000.235   -26491285.08744 -20612301.15642  20321001.685    20320997.301
  22577810.158    -3710872.76743  -2877325.19242  22577810.510    22577806.975
  24090986.840    -7980591.66243  -6175912.50142  24090988.183    24090983.527
  23277673.716   -10627212.25143  -8255080.08742  23277675.506    23277671.314
 03 12 24  2 49 30.0000000  0 10G30G15G10G26G18G21G 6G17G16G29
  22326395.155   -12125995.03343  -9440741.74142  22326397.044    22326393.062
  24718088.316    -6008564.43743  -4647633.95642  24718088.891    24718087.393
  22931312.933    -9315774.71943  -7220992.27042  22931313.727    22931309.914
  22962595.494   -12570088.12143  -9756578.38442  22962597.357    22962593.435
  22638598.303   -15888816.48543 -12179801.15942  22638599.683    22638595.060
  21294048.682   -24388288.36844 -18998285.03542  21294049.789    21294044.520
  20319303.232   -26500202.87444 -20619250.06942  20319304.682    20319300.289
  22589941.653    -3647121.38543  -2827648.78342  22589942.021    22589938.474
  24076742.957    -8055443.82843  -6234238.80842  24076744.166    24076739.547
  23270654.205   -10664099.78743  -8283823.58942  23270655.995    23270651.793
 03 12 24  2 50  0.0000000  0 10G30G15G10G26G18G21G 6G17G16G29
  22344665.849   -12029982.00043  -9365926.36942  22344667.747    22344663.674
  24702615.127    -6089876.51743  -4710994.01642  24702615.798    24702614.126
  22949342.121    -9221030.74343  -7147165.78342  22949342.925    22949339.092
  22948619.965   -12643529.99943  -9813805.78142  22948621.799    22948617.831
  22620404.608   -15984424.79543 -12254301.07842  22620405.941    22620401.402
  21286520.176   -24427850.71944 -19029112.81142  21286521.288    21286516.039
  20317680.861   -26508728.50944 -20625893.41242  20317682.299    20317677.904
  22602089.238    -3583285.27343  -2777906.35442  22602089.621    22602086.067
  24062573.384    -8129905.13643  -6292260.55742  24062574.547    24062570.054
  23263716.879   -10700555.76243  -8312230.80642  23263718.615    23263714.455
 03 12 24  2 50 30.0000000  0 10G30G15G10G26G18G21G 6G17G16G29
  22362979.428   -11933743.14143  -9290935.07142  22362981.332    22362977.392
  24687158.086    -6171103.45843  -4774287.71442  24687158.783    24687157.092
  22967421.728    -9126021.89743  -7073132.90842  22967422.518    22967418.660
  22934708.425   -12716635.13943  -9870770.77542  22934710.308    22934706.320
  22602261.426   -16079767.66243 -12328594.17142  22602262.737    22602258.126
  21279032.173   -24467200.33044 -19059774.81142  21279033.271    21279028.009
  20316133.505   -26516859.86444 -20632229.52342  20316134.955    20316130.543
  22614253.044    -3519364.06243  -2728097.61842  22614253.427    22614249.848
  24048478.866    -8203972.45643  -6349975.30242  24048479.994    24048475.492
  23256862.249   -10736577.09243  -8340299.34242  23256863.972    23256859.797
 03 12 24  2 51  0.0000000  0 10G30G15G10G26G18G21G 6G17G16G29
  22381335.686   -11837280.54843  -9215769.40042  22381337.574    22381333.544
  24671717.473    -6252244.67043  -4837514.62542  24671718.170    24671716.245
  22985551.275    -9030750.39843  -6998895.36642  22985552.082    22985548.214
  22920861.788   -12789399.46943  -9927470.20642  22920863.622    22920859.749
  22584169.346   -16174842.34443 -12402678.27742  22584170.612    22584166.050
  21271584.673   -24506336.99044 -19090270.86742  21271585.789    21271580.499
  20314661.569   -26524594.95144 -20638256.85042  20314663.009    20314658.592
  22626432.994    -3455357.79543  -2678222.59242  22626433.435    22626429.861
  24034459.804    -8277642.93943  -6407380.82442  24034460.951    24034456.377
  23250090.842   -10772161.09743  -8368027.11142  23250092.533    23250088.319
 03 12 24  2 51 30.0000000  0 10G30G15G10G26G18G21G 6G17G16G29
  22399734.711   -11740592.90043  -9140428.38642  22399736.595    22399732.635
  24656294.012    -6333295.37443  -4900670.98142  24656294.783    24656292.788
  23003731.126    -8935214.53643  -6924451.83142  23003731.937    23003728.061
  22907081.575   -12861815.05343  -9983897.88342  22907083.378    22907079.464
  22566129.447   -16269642.21043 -12476548.25942  22566130.724    22566126.088
  21264178.573   -24545256.15044 -19120597.44842  21264179.686    21264174.397
  20313266.076   -26531928.27544 -20643971.11842  20313267.516    20313263.090
  22638629.930    -3391262.49443  -2628278.19942  22638630.367    22638626.800
  24020517.524    -8350909.69143  -6464471.74942  24020518.661    24020514.106
  23243403.859   -10807301.14143  -8395408.92442  23243405.569    23243401.355
 03 12 24  2 52  0.0000000  0 10G30G15G10G26G18G21G 6G17G16G29
  22418174.101   -11643693.37143  -9064922.25742  22418176.000    22418171.961
  24640885.825    -6414265.84143  -4963764.77242  24640886.477    24640884.640
  23021958.840    -8839427.29943  -6849812.41742  23021959.648    23021955.787
  22893366.414   -12933888.77043 -10040059.17242  22893368.151    22893364.193
  22548140.334   -16364175.47843 -12550210.49542  22548141.618    22548137.022
  21256811.794   -24583968.72044 -19150763.05542  21256812.900    21256807.615
  20311945.361   -26538868.78244 -20649379.29742  20311946.782    20311942.351
  22650841.651    -3327089.24443  -2578273.06642  22650842.135    22650838.560
  24006650.544    -8423780.91443  -6521254.47442  24006651.754    24006647.240
  23236799.850   -10842005.44843  -8422451.21842  23236801.574    23236797.306
 03 12 24  2 52 30.0000000  0 10G30G15G10G26G18G21G 6G17G16G29
  22436655.033   -11546575.26043  -8989245.80742  22436656.946    22436652.877
  24625494.784    -6495146.24043  -5026788.35442  24625495.383    24625493.687
  23040235.704    -8743381.80943  -6774971.78542  23040236.480    23040232.615
  22879718.697   -13005607.56443 -10095943.89742  22879720.485    22879716.529
  22530204.068   -16458430.62843 -12623656.01442  22530205.370    22530200.811
  21249486.183   -24622464.86644 -19180760.02042  21249487.292    21249481.973
  20310701.455   -26545405.47444 -20654472.81642  20310702.902    20310698.456
  22663070.044    -3262828.78543  -2528199.97842  22663070.482    22663066.906
  23992861.136    -8496244.58243  -6577719.62242  23992862.367    23992857.756
  23230280.990   -10876262.24843  -8449144.80242  23230282.706    23230278.426
 03 12 24  2 53  0.0000000  0 10G30G15G10G26G18G21G 6G17G16G29
  22455175.788   -11449248.08543  -8913406.46342  22455177.693    22455173.697
  24610119.561    -6575943.12243  -5089746.87242  24610120.233    24610118.478
  23058559.802    -8647087.71343  -6699937.41942  23058560.622    23058556.751
  22866137.985   -13076974.59243 -10151554.52842  22866139.775    22866135.799
  22512319.980   -16552412.14543 -12696888.33242  22512321.299    22512316.638
  21242200.459   -24660751.53044 -19210593.75742  21242201.568    21242196.227
  20309533.386   -26551543.73044 -20659255.86242  20309534.821    20309530.383
  22675313.585    -3198488.42143  -2478064.61742  22675314.050    22675310.467
  23979148.373    -8568305.07243  -6633870.60042  23979149.646    23979145.061
  23223846.417   -10910076.08443  -8475493.21542  23223848.141    23223843.866
 03 12 24  2 53 30.0000000  0 10G30G15G10G26G18G21G 6G17G16G29
  22473736.426   -11351711.33643  -8837403.78942  22473738.308    22473734.221
  24594760.956    -6656652.86543  -5152637.48942  24594761.809    24594759.880
  23076931.477    -8550543.93843  -6624708.49842  23076932.251    23076928.385
  22852625.477   -13147982.87243 -10206885.60442  22852627.284    22852623.340
  22494488.925   -16646114.53843 -12769903.11942  22494490.254    22494485.675
  21234955.198   -24698825.44044 -19240261.70342  21234956.316    21234950.963
  20308442.034   -26557278.66244 -20663724.63242  20308443.471    20308439.057
  22687572.945    -3134064.97143  -2427864.52442  22687573.417    22687569.849
  23965513.426    -8639956.80943  -6689703.07542  23965514.762    23965510.114
  23217497.180   -10943441.50843  -8501492.21742  23217498.868    23217494.571
 03 12 24  2 54  0.0000000  0 10G30G15G10G26G18G21G 6G17G16G29
  22492336.053   -11253969.73443  -8761241.51242  22492337.926    22492333.951
  24579418.567    -6737277.10343  -5215461.49742  24579419.560    24579417.530
  23095349.794    -8453755.23543  -6549288.72942  23095350.550    23095346.656
  22839181.574   -13218630.88043 -10261935.94942  22839183.321    22839179.396
  22476711.154   -16739537.25843 -12842700.01842  22476712.462    22476707.801
  21227750.079   -24736688.45844 -19269765.32442  21227751.205    21227745.839
  20307427.339   -26562610.86144 -20667879.58942  20307428.784    20307424.355
  22699847.613    -3069560.99043  -2377601.67642  22699848.115    22699844.519
  23951956.446    -8711199.06443  -6745216.47242  23951957.780    23951953.086
  23211233.271   -10976358.35443  -8527141.68542  23211235.014    23211230.645
 03 12 24  2 54 30.0000000  0 10G30G15G10G26G18G21G 6G17G16G29
  22510975.021   -11156021.42143  -8684918.14742  22510976.897    22510972.844
  24564093.449    -6817810.73543  -5278214.92242  24564094.508    24564092.294
  23113815.072    -8356719.62843  -6473676.55542  23113815.800    23113811.888
  22825807.775   -13288910.29443 -10316699.08442  22825809.594    22825805.621
  22458987.868   -16832673.56743 -12915273.71242  22458989.212    22458984.561
  21220585.975   -24774335.93944 -19299100.99242  21220587.079    21220581.719
  20306490.459   -26567534.17744 -20671715.92842  20306491.912    20306487.474
  22712138.511    -3004972.05143  -2327272.62742  22712138.974    22712135.352
  23938478.680    -8782024.95843  -6800405.44342  23938480.023    23938475.361
  23205056.057   -11008819.70743  -8552436.21042  23205057.770    23205053.436
 03 12 24  2 55  0.0000000  0 10G30G15G10G26G18G21G 6G17G16G29
  22529650.999   -11057878.50743  -8608443.15042  22529652.830    22529648.787
  24548783.858    -6898263.14743  -5340905.07742  24548784.984    24548782.565
  23132325.074    -8259448.94643  -6397881.22142  23132325.825    23132321.929
  22812503.021   -13358826.66643 -10371179.32842  22812504.878    22812500.942
  22441317.744   -16925530.64243 -12987629.84242  22441319.033    22441314.327
  21213461.108   -24811777.23044 -19328275.99542  21213462.215    21213456.844
  20305629.852   -26572056.57444 -20675239.86542  20305631.311    20305626.879
  22724443.755    -2940307.84443  -2276884.93742  22724444.197    22724440.515
  23925078.766    -8852441.40543  -6855275.35242  23925080.195    23925075.508
  23198964.159   -11040832.66043  -8577381.34842  23198965.870    23198961.557
 03 12 24  2 55 30.0000000  0 10G30G15G10G26G18G21G 6G17G16G29
  22548365.209   -10959534.91043  -8531811.78642  22548367.070    22548363.044
  24533491.422    -6978625.10243  -5403524.73042  24533492.585    24533490.174
  23150880.998    -8161937.10743  -6321897.97042  23150881.710    23150877.805
  22799269.674   -13428368.11743 -10425367.43542  22799271.527    22799267.577
  22423702.885   -17018097.23743 -13059759.60942  22423704.177    22423699.537
  21206377.181   -24849003.48744 -19357283.43642  21206378.271    21206372.890
  20304847.505   -26576167.93244 -20678443.51642  20304848.942    20304844.505
  22736764.865    -2875559.90243  -2226431.98242  22736765.296    22736761.624
  23911759.017    -8922437.30043  -6909817.57342  23911760.377    23911755.685
  23192959.660   -11072386.35343  -8601968.61142  23192961.405    23192957.037
 03 12 24  2 56  0.0000000  0 10G30G15G10G26G18G21G 6G17G16G29
  22567116.180   -10860997.49843  -8455029.37842  22567118.079    22567113.982
  24518215.550    -7058900.14143  -5466076.66842  24518216.726    24518214.286
  23169481.518    -8064190.74943  -6245731.96742  23169482.240    23169478.343
  22786107.680   -13497534.65943 -10479263.40142  22786109.508    22786105.628
  22406142.969   -17110375.06043 -13131664.37142  22406144.266    22406139.514
  21199333.423   -24886018.58944 -19386126.34542  21199334.514    21199329.125
  20304142.826   -26579870.89344 -20681328.93142  20304144.286    20304139.850
  22749101.072    -2810732.53243  -2175917.14942  22749101.469    22749097.835
  23898518.922    -8992014.26043  -6964033.34042  23898520.231    23898515.576
  23187042.181   -11103482.70643  -8626199.52542  23187043.924    23187039.538
 03 12 24  2 56 30.0000000  0 10G30G15G10G26G18G21G 6G17G16G29
  22585902.904   -10762273.08743  -8378101.27642  22585904.785    22585900.696
  24502955.467    -7139092.25043  -5528563.99042  24502956.528    24502954.221
  23188125.444    -7966216.39143  -6169388.32242  23188126.098    23188122.247
  22773016.857   -13566326.98643 -10532867.77642  22773018.693    22773014.843
  22388637.603   -17202366.41443 -13203345.89942  22388638.887    22388634.165
  21192329.020   -24922826.83644 -19414808.06842  21192330.114    21192324.740
  20303515.373   -26583168.22944 -20683898.27742  20303516.817    20303512.383
  22761451.547    -2745830.26543  -2125343.94642  22761451.942    22761448.289
  23885358.268    -9061173.88343  -7017923.91542  23885359.530    23885354.888
  23181211.407   -11134123.65043  -8650075.56242  23181213.106    23181208.720
 03 12 24  2 57  0.0000000  0 10G30G15G10G26G18G21G 6G17G16G29
  22604725.519   -10663359.11243  -8301025.45442  22604727.439    22604723.361
  24487712.317    -7219195.83143  -5590982.31442  24487713.238    24487710.959
  23206813.221    -7868011.42843  -6092864.96142  23206813.910    23206810.019
  22759999.031   -13634736.22943 -10586173.63642  22760000.856    22759996.922
  22371188.199   -17294063.54543 -13274798.17042  22371189.511    22371184.692
  21185364.988   -24959423.10644 -19443324.61742  21185366.046    21185360.683
  20302966.390   -26586053.18744 -20686146.28942  20302967.819    20302963.399
  22773817.212    -2680848.06143  -2074708.46342  22773817.644    22773813.983
  23872278.411    -9129908.89243  -7071483.62642  23872279.654    23872275.028
  23175468.634   -11164301.92243  -8673591.06942  23175470.328    23175465.986
 03 12 24  2 57 30.0000000  0 10G30G15G10G26G18G21G 6G17G16G29
  22623583.776   -10564258.33043  -8223804.05242  22623585.733    22623581.590
  24472485.989    -7299210.40343  -5653331.29342  24472486.974    24472484.671
  23225544.418    -7769578.39043  -6016163.88542  23225545.156    23225541.206
  22747054.802   -13702758.73943 -10639178.16342  22747056.575    22747052.632
  22353795.178   -17385464.20443 -13346019.41842  22353796.511    22353791.726
  21178441.381   -24995806.92644 -19471675.61842  21178442.423    21178437.032
  20302496.135   -26588524.29744 -20688071.82142  20302497.587    20302493.148
  22786198.145    -2615785.87243  -2024010.64942  22786198.564    22786194.909
  23859279.903    -9198216.47543  -7124710.27742  23859281.079    23859276.487
  23169814.407   -11194015.00643  -8696744.10142  23169816.143    23169811.749
 03 12 24  2 58  0.0000000  0 10G30G15G10G26G18G21G 6G17G16G29
  22642476.215   -10464977.64643  -8146442.49442  22642478.185    22642474.139
  24457275.839    -7379139.89143  -5715613.96742  24457276.828    24457274.532
  23244317.749    -7670923.83843  -5939290.20642  23244318.487    23244314.564
  22734183.964   -13770395.17443 -10691881.83742  22734185.738    22734181.809
  22336458.282   -17476570.39643 -13417011.22142  22336459.605    22336454.738
  21171557.343   -25031982.76444 -19499864.55842  21171558.385    21171552.989
  20302104.048   -26590584.55644 -20689677.21242  20302105.500    20302101.104
  22798593.337    -2550648.69343  -1973254.41142  22798593.766    22798590.135
  23846362.384    -9266098.64743  -7177605.44042  23846363.513    23846358.826
  23164248.227   -11223265.47943  -8719536.65742  23164249.947    23164245.531
 03 12 24  2 58 30.0000000  0 10G30G15G10G26G18G21G 6G17G16G29
  22661402.382   -10365520.26243  -8068943.22642  22661404.319    22661400.164
  24442081.857    -7458984.56343  -5777830.53042  24442082.889    24442080.549
  23263132.587    -7572050.93843  -5862246.38342  23263133.350    23263129.426
  22721387.288   -13837642.46243 -10744282.29342  22721389.038    22721385.063
  22319177.615   -17567380.52743 -13487772.31942  22319178.937    22319174.163
  21164712.833   -25067950.90044 -19527891.65742  21164713.878    21164708.465
  20301790.356   -26592233.10444 -20690961.78742  20301791.786    20301787.398
  22811002.716    -2485436.98943  -1922440.09442  22811003.146    22810999.484
  23833526.069    -9333553.41743  -7230167.56042  23833527.269    23833522.628
  23158770.404   -11252051.43843  -8741967.24742  23158772.108    23158767.694
 03 12 24  2 59  0.0000000  0 10G30G15G10G26G18G21G 6G17G16G29
  22680362.918   -10265881.82843  -7991302.90342  22680364.826    22680360.740
  24426905.405    -7538736.76543  -5839975.00342  24426906.531    24426904.304
  23281989.922    -7472954.92343  -5785028.70542  23281990.662    23281986.750
  22708666.674   -13904489.87043 -10796371.15642  22708668.418    22708664.356
  22301955.149   -17657885.15743 -13558295.36742  22301956.479    22301951.673
  21157909.223   -25103703.96544 -19555751.16042  21157910.303    21157904.882
  20301556.646   -26593461.30944 -20691918.82542  20301558.070    20301553.646
  22823427.586    -2420143.85643  -1871562.32942  22823427.966    22823424.367
  23820772.949    -9400571.41643  -7282389.34142  23820774.205    23820769.475
  23153382.738   -11280363.66143  -8764028.69042  23153384.437    23153380.053
 03 12 24  2 59 30.0000000  0 10G30G15G10G26G18G21G 6G17G16G29
  22699355.857   -10166073.42743  -7913530.11942  22699357.722    22699353.658
  24411745.053    -7618404.51043  -5902053.63842  24411746.175    24411743.946
  23300887.672    -7373646.61543  -5707645.61442  23300888.387    23300884.443
  22696021.174   -13970942.17543 -10848152.13942  22696022.957    22696018.911
  22284789.679   -17748090.25643 -13628585.01442  22284790.990    22284786.166
  21151144.927   -25139250.47544 -19583449.70642  21151146.009    21151140.586
  20301401.545   -26594276.09944 -20692553.71942  20301403.004    20301398.585
  22835866.307    -2354777.85143  -1820627.78342  22835866.709    22835863.122
  23808101.726    -9467158.68243  -7334275.49242  23808103.019    23808098.310
  23148083.995   -11308208.71943  -8785726.11842  23148085.680    23148081.332
 03 12 24  3  0  0.0000000  0 10G30G15G10G26G18G21G 6G17G16G29
  22718381.085   -10066095.25143  -7835625.04142  22718382.900    22718378.807
  24396601.245    -7697985.13943  -5964064.37742  24396602.345    24396600.105
  23319825.686    -7274126.33443  -5630097.33342  23319826.479    23319822.541
  22683452.022   -14036993.49943 -10899620.66742  22683453.818    22683449.782
  22267682.011   -17837991.22743 -13698637.66842  22267683.348    22267678.582
  21144420.396   -25174588.06144 -19610985.46142  21144421.450    21144416.040
  20301325.909   -26594673.57244 -20692863.43242  20301327.353    20301322.936
  22848319.287    -2289336.92043  -1769634.85442  22848319.682    22848316.095
  23795513.481    -9533310.40843  -7385822.26242  23795514.752    23795509.984
  23142875.010   -11335581.97443  -8807055.90542  23142876.693    23142872.321
 03 12 24  3  0 30.0000000  0 10G30G15G10G26G18G21G 6G17G16G29
  22737438.549    -9965947.76843  -7757588.06042  22737440.313    22737436.335
  24381474.539    -7777476.05743  -6026005.22242  24381475.566    24381473.450
  23338804.092    -7174394.06743  -5552383.86942  23338804.844    23338800.940
  22670960.236   -14102638.05843 -10950772.24142  22670962.042    22670958.014
  22250633.039   -17927584.06143 -13768450.23542  22250634.362    22250629.555
  21137736.073   -25209714.24044 -19638356.48442  21137737.149    21137731.723
  20301330.376   -26594650.19944 -20692845.21742  20301331.786    20301327.388
  22860786.990    -2223818.80143  -1718581.76542  22860787.388    22860783.742
  23783008.925    -9599022.24743  -7437026.25042  23783010.179    23783005.394
  23137756.574   -11362479.13443  -8828014.70742  23137758.340    23137753.937
 03 12 24  3  1  0.0000000  0 10G30G15G10G26G18G21G 6G17G16G29
  22756526.785    -9865638.33243  -7679424.85842  22756528.568    22756524.524
  24366364.070    -7856881.57543  -6087879.51842  24366365.136    24366362.889
  23357821.438    -7074457.26043  -5474511.02842  23357822.227    23357818.268
  22658545.698   -14167876.86243 -11001607.64142  22658547.455    22658543.403
  22233642.221   -18016870.99343 -13838024.41142  22233643.547    22233638.825
  21131091.145   -25244633.41644 -19665566.21042  21131092.228    21131086.805
  20301414.242   -26594209.37344 -20692501.70942  20301415.668    20301411.271
  22873268.413    -2158228.52543  -1667472.46942  22873268.819    22873265.153
  23770587.651    -9664296.24343  -7487889.06942  23770588.970    23770584.112
  23132728.328   -11388902.87543  -8848604.61242  23132730.086    23132725.624
 03 12 24  3  1 30.0000000  0 10G30G15G10G26G18G21G 6G17G16G29
  22775646.035    -9765165.95643  -7601134.70642  22775647.805    22775643.805
  24351270.602    -7936197.64243  -6149684.11542  24351271.701    24351269.342
  23376877.987    -6974314.49543  -5396477.71342  23376878.770    23376874.788
  22646209.720   -14232702.76943 -11052121.30342  22646211.440    22646207.348
  22216710.852   -18105845.99443 -13907355.55642  22216712.154    22216707.349
  21124486.301   -25279342.00844 -19692611.84242  21124487.377    21124481.961
  20301578.512   -26593346.01944 -20691828.96242  20301579.973    20301575.540
  22885764.262    -2092562.56943  -1616304.19642  22885764.669    22885760.968
  23758250.834    -9729126.58743  -7538406.20142  23758252.116    23758247.303
  23127791.220   -11414847.58443  -8868821.26442  23127792.986    23127788.478
 03 12 24  3  2  0.0000000  0 10G30G15G10G26G18G21G 6G17G16G29
  22794795.049    -9664537.12943  -7522722.63442  22794796.828    22794792.841
  24336193.564    -8015427.53343  -6211421.53742  24336194.673    24336192.321
  23395972.583    -6873971.85343  -5318288.63542  23395973.308    23395969.357
  22633952.242   -14297115.89943 -11102313.31842  22633954.028    22633949.892
  22199838.409   -18194510.82043 -13976444.97442  22199839.752    22199835.009
  21117920.825   -25313843.61444 -19719496.18142  21117921.906    21117916.495
  20301822.723   -26592062.54844 -20690828.84842  20301824.212    20301819.777
  22898273.717    -2026824.64643  -1565079.83242  22898274.165    22898270.520
  23745998.171    -9793514.71643  -7588578.72842  23745999.463    23745994.614
  23122944.959   -11440314.97443  -8888665.94842  23122946.722    23122942.170
 03 12 24  3  2 30.0000000  0 10G30G15G10G26G18G21G 6G17G16G29
  22813973.966    -9563751.54043  -7444188.40142  22813975.754    22813971.666
  24321133.441    -8094568.14543  -6273089.37342  24321134.658    24321132.275
  23415105.266    -6773428.88443  -5239943.45642  23415106.007    23415102.089
  22621774.607   -14361109.91743 -11152178.76542  22621776.369    22621772.189
  22183026.025   -18282860.22743 -14045288.63342  22183027.356    22183022.606
  21111395.338   -25348135.21244 -19746216.88342  21111396.404    21111390.990
  20302147.724   -26590354.69244 -20689498.04942  20302149.201    20302144.769
  22910797.408    -1961012.18943  -1513797.40842  22910797.856    22910794.207
  23733830.699    -9857455.25243  -7638402.49542  23733831.961    23733827.101
  23118190.454   -11465300.12143  -8908134.87042  23118192.152    23118187.622
 03 12 24  3  3  0.0000000  0 10G30G15G10G26G18G21G 6G17G16G29
  22833181.546    -9462814.89443  -7365536.47542  22833183.396    22833179.283
  24306089.835    -8173622.39243  -6334689.92742  24306091.010    24306088.674
  23434274.951    -6672691.43043  -5161446.73142  23434275.715    23434271.780
  22609676.737   -14424684.43943 -11201717.30942  22609678.522    22609674.376
  22166273.535   -18370895.17843 -14113887.25042  22166274.870    22166270.134
  21104909.201   -25382220.02444 -19772776.45842  21104910.263    21104904.821
  20302553.099   -26588224.33744 -20687838.03042  20302554.585    20302550.158
  22923334.659    -1895128.43943  -1462459.41842  22923335.096    22923331.469
  23721748.210    -9920949.12943  -7687878.21742  23721749.417    23721744.636
  23113527.485   -11489804.27443  -8927229.00742  23113529.170    23113524.611
 03 12 24  3  3 30.0000000  0 10G30G15G10G26G18G21G 6G17G16G29
  22852417.392    -9361729.89943  -7286768.95142  22852419.260    22852415.088
  24291062.799    -8252589.47043  -6396222.57442  24291064.025    24291061.694
  23453481.336    -6571761.42743  -5082799.97942  23453482.078    23453478.137
  22597659.461   -14487835.63743 -11250926.01042  22597661.245    22597657.053
  22149581.297   -18458613.24643 -14182238.95642  22149582.619    22149577.834
  21098462.529   -25416097.51444 -19799174.47942  21098463.560    21098458.084
  20303039.187   -26585669.84844 -20685847.51742  20303040.662    20303036.244
  22935885.455    -1829173.37843  -1411065.86742  22935885.961    22935882.327
  23709751.149    -9983994.00843  -7737004.06942  23709752.378    23709747.561
  23108956.437   -11513825.15043  -8945946.55042  23108958.134    23108953.525
 03 12 24  3  4  0.0000000  0 10G30G15G10G26G18G21G 6G17G16G29
  22871681.753    -9260494.93043  -7207884.55242  22871683.629    22871679.434
  24276053.295    -8331464.96743  -6457683.86442  24276054.419    24276052.024
  23472724.562    -6470637.48543  -5004002.08842  23472725.298    23472721.355
  22585724.202   -14550556.01843 -11299799.00842  22585726.015    22585721.776
  22132950.560   -18546008.08143 -14250338.78242  22132951.870    22132947.202
  21092056.130   -25449763.34944 -19825407.58042  21092057.157    21092051.667
  20303607.024   -26582685.83344 -20683522.30742  20303608.491    20303604.079
  22948450.625    -1763142.88543  -1359613.53242  22948451.164    22948447.506
  23697840.773   -10046583.35943  -7785774.96742  23697841.966    23697837.207
  23104478.515   -11537356.91343  -8964282.97942  23104480.140    23104475.521
 03 12 24  3  4 30.0000000  0 10G30G15G10G26G18G21G 6G17G16G29
  22890972.561    -9159120.75843  -7128891.70942  22890974.443    22890970.327
  24261059.753    -8410256.46943  -6519079.72942  24261060.726    24261058.261
  23492002.783    -6369329.75343  -4925060.99342  23492003.504    23491999.561
  22573870.026   -14612850.18543 -11348339.88242  22573871.822    22573867.562
  22116380.238   -18633085.74743 -14318191.47842  22116381.538    22116376.807
  21085688.406   -25483225.73744 -19851482.15242  21085689.460    21085683.964
  20304255.292   -26579279.18944 -20680867.77742  20304256.742    20304252.354
  22961028.586    -1697045.26743  -1308108.89642  22961029.142    22961025.475
  23686015.941   -10108723.07243  -7834195.48742  23686017.164    23686012.350
  23100092.483   -11560405.70643  -8982243.04942  23100094.116    23100089.514
 03 12 24  3  5  0.0000000  0 10G30G15G10G26G18G21G 6G17G16G29
  22910290.676    -9057603.32143  -7049787.19042  22910292.570    22910288.451
  24246083.389    -8488957.12543  -6580404.79142  24246084.447    24246081.914
  23511316.795    -6267833.93343  -4845973.34242  23511317.526    23511313.543
  22562098.849   -14674707.93743 -11396540.69642  22562100.674    22562096.357
  22099871.911   -18719837.29143 -14385790.03242  22099873.210    22099868.557
  21079360.730   -25516477.70244 -19877392.74742  21079361.811    21079356.327
  20304985.540   -26575441.78244 -20677877.58642  20304986.984    20304982.581
  22973620.605    -1630873.93343  -1256546.82042  22973621.133    22973617.449
  23674278.415   -10170404.13143  -7882258.63242  23674279.598    23674274.796
  23095799.928   -11582962.86643  -8999820.04342  23095801.554    23095797.007
 03 12 24  3  5 30.0000000  0 10G30G15G10G26G18G21G 6G17G16G29
  22929634.473    -8955950.88443  -6970577.50342  22929636.371    22929632.219
  24231123.356    -8567572.19743  -6641663.16342  24231124.340    24231121.862
  23530665.026    -6166158.18843  -4766745.47142  23530665.764    23530661.806
  22550410.352   -14736131.10243 -11444402.87342  22550412.203    22550407.904
  22083425.039   -18806266.19143 -14453137.20042  22083426.312    22083421.574
  21073072.031   -25549524.99144 -19903143.85842  21073073.091    21073067.612
  20305796.943   -26571177.88344 -20674555.06342  20305798.382    20305793.964
  22986225.526    -1564634.52043  -1204931.70342  22986226.003    22986222.386
  23662627.455   -10231630.03643  -7929967.10642  23662628.667    23662623.910
  23091600.234   -11605032.03743  -9017016.78042  23091601.893    23091597.384
 03 12 24  3  6  0.0000000  0 10G30G15G10G26G18G21G 6G17G16G29
  22949004.050    -8854163.24143  -6891262.47542  22949005.940    22949001.780
  24216180.268    -8646098.34543  -6702852.25942  24216181.214    24216178.623
  23550047.562    -6064301.97243  -4687376.99842  23550048.335    23550044.384
  22538805.724   -14797113.74443 -11491921.78742  22538807.554    22538803.263
  22067040.466   -18892367.67443 -14520229.22642  22067041.710    22067037.017
  21066822.902   -25582364.30344 -19928732.91442  21066823.970    21066818.468
  20306690.294   -26566483.42744 -20670897.04542  20306691.706    20306687.279
  22998843.973    -1498324.20443  -1153261.32442  22998844.476    22998840.826
  23651064.171   -10292395.61043  -7977316.88442  23651065.381    23651060.576
  23087494.304   -11626608.53843  -9033829.63142  23087496.044    23087491.463
 03 12 24  3  6 30.0000000  0 10G30G15G10G26G18G21G 6G17G16G29
  22968398.952    -8752241.86843  -6811843.21342  22968400.904    22968396.781
  24201254.410    -8724534.23343  -6763971.05242  24201255.263    24201252.615
  23569464.212    -5962266.46143  -4607868.78742  23569465.034    23569461.103
  22527285.742   -14857651.26543 -11539093.85542  22527287.545    22527283.307
  22050718.751   -18978138.44543 -14587063.55642  22050720.008    22050715.287
  21060613.669   -25614994.08944 -19954158.70542  21060614.690    21060609.207
  20307665.973   -26561356.11144 -20666901.73042  20307667.393    20307662.999
  23011476.076    -1431942.31743  -1101535.18042  23011476.521    23011472.848
  23639589.074   -10352697.67843  -8024305.48542  23639590.247    23639585.458
  23083482.658   -11647689.63443  -9050256.42942  23083484.414    23083479.820
 03 12 24  3  7  0.0000000  0 10G30G15G10G26G18G21G 6G17G16G29
  22987818.234    -8650192.83443  -6732324.50042  22987820.162    22987816.055
  24186345.219    -8802882.66643  -6825021.70742  24186346.053    24186343.193
  23588913.971    -5860057.26743  -4528225.25542  23588914.828    23588910.861
  22515850.532   -14917743.58743 -11585919.01442  22515852.320    22515848.088
  22034459.840   -19063579.54743 -14653640.99942  22034461.089    22034456.420
  21054443.547   -25647418.12044 -19979424.16642  21054444.576    21054439.105
  20308723.654   -26555798.00044 -20662570.73342  20308725.065    20308720.677
  23024121.215    -1365491.90243  -1049755.63642  23024121.617    23024117.954
  23628201.968   -10412537.37243  -8070933.80142  23628203.108    23628198.316
  23079564.982   -11668276.96443  -9066298.49242  23079566.740    23079562.208
 03 12 24  3  7 30.0000000  0 10G30G15G10G26G18G21G 6G17G16G29
  23007260.904    -8548020.66143  -6652709.82242  23007262.870    23007258.792
  24171452.295    -8881145.19643  -6886005.41842  24171453.069    24171450.175
  23608395.922    -5757678.92943  -4448449.92742  23608396.812    23608392.851
  22504500.329   -14977389.05543 -11632395.97142  22504502.134    22504497.875
  22018263.656   -19148690.84943 -14719961.46642  22018264.917    22018260.160
  21048312.313   -25679637.90644 -20004530.47042  21048313.318    21048307.871
  20309863.216   -26549809.57244 -20657904.42442  20309864.635    20309860.217
  23036778.984    -1298974.90443   -997924.22442  23036779.380    23036775.717
  23616902.872   -10471914.42043  -8117201.61242  23616904.040    23616899.223
  23075741.377   -11688370.29843  -9081955.62642  23075743.111    23075738.533
 03 12 24  3  8  0.0000000  0 10G30G15G10G26G18G21G 6G17G16G29
  23026727.389    -8445723.68543  -6572997.88442  23026729.323    23026725.210
  24156576.623    -8959317.31243  -6946918.66442  24156577.388    24156574.495
  23627910.505    -5655129.29543  -4368541.11042  23627911.351    23627907.393
  22493236.614   -15036580.08243 -11678518.82842  22493238.427    22493234.180
  22002131.429   -19233465.82043 -14786019.84042  22002132.745    22002128.039
  21042220.763   -25711649.10444 -20029474.24142  21042221.770    21042216.326
  20311085.684   -26543385.40544 -20652898.57442  20311087.118    20311082.691
  23049450.185    -1232387.28643   -946037.76142  23049450.609    23049446.874
  23605693.044   -10530822.32643  -8163103.84842  23605694.248    23605689.420
  23072012.871   -11707963.72143  -9097223.20442  23072014.579    23072010.024
 03 12 24  3  8 30.0000000  0 10G30G15G10G26G18G21G 6G17G16G29
  23046216.751    -8343306.34143  -6493192.18742  23046218.709    23046214.627
  24141717.846    -9037400.50743  -7007762.61542  24141718.566    24141715.713
  23647456.779    -5552412.72143  -4288502.21642  23647457.666    23647453.751
  22482059.671   -15095315.23343 -11724286.44242  22482061.473    22482057.272
  21986063.303   -19317904.39543 -14851816.11042  21986064.623    21986059.832
  21036168.600   -25743453.31644 -20054256.72642  21036169.599    21036164.170
  20312390.941   -26536526.19044 -20647553.73142  20312392.384    20312387.954
  23062134.487    -1165731.00943   -894097.79842  23062134.916    23062131.163
  23594572.500   -10589260.72743  -8208640.24842  23594573.741    23594568.966
  23068379.483   -11727057.34943  -9112101.34242  23068381.195    23068376.623
 03 12 24  3  9  0.0000000  0 10G30G15G10G26G18G21G 6G17G16G29
  23065727.721    -8240775.51043  -6413298.03942  23065729.698    23065725.584
  24126875.145    -9115398.72243  -7068540.37142  24126875.930    24126873.108
  23667033.584    -5449535.95843  -4208338.48842  23667034.395    23667030.529
  22470969.362   -15153595.18543 -11769699.37242  22470971.178    22470966.988
  21970058.747   -19402008.81543 -14917351.98042  21970060.074    21970055.325
  21030154.982   -25775054.97044 -20078881.37342  21030155.971    21030150.548
  20313778.435   -26529234.97744 -20641872.26242  20313779.849    20313775.439
  23074831.007    -1099010.33043   -842107.67142  23074831.432    23074827.685
  23583540.941   -10647232.01543  -8253812.66842  23583542.163    23583537.360
  23064840.692   -11745653.83643  -9126592.08842  23064842.387    23064837.845
 03 12 24  3  9 30.0000000  0 10G30G15G10G26G18G21G 6G17G16G29
  23085261.329    -8138125.92743  -6333311.34842  23085263.275    23085259.104
  24112050.351    -9193303.37543  -7129245.23642  24112051.105    24112048.301
  23686641.998    -5346492.88543  -4128045.18342  23686642.863    23686638.963
  22459967.846   -15211408.56843 -11814748.73842  22459969.618    22459965.439
  21954119.752   -19485768.72143 -14982619.41542  21954121.071    21954116.258
  21024181.559   -25806445.47844 -20103341.49142  21024182.547    21024177.093
  20315249.840   -26521502.51544 -20635846.96842  20315251.278    20315246.858
  23087541.274    -1032217.28743   -790061.14942  23087541.685    23087538.007
  23572600.178   -10704725.83543  -8298613.02242  23572601.452    23572596.579
  23061398.386   -11763743.32343  -9140687.78342  23061400.082    23061395.533
 03 12 24  3 10  0.0000000  0 10G30G15G10G26G18G21G 6G17G16G29
  23104815.562    -8035367.84443  -6253240.12642  23104817.479    23104813.375
  24097241.868    -9271121.93643  -7189883.00242  24097242.567    24097239.852
  23706280.165    -5243293.72143  -4047630.24642  23706281.038    23706277.125
  22449054.205   -15268759.96843 -11859438.10642  22449055.971    22449051.821
  21938245.191   -19569190.06443 -15047623.02442  21938246.528    21938241.736
  21018246.889   -25837632.33644 -20127642.92342  21018247.862    21018242.408
  20316803.984   -26513335.35644 -20629482.94542  20316805.434    20316800.996
  23100263.885     -965359.54943   -737964.23042  23100264.280    23100260.618
  23561749.227   -10761747.87843  -8343045.76542  23561750.512    23561745.644
  23058051.469   -11781331.90543  -9154393.16142  23058053.056    23058048.466
 03 12 24  3 10 30.0000000  0 10G30G15G10G26G18G21G 6G17G16G29
  23124390.185    -7932502.59943  -6173085.40242  23124392.089    23124388.005
  24082450.115    -9348852.70143  -7250452.33642  24082450.774    24082448.218
  23725947.797    -5139939.57643  -3967094.54242  23725948.680    23725944.782
  22438229.401   -15325644.62543 -11903763.79442  22438231.166    22438226.977
  21922435.694   -19652269.45043 -15112360.18342  21922437.020    21922432.187
  21012351.173   -25868614.46044 -20151784.82442  21012352.168    21012346.683
  20318441.317   -26504731.17644 -20622778.38742  20318442.743    20318438.311
  23112998.975     -898436.04743   -685816.04942  23112999.404    23112995.763
  23550988.641   -10818294.91743  -8387108.38142  23550989.949    23550985.097
  23054800.329   -11798416.66943  -9167705.94142  23054801.977    23054797.339
 03 12 24  3 11  0.0000000  0 10G30G15G10G26G18G21G 6G17G16G29
  23143984.424    -7829534.41543  -6092850.45042  23143986.333    23143982.165
  24067674.881    -9426497.07243  -7310954.36842  24067675.548    24067672.985
  23745644.171    -5036434.27843  -3886441.06442  23745644.993    23745641.210
  22427493.659   -15382060.93743 -11947724.52842  22427495.462    22427491.302
  21906691.316   -19735006.43443 -15176830.52342  21906692.642    21906687.850
  21006494.118   -25899393.44444 -20175768.43142  21006495.114    21006489.621
  20320161.743   -26495690.36244 -20615733.59342  20320163.155    20320158.728
  23125746.333     -831448.20143   -633617.72542  23125746.794    23125743.173
  23540318.516   -10874366.47043  -8430800.47542  23540319.783    23540315.029
  23051645.077   -11814997.68543  -9180626.20842  23051646.705    23051642.034
 03 12 24  3 11 30.0000000  0 10G30G15G10G26G18G21G 6G17G16G29
  23163599.110    -7726458.81643  -6012531.81942  23163601.002    23163596.863
  24052917.469    -9504047.53143  -7371383.24942  24052918.163    24052915.431
  23765370.205    -4932773.14543  -3805666.16042  23765371.047    23765367.241
  22416849.093   -15437998.53743 -11991312.24642  22416850.859    22416846.710
  21891013.921   -19817391.89143 -15241026.96042  21891015.204    21891010.382
  21000677.187   -25929961.61244 -20199587.77042  21000678.183    21000672.683
  20321966.811   -26486204.75444 -20608342.21442  20321968.220    20321963.770
  23138507.216     -764389.20043   -581363.95942  23138507.722    23138504.088
  23529740.682   -10929953.24643  -8474114.82742  23529741.961    23529737.179
  23048587.374   -11831066.02143  -9193146.97542  23048588.931    23048584.267
 03 12 24  3 12  0.0000000  0 10G30G15G10G26G18G21G 6G17G16G29
  23183232.283    -7623285.39343  -5932136.95442  23183234.216    23183230.140
  24038176.735    -9581510.61243  -7431744.03042  24038177.420    24038174.598
  23785124.118    -4828965.37443  -3724776.98242  23785125.024    23785121.200
  22406294.954   -15493460.91043 -12034529.65142  22406296.697    22406292.558
  21875402.423   -19899430.58743 -15304953.18542  21875403.718    21875398.910
  20994899.055   -25960325.96944 -20223248.29242  20994900.037    20994894.524
  20323855.381   -26476280.19644 -20600608.78742  20323856.786    20323852.357
  23151280.337     -697265.97643   -529060.15542  23151280.883    23151277.240
  23519254.258   -10985060.22143  -8517055.30942  23519255.469    23519250.625
  23045626.178   -11846627.18743  -9205272.54142  23045627.761    23045623.110
 03 12 24  3 12 30.0000000  0 10G30G15G10G26G18G21G 6G17G16G29
  23202883.593    -7520017.00743  -5851668.08342  23202885.540    23202881.400
  24023452.599    -9658886.21443  -7492036.61842  24023453.323    24023450.515
  23804905.529    -4725013.61843  -3643775.61842  23804906.350    23804902.564
  22395831.826   -15548445.15343 -12077374.50042  22395833.560    22395829.357
  21859857.260   -19981120.84843 -15368607.90742  21859858.545    21859853.766
  20989159.659   -25990486.67144 -20246750.12142  20989160.645    20989155.107
  20325827.673   -26465915.62544 -20592532.49842  20325829.102    20325824.665
  23164065.697     -630078.51343   -476706.28142  23164066.261    23164062.594
  23508859.322   -11039685.78143  -8559620.66642  23508860.540    23508855.673
  23042761.674   -11861679.75243  -9217001.80342  23042763.355    23042758.719
 03 12 24  3 13  0.0000000  0 10G30G15G10G26G18G21G 6G17G16G29
  23222552.615    -7416655.64143  -5771126.77342  23222554.583    23222550.492
  24008745.249    -9736173.39443  -7552260.30942  24008745.989    24008743.290
  23824714.023    -4620919.34843  -3562663.20442  23824714.817    23824711.082
  22385460.291   -15602947.53943 -12119843.86642  22385462.042    22385457.856
  21844378.896   -20062460.31743 -15431989.28642  21844380.151    21844375.332
  20983459.133   -26020443.05444 -20270092.74342  20983460.124    20983454.587
  20327884.029   -26455109.40044 -20584112.06542  20327885.451    20327881.010
  23176863.284     -562826.47543   -424302.10142  23176863.884    23176860.198
  23498556.453   -11093827.30843  -8601808.85042  23498557.719    23498552.845
  23039994.423   -11876221.71843  -9228333.19042  23039996.053    23039991.457
 03 12 24  3 13 30.0000000  0 10G30G15G10G26G18G21G 6G17G16G29
  23242238.991    -7313203.18143  -5690514.47642  23242240.916    23242236.854
  23994054.914    -9813371.29843  -7612414.45742  23994055.631    23994052.929
  23844549.295    -4516684.33743  -3481441.12642  23844550.057    23844546.276
  22375181.297   -15656963.99843 -12161934.59242  22375183.030    22375178.856
  21828967.753   -20143446.34143 -15495095.25142  21828969.030    21828964.213
  20977797.719   -26050194.03444 -20293275.31042  20977798.683    20977793.146
  20330024.724   -26443859.93244 -20575346.24542  20330026.152    20330021.717
  23189673.319     -495509.14143   -371847.04142  23189673.964    23189670.258
  23488346.254   -11147482.13143  -8643617.79442  23488347.483    23488342.630
  23037324.749   -11890250.91543  -9239265.02142  23037326.384    23037321.772
 03 12 24  3 14  0.0000000  0 10G30G15G10G26G18G21G 6G17G16G29
  23261942.461    -7209660.80443  -5609832.09842  23261944.411    23261940.235
  23979381.887    -9890477.80243  -7672497.36642  23979382.617    23979379.954
  23864411.232    -4412309.11343  -3400109.78342  23864411.983    23864408.193
  22364995.650   -15710489.77443 -12203642.96642  22364997.387    22364993.209
  21813624.595   -20224074.98743 -15557922.74142  21813625.871    21813621.046
  20972175.718   -26079737.70544 -20316296.34142  20972176.675    20972171.165
  20332250.286   -26432164.44044 -20566232.87642  20332251.724    20332247.298
  23202496.097     -428125.00843   -319339.92842  23202496.707    23202493.017
  23478229.329   -11200646.58243  -8685044.61642  23478230.611    23478225.793
  23034753.205   -11903764.13543  -9249794.78942  23034754.832    23034750.249
 03 12 24  3 14 30.0000000  0 10G30G15G10G26G18G21G 6G17G16G29
  23281660.691    -7106040.88543  -5529089.32342  23281662.644    23281658.601
  23964724.479    -9967502.75743  -7732516.75242  23964725.156    23964722.569
  23884297.576    -4307805.97743  -3318678.77442  23884298.217    23884294.545
  22354902.096   -15763531.73943 -12244974.34842  22354903.857    22354899.624
  21798347.949   -20304354.35843 -15620478.07042  21798349.198    21798344.400
  20966591.231   -26109084.34444 -20339163.84142  20966592.181    20966586.662
  20334559.055   -26420031.81044 -20556778.88042  20334560.485    20334556.074
  23215329.680     -360683.84443   -266788.37242  23215330.272    23215326.668
  23468204.275   -11253328.82143  -8726095.70342  23468205.525    23468200.677
  23032278.269   -11916769.86943  -9259929.10742  23032279.886    23032275.395
 03 12 24  3 15  0.0000000  0 10G30G15G10G26G18G21G 6G17G16G29
  23301396.087    -7002330.79343  -5448276.25742  23301398.012    23301393.927
  23950085.522   -10044430.44343  -7792460.32242  23950086.279    23950083.669
  23904210.675    -4203161.92943  -3237137.94842  23904211.328    23904207.572
  22344904.124   -15816071.31443 -12285914.24842  22344905.892    22344901.659
  21783140.989   -20384267.48043 -15682748.01642  21783142.237    21783137.403
  20961047.217   -26138218.31444 -20361865.62842  20961048.182    20961042.639
  20336954.115   -26407445.76344 -20546971.57442  20336955.539    20336951.131
  23228177.064     -293170.44043   -214180.53642  23228177.633    23228174.009
  23458274.298   -11305511.47543  -8766757.49242  23458275.470    23458270.637
  23029903.096   -11929251.40343  -9269654.97142  23029904.702    23029900.265
 03 12 24  3 15 30.0000000  0 10G30G15G10G26G18G21G 6G17G16G29
  23321145.769    -6898545.61543  -5367404.71142  23321147.696    23321143.606
  23935462.705   -10121273.05143  -7852337.58042  23935463.544    23935460.977
  23924147.838    -4098391.76343  -3155498.87042  23924148.395    23924144.715
  22334999.976   -15868117.85343 -12326469.97942  22335001.778    22334997.509
  21768001.665   -20463825.03243 -15744740.88442  21768002.883    21767998.117
  20955541.334   -26167151.89444 -20384411.26142  20955542.297    20955536.734
  20339433.230   -26394417.92844 -20536820.01542  20339434.657    20339430.251
  23241035.780     -225597.45543   -161526.27142  23241036.352    23241032.725
  23448437.263   -11357205.55643  -8807038.58642  23448438.410    23448433.565
  23027625.562   -11941219.97643  -9278981.13042  23027627.125    23027622.696
 03 12 24  3 16  0.0000000  0 10G30G15G10G26G18G21G 6G17G16G29
  23340909.963    -6794684.21843  -5286473.75442  23340911.876    23340907.818
  23920856.969   -10198026.15243  -7912145.11842  23920857.867    23920855.200
  23944109.106    -3993493.85243  -3073760.23942  23944109.810    23944106.114
  22325190.989   -15919664.48643 -12366636.16342  22325192.791    22325188.484
  21752931.170   -20543020.95043 -15806451.96542  21752932.384    21752927.589
  20950074.342   -26195881.05244 -20406797.60742  20950075.311    20950069.759
  20341997.321   -26380943.41244 -20526320.39142  20341998.764    20341994.380
  23253906.637     -157960.66543   -108822.28142  23253907.216    23253903.566
  23438694.334   -11408405.06243  -8846934.28942  23438695.475    23438690.651
  23025446.670   -11952669.93943  -9287903.16042  23025448.245    23025443.845
 03 12 24  3 16 30.0000000  0 10G30G15G10G26G18G21G 6G17G16G29
  23360687.829    -6690751.07843  -5205486.90642  23360689.718    23360685.706
  23906267.973   -10274691.69143  -7971884.45342  23906268.895    23906266.129
  23964093.937    -3888472.61043  -2991925.50742  23964094.748    23964090.999
  22315477.316   -15970710.07443 -12406411.91542  22315479.109    22315474.803
  21737929.411   -20621855.46543 -15867881.43242  21737930.656    21737925.883
  20944645.933   -26224407.52444 -20429026.01542  20944646.893    20944641.332
  20344646.239   -26367023.30244 -20515473.55342  20344647.671    20344643.275
  23266789.140      -90262.54743    -56070.49342  23266789.758    23266786.025
  23429045.459   -11459110.20343  -8886444.76842  23429046.601    23429041.785
  23023366.259   -11963602.44543  -9296421.98042  23023367.913    23023363.449
 03 12 24  3 17  0.0000000  0 10G30G15G10G26G18G21G 6G17G16G29
  23380479.592    -6586744.65143  -5124442.93942  23380481.509    23380477.441
  23891696.439   -10351265.10043  -8031551.96242  23891697.424    23891694.686
  23984102.737    -3783325.75743  -2909992.89942  23984103.508    23984099.749
  22305860.332   -16021247.27843 -12445791.53742  22305862.159    22305857.842
  21722997.586   -20700322.56143 -15929024.60142  21722998.826    21722994.047
  20939256.878   -26252726.97844 -20451093.11442  20939257.868    20939252.294
  20347380.993   -26352652.14544 -20504275.25242  20347382.411    20347378.012
  23279684.210      -22498.46743     -3267.32542  23279684.814    23279681.117
  23419491.862   -11509314.89943  -8925565.31042  23419492.969    23419488.107
  23021385.444   -11974011.75943  -9304533.11342  23021387.152    23021382.607
 03 12 24  3 17 30.0000000  0 10G30G15G10G26G18G21G 6G17G16G29
  23400283.821    -6482672.55743  -5043347.81842  23400285.783    23400281.728
  23877141.506   -10427751.06343  -8091151.32942  23877142.521    23877139.883
  24004134.048    -3678060.47843  -2827968.00742  24004134.839    24004131.073
  22296339.757   -16071278.10043 -12484776.57142  22296341.534    22296337.257
  21708135.106   -20778425.26843 -15989883.82842  21708136.363    21708131.614
  20933906.232   -26280844.79444 -20473003.09242  20933907.211    20933901.627
  20350200.760   -26337834.10544 -20492728.72842  20350202.193    20350197.806
  23292590.865       45326.30743     49583.16042  23292591.480    23292587.741
  23410032.880   -11559022.42943  -8964298.43342  23410033.957    23410029.102
  23019503.489   -11983901.45043  -9312239.35642  23019505.230    23019500.647
 03 12 24  3 18  0.0000000  0 10G30G15G10G26G18G21G 6G17G16G29
  23420100.509    -6378535.50943  -4962202.06242  23420102.367    23420098.377
  23862603.700   -10504147.60543  -8150681.04542  23862604.753    23862602.007
  24024187.804    -3572677.35943  -2745851.29242  24024188.576    24024184.848
  22286916.498   -16120797.65843 -12523363.22142  22286918.239    22286913.967
  21693342.722   -20856159.78643 -16050456.15742  21693343.967    21693339.193
  20928594.505   -26308758.09744 -20494753.70942  20928595.481    20928589.923
  20353106.100   -26322566.35844 -20480831.78442  20353107.544    20353103.160
  23305509.443      113213.86143    102482.54042  23305510.097    23305506.323
  23400669.117   -11608229.13443  -9002641.31242  23400670.223    23400665.328
  23017721.040   -11993268.37043  -9319538.23842  23017722.809    23017718.132
 03 12 24  3 18 30.0000000  0 10G30G15G10G26G18G21G 6G17G16G29
  23439928.388    -6274339.17843  -4881010.13242  23439930.255    23439926.239
  23848082.381   -10580457.38943  -8210143.15942  23848083.426    23848080.625
  24044262.859    -3467182.20043  -2663647.27742  24044263.632    24044259.916
  22277590.500   -16169806.13143 -12561551.62642  22277592.276    22277587.917
  21678620.066   -20933527.73543 -16110742.84842  21678621.321    21678616.538
  20923321.002   -26336470.47044 -20516347.75842  20923321.993    20923316.422
  20356096.609   -26306851.34344 -20468586.32142  20356098.030    20356093.628
  23318439.309      181160.84843    155428.24542  23318439.978    23318436.206
  23391400.381   -11656936.56343  -9040595.14242  23391401.523    23391396.591
  23016037.683   -12002114.59043  -9326431.39742  23016039.417    23016034.734
 03 12 24  3 19  0.0000000  0 10G30G15G10G26G18G21G 6G17G16G29
  23459767.596    -6170083.48743  -4799771.92542  23459769.408    23459765.405
  23833578.159   -10656677.20843  -8269535.15942  23833579.131    23833576.425
  24064359.493    -3361573.75343  -2581354.98242  24064360.201    24064356.526
  22268362.842   -16218297.68143 -12599337.23342  22268364.625    22268360.291
  21663968.064   -21010524.46843 -16170740.28042  21663969.312    21663964.515
  20918086.323   -26363978.90444 -20537782.88842  20918087.305    20918081.727
  20359172.918   -26290685.22744 -20455989.34842  20359174.357    20359169.916
  23331381.053      249170.18643    208422.52542  23331381.764    23331377.953
  23382227.599   -11705139.87443  -9078156.15442  23382228.761    23382223.905
  23014454.189   -12010435.91043  -9332915.52142  23014455.914    23014451.188
 03 12 24  3 19 30.0000000  0 10G30G15G10G26G18G21G 6G17G16G29
  23479617.885    -6065769.69843  -4718488.48142  23479619.650    23479615.707
  23819091.440   -10732805.60343  -8328855.91542  23819092.395    23819089.610
  24084477.496    -3255853.14143  -2498975.28942  24084478.162    24084474.529
  22259234.348   -16266268.03643 -12636716.70442  22259236.151    22259231.781
  21649387.285   -21087146.73943 -16230445.92442  21649388.561    21649383.754
  20912890.692   -26391281.98944 -20559058.00842  20912891.703    20912886.125
  20362335.512   -26274065.87144 -20443039.19942  20362336.934    20362332.473
  23344334.935      317243.18443    261466.43042  23344335.622    23344331.825
  23373151.245   -11752836.29343  -9115322.18042  23373152.444    23373147.564
  23012971.022   -12018230.02443  -9338988.83542  23012972.765    23012968.056
 03 12 24  3 20  0.0000000  0 10G30G15G10G26G18G21G 6G17G16G29
  23499478.212    -5961402.89943  -4637163.71042  23499480.027    23499476.045
  23804621.611   -10808844.59143  -8388107.01942  23804622.557    23804619.755
  24104615.916    -3150025.01943  -2416511.82542  24104616.620    24104612.927
  22250205.130   -16313716.82343 -12673689.77142  22250206.940    22250202.577
  21634877.667   -21163395.25943 -16289860.33342  21634878.922    21634874.128
  20907733.712   -26418381.95444 -20580174.85242  20907734.720    20907729.153
  20365584.024   -26256994.85544 -20429737.11042  20365585.435    20365580.980
  23357300.444      385377.37943    314558.01442  23357301.152    23357297.331
  23364171.216   -11800026.45943  -9152093.73042  23364172.410    23364167.576
  23011587.888   -12025498.08243  -9344652.24442  23011589.615    23011584.959
 03 12 24  3 20 30.0000000  0 10G30G15G10G26G18G21G 6G17G16G29
  23519347.705    -5856987.77843  -4555801.28542  23519349.579    23519345.537
  23790168.513   -10884795.96843  -8447289.86042  23790169.342    23790166.520
  24124773.991    -3044093.90143  -2333968.09842  24124774.622    24124770.940
  22241275.388   -16360642.98643 -12710255.59642  22241277.157    22241272.795
  21620439.134   -21239270.14143 -16348983.59742  21620440.394    21620435.568
  20902615.066   -26445280.66044 -20601134.87242  20902616.058    20902610.485
  20368918.191   -26239473.67144 -20416084.24342  20368919.614    20368915.148
  23370277.159      453570.69343    367695.65242  23370277.947    23370274.105
  23355287.463   -11846710.84243  -9188471.16342  23355288.673    23355283.773
  23010304.781   -12032240.95943  -9349906.42242  23010306.461    23010301.866
 03 12 24  3 21  0.0000000  0 10G30G15G10G26G18G21G 6G17G16G29
  23539226.172    -5752525.83843  -4474402.37542  23539228.073    23539223.934
  23775732.388   -10960658.71043  -8506403.62442  23775733.179    23775730.242
  24144951.404    -2938060.89443  -2251344.98542  24144951.995    24144948.425
  22232445.825   -16407042.85743 -12746411.32042  22232447.564    22232443.179
  21606072.194   -21314768.91243 -16407813.78842  21606073.472    21606068.622
  20897534.957   -26471976.90044 -20621937.12642  20897535.935    20897530.352
  20372338.404   -26221500.32744 -20402079.03942  20372339.826    20372335.364
  23383265.352      521824.19743    420880.19942  23383266.217    23383262.344
  23346500.438   -11892886.76343  -9224452.38842  23346501.683    23346496.811
  23009121.987   -12038456.59043  -9354749.76842  23009123.677    23009119.096
 03 12 24  3 21 30.0000000  0 10G30G15G10G26G18G21G 6G17G16G29
  23559113.107    -5648019.22843  -4392968.67942  23559115.032    23559110.947
  23761313.193   -11036431.91943  -8565447.62642  23761314.028    23761311.051
  24165147.904    -2831927.54343  -2168643.66942  24165148.550    24165144.908
  22223717.021   -16452912.98543 -12782154.26742  22223718.782    22223714.351
  21591777.239   -21389889.35343 -16466349.17842  21591778.532    21591773.634
  20892493.453   -26498470.08644 -20642581.15942  20892494.451    20892488.850
  20375844.928   -26203073.52444 -20387720.49442  20375846.342    20375841.852
  23396265.149      590138.45543    474112.07942  23396265.936    23396262.100
  23337810.637   -11938552.11943  -9260035.77742  23337811.836    23337806.925
  23008039.798   -12044143.49143  -9359181.10142  23008041.486    23008036.900
 03 12 24  3 22  0.0000000  0 10G30G15G10G26G18G21G 6G17G16G29
  23579008.672    -5543467.55143  -4311499.84442  23579010.583    23579006.401
  23746911.623   -11112112.25543  -8624419.26042  23746912.466    23746909.477
  24185363.584    -2725693.18943  -2085863.65542  24185364.317    24185360.707
  22215090.153   -16498247.53343 -12817479.86542  22215091.911    22215087.506
  21577555.193   -21464626.58343 -16524585.95942  21577556.492    21577551.592
  20887491.213   -26524756.96644 -20663064.42942  20887492.229    20887486.594
  20379438.430   -26184189.58344 -20373005.73542  20379439.834    20379435.344
  23409277.097      658516.56143    527393.72242  23409277.782    23409274.044
  23329218.800   -11983702.32443  -9295217.73242  23329219.970    23329215.141
  23007058.966   -12049297.47643  -9363197.17942  23007060.709    23007056.105
 03 12 24  3 22 30.0000000  0 10G30G15G10G26G18G21G 6G17G16G29
  23598910.611    -5438882.20643  -4230004.79042  23598912.530    23598908.391
  23732526.218   -11187708.17143  -8683325.12942  23732527.037    23732523.906
  24205596.533    -2619368.66443  -2003013.39842  24205597.253    24205593.569
  22206564.007   -16543052.54843 -12852392.84642  22206565.816    22206561.366
  21563404.730   -21538987.86543 -16582529.80042  21563406.010    21563401.064
  20882526.482   -26550846.75944 -20683394.12942  20882527.492    20882521.863
  20383117.376   -26164856.46944 -20357940.97642  20383118.801    20383114.316
  23422299.431      726949.50043    580718.08542  23422300.206    23422296.330
  23320723.611   -12028344.67943  -9330003.97942  23320724.800    23320719.951
  23006178.123   -12053926.32843  -9366804.06742  23006179.830    23006175.200
 03 12 24  3 23  0.0000000  0 10G30G15G10G26G18G21G 6G17G16G29
  23618819.884    -5334258.36843  -4148479.72442  23618821.782    23618817.689
  23718158.246   -11263212.03043  -8742159.24342  23718159.123    23718156.023
  24225847.549    -2512948.75843  -1920088.79642  24225848.333    24225844.654
  22198140.566   -16587317.75543 -12886885.19642  22198142.382    22198137.981
  21549327.511   -21612963.97343 -16640173.49842  21549328.799    21549323.887
  20877600.759   -26576731.43444 -20703563.99642  20877601.766    20877596.157
  20386883.381   -26145065.99544 -20342519.82942  20386884.795    20386880.340
  23435333.703      795444.75843    634091.01942  23435334.407    23435330.498
  23312326.783   -12072470.21143  -9364387.48942  23312327.946    23312323.099
  23005398.797   -12058021.68843  -9369995.23442  23005400.496    23005395.852
 03 12 24  3 23 30.0000000  0 10G30G15G10G26G18G21G 6G17G16G29
  23638735.212    -5229603.08443  -4066930.17342  23638737.098    23638732.969
  23703806.959   -11338628.14243  -8800924.97142  23703807.820    23703804.818
  24246115.426    -2406440.29143  -1837095.19242  24246116.167    24246112.523
  22189819.586   -16631044.82843 -12920958.22742  22189821.363    22189816.976
  21535323.037   -21686557.97443 -16697519.45942  21535324.313    21535319.374
  20872713.309   -26602415.22644 -20723577.33042  20872714.299    20872708.681
  20390735.705   -26124821.90444 -20326745.21542  20390737.125    20390732.674
  23448378.975      863997.93343    687509.06842  23448379.590    23448375.812
  23304027.816   -12116081.65743  -9398370.43342  23304028.995    23304024.066
  23004720.302   -12061586.95043  -9372773.35842  23004721.976    23004717.375
 03 12 24  3 24  0.0000000  0 10G30G15G10G26G18G21G 6G17G16G29
  23658656.990    -5124913.62343  -3985353.97042  23658658.890    23658654.581
  23689473.509   -11413950.92843  -8859618.02142  23689474.328    23689471.275
  24266400.697    -2299840.19743  -1754030.19442  24266401.493    24266397.862
  22181602.532   -16674225.73843 -12954605.67442  22181604.310    22181599.915
  21521392.628   -21759762.74543 -16754562.12042  21521393.875    21521388.951
  20867865.064   -26627892.87644 -20743430.03842  20867866.062    20867860.436
  20394675.482   -26104118.24944 -20310612.50042  20394676.884    20394672.453
  23461436.287      932614.43443    740976.47542  23461436.880    23461433.142
  23295827.941   -12159172.29843  -9431947.54742  23295829.135    23295824.194
  23004143.989   -12064615.80343  -9375133.50742  23004145.592    23004141.002
 03 12 24  3 24 30.0000000  0 10G30G15G10G26G18G21G 6G17G16G29
  23678582.951    -5020202.37543  -3903760.79142  23678584.839    23678580.522
  23675155.866   -11489190.20143  -8918245.99442  23675156.729    23675153.630
  24286701.226    -2193160.40343  -1670903.08942  24286702.026    24286698.329
  22173488.024   -16716867.57643 -12987833.06442  22173489.795    22173485.409
  21507534.669   -21832586.63643 -16811307.98942  21507535.915    21507530.987
  20863054.221   -26653173.98344 -20763129.59242  20863055.221    20863049.608
  20398700.979   -26082964.08344 -20294128.73942  20398702.380    20398697.966
  23474503.763     1001284.51743    794485.61742  23474504.382    23474500.555
  23287725.577   -12201750.71743  -9465125.51842  23287726.715    23287721.803
  23003668.004   -12067117.22143  -9377082.64742  23003669.630    23003665.053
 03 12 24  3 25  0.0000000  0 10G30G15G10G26G18G21G 6G17G16G29
  23698514.650    -4915460.68743  -3822143.90742  23698516.546    23698512.275
  23660856.384   -11564334.21343  -8976799.69642  23660857.254    23660854.248
  24307018.598    -2086391.89543  -1587706.84242  24307019.359    24307015.729
  22165478.804   -16758956.28743 -13020629.44542  22165480.560    22165476.180
  21493751.727   -21905016.42143 -16867746.76842  21493752.964    21493747.995
  20858282.941   -26678247.28444 -20782667.22242  20858283.925    20858278.315
  20402814.484   -26061347.41344 -20277284.58242  20402815.892    20402811.480
  23487583.606     1070019.36043    848045.22742  23487584.163    23487580.390
  23279723.088   -12243804.05543  -9497894.34342  23279724.227    23279719.270
  23003294.693   -12069078.90043  -9378611.22042  23003296.308    23003291.726
 03 12 24  3 25 30.0000000  0 10G30G15G10G26G18G21G 6G17G16G29
  23718450.026    -4810699.47943  -3740511.79842  23718451.971    23718447.654
  23646573.553   -11639390.96543  -9035285.45642  23646574.393    23646571.355
  24327350.928    -1979544.89043  -1504449.43942  24327351.677    24327347.988
  22157573.693   -16800497.67843 -13052999.33542  22157575.448    22157571.076
  21480042.501   -21977058.86343 -16923883.72242  21480043.731    21480038.748
  20853549.678   -26703120.79644 -20802049.17442  20853550.640    20853545.032
  20407014.518   -26039276.10244 -20260086.16442  20407015.936    20407011.518
  23500674.187     1138810.81543    901648.95242  23500674.704    23500670.937
  23271819.274   -12285339.04643  -9530259.27842  23271820.386    23271815.417
  23003022.689   -12070508.38043  -9379725.09042  23003024.282    23003019.634
 03 12 24  3 26  0.0000000  0 10G30G15G10G26G18G21G 6G17G16G29
  23738389.019    -4705919.23443  -3658864.86142  23738390.982    23738386.707
  23632307.705   -11714358.37343  -9093701.57242  23632308.493    23632305.444
  24347698.203    -1872619.50443  -1421130.96142  24347698.920    24347695.212
  22149773.653   -16841487.02243 -13084939.07142  22149775.424    22149771.050
  21466407.628   -22048710.39343 -16979716.06542  21466408.883    21466403.884
  20848854.801   -26727792.47244 -20821273.84742  20848855.766    20848850.154
  20411301.603   -26016747.44744 -20242531.37042  20411303.016    20411298.577
  23513775.894     1207660.85843    955298.34242  23513776.469    23513772.702
  23264014.693   -12326352.34543  -9562217.67742  23264015.826    23264010.829
  23002852.538   -12071402.80043  -9380422.03542  23002854.107    23002849.435
